<?xml version="1.0" encoding="UTF-8" standalone="no" ?>
<gpx xmlns="http://www.topografix.com/GPX/1/1" xmlns:xsi="http://www.w3.org/2001/XMLSchema-instance" xsi:schemaLocation="http://www.topografix.com/GPX/1/1 http://www.topografix.com/GPX/1/1/gpx.xsd" version="1.1" creator="VisuGPX - https://www.visugpx.com">
  <metadata>
    <name>Anello di Bunda</name>
    <desc><![CDATA[AlpineQuest Track 22/12/2016 09:56:58]]></desc>
  </metadata>
  <trk>
    <name><![CDATA[bunda1]]></name>
    <trkseg>
      <trkpt lat="43.9035" lon="7.72102">
        <ele>896.153</ele>
        <time>2016-12-22T08:56:58Z</time>
      </trkpt>
      <trkpt lat="43.90348" lon="7.72104">
        <ele>895.509</ele>
        <time>2016-12-22T08:58:59Z</time>
      </trkpt>
      <trkpt lat="43.90347" lon="7.72107">
        <ele>895.517</ele>
        <time>2016-12-22T08:59:09Z</time>
      </trkpt>
      <trkpt lat="43.90348" lon="7.72111">
        <ele>895.776</ele>
        <time>2016-12-22T08:59:33Z</time>
      </trkpt>
      <trkpt lat="43.90351" lon="7.72111">
        <ele>896.03</ele>
        <time>2016-12-22T08:59:43Z</time>
      </trkpt>
      <trkpt lat="43.90353" lon="7.72109">
        <ele>896.394</ele>
        <time>2016-12-22T08:59:54Z</time>
      </trkpt>
      <trkpt lat="43.9035" lon="7.72107">
        <ele>896.964</ele>
        <time>2016-12-22T09:00:23Z</time>
      </trkpt>
      <trkpt lat="43.90348" lon="7.72104">
        <ele>897.166</ele>
        <time>2016-12-22T09:00:38Z</time>
      </trkpt>
      <trkpt lat="43.90347" lon="7.72101">
        <ele>897.246</ele>
        <time>2016-12-22T09:00:54Z</time>
      </trkpt>
      <trkpt lat="43.90348" lon="7.72104">
        <ele>897.519</ele>
        <time>2016-12-22T09:02:02Z</time>
      </trkpt>
      <trkpt lat="43.90348" lon="7.72109">
        <ele>897.577</ele>
        <time>2016-12-22T09:02:06Z</time>
      </trkpt>
      <trkpt lat="43.90351" lon="7.72108">
        <ele>898.453</ele>
        <time>2016-12-22T09:02:43Z</time>
      </trkpt>
      <trkpt lat="43.90353" lon="7.72108">
        <ele>898.669</ele>
        <time>2016-12-22T09:03:03Z</time>
      </trkpt>
      <trkpt lat="43.90354" lon="7.72104">
        <ele>898.741</ele>
        <time>2016-12-22T09:03:16Z</time>
      </trkpt>
      <trkpt lat="43.90352" lon="7.72103">
        <ele>899.318</ele>
        <time>2016-12-22T09:03:52Z</time>
      </trkpt>
      <trkpt lat="43.90353" lon="7.721">
        <ele>899.07</ele>
        <time>2016-12-22T09:04:31Z</time>
      </trkpt>
      <trkpt lat="43.90355" lon="7.72104">
        <ele>899.53</ele>
        <time>2016-12-22T09:04:53Z</time>
      </trkpt>
      <trkpt lat="43.90353" lon="7.72106">
        <ele>899.985</ele>
        <time>2016-12-22T09:05:20Z</time>
      </trkpt>
      <trkpt lat="43.90352" lon="7.7211">
        <ele>899.949</ele>
        <time>2016-12-22T09:05:31Z</time>
      </trkpt>
      <trkpt lat="43.90354" lon="7.72108">
        <ele>899.888</ele>
        <time>2016-12-22T09:06:04Z</time>
      </trkpt>
      <trkpt lat="43.90356" lon="7.72105">
        <ele>899.704</ele>
        <time>2016-12-22T09:06:14Z</time>
      </trkpt>
      <trkpt lat="43.90359" lon="7.72103">
        <ele>899.479</ele>
        <time>2016-12-22T09:06:20Z</time>
      </trkpt>
      <trkpt lat="43.90356" lon="7.72104">
        <ele>898.915</ele>
        <time>2016-12-22T09:06:44Z</time>
      </trkpt>
      <trkpt lat="43.90353" lon="7.72103">
        <ele>898.757</ele>
        <time>2016-12-22T09:06:57Z</time>
      </trkpt>
      <trkpt lat="43.90355" lon="7.721">
        <ele>901.364</ele>
        <time>2016-12-22T09:08:33Z</time>
      </trkpt>
      <trkpt lat="43.90352" lon="7.721">
        <ele>905.96</ele>
        <time>2016-12-22T09:11:43Z</time>
      </trkpt>
      <trkpt lat="43.90349" lon="7.721">
        <ele>905.987</ele>
        <time>2016-12-22T09:11:46Z</time>
      </trkpt>
      <trkpt lat="43.90346" lon="7.72099">
        <ele>906.105</ele>
        <time>2016-12-22T09:11:55Z</time>
      </trkpt>
      <trkpt lat="43.90347" lon="7.72102">
        <ele>906.143</ele>
        <time>2016-12-22T09:12:02Z</time>
      </trkpt>
      <trkpt lat="43.90349" lon="7.72105">
        <ele>906.284</ele>
        <time>2016-12-22T09:12:11Z</time>
      </trkpt>
      <trkpt lat="43.90352" lon="7.72107">
        <ele>906.36</ele>
        <time>2016-12-22T09:12:23Z</time>
      </trkpt>
      <trkpt lat="43.90355" lon="7.72108">
        <ele>906.171</ele>
        <time>2016-12-22T09:12:37Z</time>
      </trkpt>
      <trkpt lat="43.90356" lon="7.72105">
        <ele>905.24</ele>
        <time>2016-12-22T09:13:00Z</time>
      </trkpt>
      <trkpt lat="43.90355" lon="7.72101">
        <ele>904.9</ele>
        <time>2016-12-22T09:13:16Z</time>
      </trkpt>
      <trkpt lat="43.90353" lon="7.721">
        <ele>904.859</ele>
        <time>2016-12-22T09:13:22Z</time>
      </trkpt>
      <trkpt lat="43.90351" lon="7.72104">
        <ele>905.375</ele>
        <time>2016-12-22T09:14:11Z</time>
      </trkpt>
      <trkpt lat="43.90351" lon="7.72108">
        <ele>905.307</ele>
        <time>2016-12-22T09:14:15Z</time>
      </trkpt>
      <trkpt lat="43.90351" lon="7.72112">
        <ele>905.208</ele>
        <time>2016-12-22T09:14:29Z</time>
      </trkpt>
      <trkpt lat="43.9035" lon="7.72108">
        <ele>905.24</ele>
        <time>2016-12-22T09:14:45Z</time>
      </trkpt>
      <trkpt lat="43.90351" lon="7.72104">
        <ele>905.159</ele>
        <time>2016-12-22T09:15:01Z</time>
      </trkpt>
      <trkpt lat="43.90352" lon="7.72101">
        <ele>905.055</ele>
        <time>2016-12-22T09:15:19Z</time>
      </trkpt>
      <trkpt lat="43.90354" lon="7.72098">
        <ele>904.585</ele>
        <time>2016-12-22T09:15:42Z</time>
      </trkpt>
      <trkpt lat="43.90355" lon="7.72101">
        <ele>903.683</ele>
        <time>2016-12-22T09:16:19Z</time>
      </trkpt>
      <trkpt lat="43.90355" lon="7.72106">
        <ele>903.485</ele>
        <time>2016-12-22T09:16:26Z</time>
      </trkpt>
      <trkpt lat="43.90354" lon="7.7211">
        <ele>903.406</ele>
        <time>2016-12-22T09:16:31Z</time>
      </trkpt>
      <trkpt lat="43.90351" lon="7.72111">
        <ele>902.398</ele>
        <time>2016-12-22T09:16:54Z</time>
      </trkpt>
      <trkpt lat="43.90349" lon="7.72113">
        <ele>902.381</ele>
        <time>2016-12-22T09:16:58Z</time>
      </trkpt>
      <trkpt lat="43.90346" lon="7.72114">
        <ele>902.371</ele>
        <time>2016-12-22T09:17:02Z</time>
      </trkpt>
      <trkpt lat="43.90349" lon="7.72112">
        <ele>902.768</ele>
        <time>2016-12-22T09:18:04Z</time>
      </trkpt>
      <trkpt lat="43.90351" lon="7.72108">
        <ele>903.101</ele>
        <time>2016-12-22T09:18:07Z</time>
      </trkpt>
      <trkpt lat="43.90352" lon="7.72103">
        <ele>903.266</ele>
        <time>2016-12-22T09:18:09Z</time>
      </trkpt>
      <trkpt lat="43.90354" lon="7.72093">
        <ele>903.484</ele>
        <time>2016-12-22T09:18:11Z</time>
      </trkpt>
      <trkpt lat="43.90355" lon="7.72087">
        <ele>903.717</ele>
        <time>2016-12-22T09:18:13Z</time>
      </trkpt>
      <trkpt lat="43.90356" lon="7.72083">
        <ele>903.752</ele>
        <time>2016-12-22T09:18:15Z</time>
      </trkpt>
      <trkpt lat="43.90357" lon="7.72079">
        <ele>903.817</ele>
        <time>2016-12-22T09:18:17Z</time>
      </trkpt>
      <trkpt lat="43.90359" lon="7.72076">
        <ele>903.935</ele>
        <time>2016-12-22T09:18:19Z</time>
      </trkpt>
      <trkpt lat="43.90361" lon="7.72072">
        <ele>904.044</ele>
        <time>2016-12-22T09:18:22Z</time>
      </trkpt>
      <trkpt lat="43.90363" lon="7.72068">
        <ele>904.151</ele>
        <time>2016-12-22T09:18:24Z</time>
      </trkpt>
      <trkpt lat="43.90364" lon="7.72064">
        <ele>904.18</ele>
        <time>2016-12-22T09:18:28Z</time>
      </trkpt>
      <trkpt lat="43.90364" lon="7.7206">
        <ele>904.137</ele>
        <time>2016-12-22T09:18:31Z</time>
      </trkpt>
      <trkpt lat="43.90364" lon="7.72054">
        <ele>903.986</ele>
        <time>2016-12-22T09:18:33Z</time>
      </trkpt>
      <trkpt lat="43.90365" lon="7.72049">
        <ele>903.904</ele>
        <time>2016-12-22T09:18:35Z</time>
      </trkpt>
      <trkpt lat="43.90366" lon="7.72044">
        <ele>903.837</ele>
        <time>2016-12-22T09:18:37Z</time>
      </trkpt>
      <trkpt lat="43.90367" lon="7.72039">
        <ele>903.811</ele>
        <time>2016-12-22T09:18:39Z</time>
      </trkpt>
      <trkpt lat="43.90369" lon="7.72034">
        <ele>903.773</ele>
        <time>2016-12-22T09:18:41Z</time>
      </trkpt>
      <trkpt lat="43.90371" lon="7.72028">
        <ele>903.88</ele>
        <time>2016-12-22T09:18:43Z</time>
      </trkpt>
      <trkpt lat="43.90372" lon="7.72025">
        <ele>903.9</ele>
        <time>2016-12-22T09:18:45Z</time>
      </trkpt>
      <trkpt lat="43.90375" lon="7.72022">
        <ele>903.999</ele>
        <time>2016-12-22T09:18:47Z</time>
      </trkpt>
      <trkpt lat="43.90377" lon="7.72017">
        <ele>904.079</ele>
        <time>2016-12-22T09:18:49Z</time>
      </trkpt>
      <trkpt lat="43.90378" lon="7.72013">
        <ele>904.046</ele>
        <time>2016-12-22T09:18:52Z</time>
      </trkpt>
      <trkpt lat="43.90381" lon="7.7201">
        <ele>903.912</ele>
        <time>2016-12-22T09:18:54Z</time>
      </trkpt>
      <trkpt lat="43.90384" lon="7.72007">
        <ele>904.166</ele>
        <time>2016-12-22T09:19:00Z</time>
      </trkpt>
      <trkpt lat="43.90388" lon="7.72003">
        <ele>904.36</ele>
        <time>2016-12-22T09:19:02Z</time>
      </trkpt>
      <trkpt lat="43.90391" lon="7.72">
        <ele>904.382</ele>
        <time>2016-12-22T09:19:04Z</time>
      </trkpt>
      <trkpt lat="43.90394" lon="7.71997">
        <ele>904.33</ele>
        <time>2016-12-22T09:19:06Z</time>
      </trkpt>
      <trkpt lat="43.90396" lon="7.71994">
        <ele>904.191</ele>
        <time>2016-12-22T09:19:09Z</time>
      </trkpt>
      <trkpt lat="43.90399" lon="7.71991">
        <ele>904.029</ele>
        <time>2016-12-22T09:19:12Z</time>
      </trkpt>
      <trkpt lat="43.90401" lon="7.71988">
        <ele>903.742</ele>
        <time>2016-12-22T09:19:14Z</time>
      </trkpt>
      <trkpt lat="43.90404" lon="7.71986">
        <ele>903.361</ele>
        <time>2016-12-22T09:19:16Z</time>
      </trkpt>
      <trkpt lat="43.90405" lon="7.71983">
        <ele>903.1</ele>
        <time>2016-12-22T09:19:18Z</time>
      </trkpt>
      <trkpt lat="43.90406" lon="7.71977">
        <ele>902.652</ele>
        <time>2016-12-22T09:19:21Z</time>
      </trkpt>
      <trkpt lat="43.90407" lon="7.71972">
        <ele>902.355</ele>
        <time>2016-12-22T09:19:24Z</time>
      </trkpt>
      <trkpt lat="43.90407" lon="7.71968">
        <ele>902.089</ele>
        <time>2016-12-22T09:19:27Z</time>
      </trkpt>
      <trkpt lat="43.9041" lon="7.71967">
        <ele>901.985</ele>
        <time>2016-12-22T09:19:37Z</time>
      </trkpt>
      <trkpt lat="43.90413" lon="7.71968">
        <ele>901.376</ele>
        <time>2016-12-22T09:19:57Z</time>
      </trkpt>
      <trkpt lat="43.90415" lon="7.71966">
        <ele>900.849</ele>
        <time>2016-12-22T09:20:03Z</time>
      </trkpt>
      <trkpt lat="43.90417" lon="7.7196">
        <ele>900.083</ele>
        <time>2016-12-22T09:20:08Z</time>
      </trkpt>
      <trkpt lat="43.90415" lon="7.71954">
        <ele>899.781</ele>
        <time>2016-12-22T09:20:11Z</time>
      </trkpt>
      <trkpt lat="43.90414" lon="7.71949">
        <ele>899.543</ele>
        <time>2016-12-22T09:20:13Z</time>
      </trkpt>
      <trkpt lat="43.90413" lon="7.71942">
        <ele>899.391</ele>
        <time>2016-12-22T09:20:17Z</time>
      </trkpt>
      <trkpt lat="43.90412" lon="7.71938">
        <ele>899.427</ele>
        <time>2016-12-22T09:20:20Z</time>
      </trkpt>
      <trkpt lat="43.90411" lon="7.71934">
        <ele>899.431</ele>
        <time>2016-12-22T09:20:23Z</time>
      </trkpt>
      <trkpt lat="43.90411" lon="7.7193">
        <ele>899.283</ele>
        <time>2016-12-22T09:20:26Z</time>
      </trkpt>
      <trkpt lat="43.90411" lon="7.71923">
        <ele>899.078</ele>
        <time>2016-12-22T09:20:29Z</time>
      </trkpt>
      <trkpt lat="43.90411" lon="7.71917">
        <ele>898.912</ele>
        <time>2016-12-22T09:20:31Z</time>
      </trkpt>
      <trkpt lat="43.90411" lon="7.71913">
        <ele>898.66</ele>
        <time>2016-12-22T09:20:33Z</time>
      </trkpt>
      <trkpt lat="43.90412" lon="7.71908">
        <ele>898.367</ele>
        <time>2016-12-22T09:20:36Z</time>
      </trkpt>
      <trkpt lat="43.90411" lon="7.71904">
        <ele>897.617</ele>
        <time>2016-12-22T09:20:41Z</time>
      </trkpt>
      <trkpt lat="43.9041" lon="7.71897">
        <ele>897.245</ele>
        <time>2016-12-22T09:20:43Z</time>
      </trkpt>
      <trkpt lat="43.9041" lon="7.71891">
        <ele>896.99</ele>
        <time>2016-12-22T09:20:45Z</time>
      </trkpt>
      <trkpt lat="43.90412" lon="7.71883">
        <ele>896.88</ele>
        <time>2016-12-22T09:20:47Z</time>
      </trkpt>
      <trkpt lat="43.90415" lon="7.71878">
        <ele>896.87</ele>
        <time>2016-12-22T09:20:49Z</time>
      </trkpt>
      <trkpt lat="43.90416" lon="7.71874">
        <ele>896.84</ele>
        <time>2016-12-22T09:20:51Z</time>
      </trkpt>
      <trkpt lat="43.90416" lon="7.71869">
        <ele>896.742</ele>
        <time>2016-12-22T09:20:54Z</time>
      </trkpt>
      <trkpt lat="43.90418" lon="7.71865">
        <ele>896.381</ele>
        <time>2016-12-22T09:21:02Z</time>
      </trkpt>
      <trkpt lat="43.90421" lon="7.71861">
        <ele>896.246</ele>
        <time>2016-12-22T09:21:05Z</time>
      </trkpt>
      <trkpt lat="43.90424" lon="7.7186">
        <ele>896.018</ele>
        <time>2016-12-22T09:21:11Z</time>
      </trkpt>
      <trkpt lat="43.90426" lon="7.71858">
        <ele>895.812</ele>
        <time>2016-12-22T09:21:17Z</time>
      </trkpt>
      <trkpt lat="43.90428" lon="7.71855">
        <ele>893.494</ele>
        <time>2016-12-22T09:21:48Z</time>
      </trkpt>
      <trkpt lat="43.90424" lon="7.71852">
        <ele>892.726</ele>
        <time>2016-12-22T09:21:51Z</time>
      </trkpt>
      <trkpt lat="43.9042" lon="7.71851">
        <ele>891.972</ele>
        <time>2016-12-22T09:21:54Z</time>
      </trkpt>
      <trkpt lat="43.90418" lon="7.71847">
        <ele>891.557</ele>
        <time>2016-12-22T09:21:56Z</time>
      </trkpt>
      <trkpt lat="43.90415" lon="7.71843">
        <ele>891.085</ele>
        <time>2016-12-22T09:21:58Z</time>
      </trkpt>
      <trkpt lat="43.90414" lon="7.71838">
        <ele>890.73</ele>
        <time>2016-12-22T09:22:00Z</time>
      </trkpt>
      <trkpt lat="43.90413" lon="7.71834">
        <ele>890.378</ele>
        <time>2016-12-22T09:22:02Z</time>
      </trkpt>
      <trkpt lat="43.90412" lon="7.7183">
        <ele>889.899</ele>
        <time>2016-12-22T09:22:05Z</time>
      </trkpt>
      <trkpt lat="43.90411" lon="7.71826">
        <ele>889.615</ele>
        <time>2016-12-22T09:22:07Z</time>
      </trkpt>
      <trkpt lat="43.90411" lon="7.71822">
        <ele>889.316</ele>
        <time>2016-12-22T09:22:09Z</time>
      </trkpt>
      <trkpt lat="43.90409" lon="7.71816">
        <ele>888.652</ele>
        <time>2016-12-22T09:22:12Z</time>
      </trkpt>
      <trkpt lat="43.90409" lon="7.71811">
        <ele>888.215</ele>
        <time>2016-12-22T09:22:14Z</time>
      </trkpt>
      <trkpt lat="43.9041" lon="7.71807">
        <ele>887.814</ele>
        <time>2016-12-22T09:22:18Z</time>
      </trkpt>
      <trkpt lat="43.90411" lon="7.71803">
        <ele>887.625</ele>
        <time>2016-12-22T09:22:21Z</time>
      </trkpt>
      <trkpt lat="43.90411" lon="7.71799">
        <ele>887.65</ele>
        <time>2016-12-22T09:22:24Z</time>
      </trkpt>
      <trkpt lat="43.90411" lon="7.71789">
        <ele>887.353</ele>
        <time>2016-12-22T09:22:28Z</time>
      </trkpt>
      <trkpt lat="43.9041" lon="7.7178">
        <ele>887.184</ele>
        <time>2016-12-22T09:22:30Z</time>
      </trkpt>
      <trkpt lat="43.9041" lon="7.71775">
        <ele>886.996</ele>
        <time>2016-12-22T09:22:32Z</time>
      </trkpt>
      <trkpt lat="43.9041" lon="7.71766">
        <ele>886.567</ele>
        <time>2016-12-22T09:22:35Z</time>
      </trkpt>
      <trkpt lat="43.9041" lon="7.7176">
        <ele>886.408</ele>
        <time>2016-12-22T09:22:37Z</time>
      </trkpt>
      <trkpt lat="43.9041" lon="7.71755">
        <ele>886.322</ele>
        <time>2016-12-22T09:22:40Z</time>
      </trkpt>
      <trkpt lat="43.90408" lon="7.71746">
        <ele>886.014</ele>
        <time>2016-12-22T09:22:43Z</time>
      </trkpt>
      <trkpt lat="43.90406" lon="7.71741">
        <ele>885.778</ele>
        <time>2016-12-22T09:22:45Z</time>
      </trkpt>
      <trkpt lat="43.90405" lon="7.71736">
        <ele>885.509</ele>
        <time>2016-12-22T09:22:47Z</time>
      </trkpt>
      <trkpt lat="43.90403" lon="7.71732">
        <ele>885.296</ele>
        <time>2016-12-22T09:22:50Z</time>
      </trkpt>
      <trkpt lat="43.90403" lon="7.71728">
        <ele>885.213</ele>
        <time>2016-12-22T09:22:52Z</time>
      </trkpt>
      <trkpt lat="43.90403" lon="7.71722">
        <ele>885.105</ele>
        <time>2016-12-22T09:22:54Z</time>
      </trkpt>
      <trkpt lat="43.90403" lon="7.71718">
        <ele>884.939</ele>
        <time>2016-12-22T09:22:57Z</time>
      </trkpt>
      <trkpt lat="43.90403" lon="7.71713">
        <ele>884.968</ele>
        <time>2016-12-22T09:23:00Z</time>
      </trkpt>
      <trkpt lat="43.90403" lon="7.71707">
        <ele>884.962</ele>
        <time>2016-12-22T09:23:03Z</time>
      </trkpt>
      <trkpt lat="43.90402" lon="7.71703">
        <ele>884.947</ele>
        <time>2016-12-22T09:23:05Z</time>
      </trkpt>
      <trkpt lat="43.90402" lon="7.71698">
        <ele>884.969</ele>
        <time>2016-12-22T09:23:07Z</time>
      </trkpt>
      <trkpt lat="43.90401" lon="7.71693">
        <ele>884.964</ele>
        <time>2016-12-22T09:23:09Z</time>
      </trkpt>
      <trkpt lat="43.90402" lon="7.71687">
        <ele>884.971</ele>
        <time>2016-12-22T09:23:11Z</time>
      </trkpt>
      <trkpt lat="43.90403" lon="7.71683">
        <ele>885.048</ele>
        <time>2016-12-22T09:23:13Z</time>
      </trkpt>
      <trkpt lat="43.90403" lon="7.71678">
        <ele>884.984</ele>
        <time>2016-12-22T09:23:16Z</time>
      </trkpt>
      <trkpt lat="43.90401" lon="7.71674">
        <ele>884.941</ele>
        <time>2016-12-22T09:23:18Z</time>
      </trkpt>
      <trkpt lat="43.90401" lon="7.7167">
        <ele>884.885</ele>
        <time>2016-12-22T09:23:20Z</time>
      </trkpt>
      <trkpt lat="43.904" lon="7.71666">
        <ele>884.894</ele>
        <time>2016-12-22T09:23:22Z</time>
      </trkpt>
      <trkpt lat="43.904" lon="7.71662">
        <ele>884.778</ele>
        <time>2016-12-22T09:23:24Z</time>
      </trkpt>
      <trkpt lat="43.904" lon="7.71657">
        <ele>884.778</ele>
        <time>2016-12-22T09:23:27Z</time>
      </trkpt>
      <trkpt lat="43.904" lon="7.71651">
        <ele>884.78</ele>
        <time>2016-12-22T09:23:29Z</time>
      </trkpt>
      <trkpt lat="43.904" lon="7.71647">
        <ele>884.725</ele>
        <time>2016-12-22T09:23:31Z</time>
      </trkpt>
      <trkpt lat="43.904" lon="7.71641">
        <ele>884.768</ele>
        <time>2016-12-22T09:23:34Z</time>
      </trkpt>
      <trkpt lat="43.904" lon="7.71636">
        <ele>884.682</ele>
        <time>2016-12-22T09:23:36Z</time>
      </trkpt>
      <trkpt lat="43.90399" lon="7.7163">
        <ele>884.495</ele>
        <time>2016-12-22T09:23:38Z</time>
      </trkpt>
      <trkpt lat="43.90399" lon="7.71625">
        <ele>884.406</ele>
        <time>2016-12-22T09:23:40Z</time>
      </trkpt>
      <trkpt lat="43.90399" lon="7.71619">
        <ele>884.386</ele>
        <time>2016-12-22T09:23:42Z</time>
      </trkpt>
      <trkpt lat="43.90399" lon="7.71615">
        <ele>884.162</ele>
        <time>2016-12-22T09:23:44Z</time>
      </trkpt>
      <trkpt lat="43.90399" lon="7.7161">
        <ele>883.823</ele>
        <time>2016-12-22T09:23:47Z</time>
      </trkpt>
      <trkpt lat="43.90399" lon="7.71606">
        <ele>883.788</ele>
        <time>2016-12-22T09:23:49Z</time>
      </trkpt>
      <trkpt lat="43.90399" lon="7.71599">
        <ele>883.598</ele>
        <time>2016-12-22T09:23:52Z</time>
      </trkpt>
      <trkpt lat="43.90399" lon="7.71595">
        <ele>883.589</ele>
        <time>2016-12-22T09:23:54Z</time>
      </trkpt>
      <trkpt lat="43.90398" lon="7.71591">
        <ele>883.519</ele>
        <time>2016-12-22T09:24:06Z</time>
      </trkpt>
      <trkpt lat="43.90398" lon="7.71587">
        <ele>883.446</ele>
        <time>2016-12-22T09:24:09Z</time>
      </trkpt>
      <trkpt lat="43.90399" lon="7.71582">
        <ele>883.395</ele>
        <time>2016-12-22T09:24:12Z</time>
      </trkpt>
      <trkpt lat="43.90399" lon="7.71577">
        <ele>883.311</ele>
        <time>2016-12-22T09:24:14Z</time>
      </trkpt>
      <trkpt lat="43.90399" lon="7.71572">
        <ele>883.374</ele>
        <time>2016-12-22T09:24:16Z</time>
      </trkpt>
      <trkpt lat="43.90398" lon="7.71567">
        <ele>883.53</ele>
        <time>2016-12-22T09:24:19Z</time>
      </trkpt>
      <trkpt lat="43.90397" lon="7.71562">
        <ele>883.688</ele>
        <time>2016-12-22T09:24:21Z</time>
      </trkpt>
      <trkpt lat="43.90395" lon="7.71556">
        <ele>883.882</ele>
        <time>2016-12-22T09:24:24Z</time>
      </trkpt>
      <trkpt lat="43.90395" lon="7.71551">
        <ele>883.871</ele>
        <time>2016-12-22T09:24:26Z</time>
      </trkpt>
      <trkpt lat="43.90395" lon="7.71546">
        <ele>883.939</ele>
        <time>2016-12-22T09:24:28Z</time>
      </trkpt>
      <trkpt lat="43.90394" lon="7.71542">
        <ele>883.933</ele>
        <time>2016-12-22T09:24:30Z</time>
      </trkpt>
      <trkpt lat="43.90393" lon="7.71535">
        <ele>883.937</ele>
        <time>2016-12-22T09:24:32Z</time>
      </trkpt>
      <trkpt lat="43.90393" lon="7.71529">
        <ele>883.967</ele>
        <time>2016-12-22T09:24:34Z</time>
      </trkpt>
      <trkpt lat="43.90393" lon="7.71525">
        <ele>883.993</ele>
        <time>2016-12-22T09:24:36Z</time>
      </trkpt>
      <trkpt lat="43.90394" lon="7.7152">
        <ele>884.114</ele>
        <time>2016-12-22T09:24:38Z</time>
      </trkpt>
      <trkpt lat="43.90395" lon="7.71515">
        <ele>884.156</ele>
        <time>2016-12-22T09:24:41Z</time>
      </trkpt>
      <trkpt lat="43.90396" lon="7.7151">
        <ele>884.203</ele>
        <time>2016-12-22T09:24:43Z</time>
      </trkpt>
      <trkpt lat="43.90397" lon="7.71506">
        <ele>884.279</ele>
        <time>2016-12-22T09:24:45Z</time>
      </trkpt>
      <trkpt lat="43.90397" lon="7.71502">
        <ele>884.397</ele>
        <time>2016-12-22T09:24:47Z</time>
      </trkpt>
      <trkpt lat="43.90397" lon="7.71496">
        <ele>884.399</ele>
        <time>2016-12-22T09:24:50Z</time>
      </trkpt>
      <trkpt lat="43.90396" lon="7.71493">
        <ele>884.245</ele>
        <time>2016-12-22T09:24:52Z</time>
      </trkpt>
      <trkpt lat="43.90394" lon="7.71488">
        <ele>883.934</ele>
        <time>2016-12-22T09:24:55Z</time>
      </trkpt>
      <trkpt lat="43.90393" lon="7.71484">
        <ele>883.791</ele>
        <time>2016-12-22T09:24:58Z</time>
      </trkpt>
      <trkpt lat="43.90393" lon="7.71479">
        <ele>883.655</ele>
        <time>2016-12-22T09:25:00Z</time>
      </trkpt>
      <trkpt lat="43.90391" lon="7.71475">
        <ele>883.497</ele>
        <time>2016-12-22T09:25:05Z</time>
      </trkpt>
      <trkpt lat="43.90391" lon="7.7147">
        <ele>883.663</ele>
        <time>2016-12-22T09:25:07Z</time>
      </trkpt>
      <trkpt lat="43.9039" lon="7.71466">
        <ele>883.852</ele>
        <time>2016-12-22T09:25:09Z</time>
      </trkpt>
      <trkpt lat="43.90389" lon="7.71462">
        <ele>884.086</ele>
        <time>2016-12-22T09:25:11Z</time>
      </trkpt>
      <trkpt lat="43.90388" lon="7.71458">
        <ele>884.471</ele>
        <time>2016-12-22T09:25:14Z</time>
      </trkpt>
      <trkpt lat="43.90387" lon="7.71454">
        <ele>885.105</ele>
        <time>2016-12-22T09:25:17Z</time>
      </trkpt>
      <trkpt lat="43.90384" lon="7.71449">
        <ele>885.747</ele>
        <time>2016-12-22T09:25:20Z</time>
      </trkpt>
      <trkpt lat="43.90382" lon="7.71446">
        <ele>886.331</ele>
        <time>2016-12-22T09:25:22Z</time>
      </trkpt>
      <trkpt lat="43.90379" lon="7.71442">
        <ele>887.25</ele>
        <time>2016-12-22T09:25:25Z</time>
      </trkpt>
      <trkpt lat="43.90378" lon="7.71436">
        <ele>888.022</ele>
        <time>2016-12-22T09:25:28Z</time>
      </trkpt>
      <trkpt lat="43.90377" lon="7.71432">
        <ele>888.533</ele>
        <time>2016-12-22T09:25:30Z</time>
      </trkpt>
      <trkpt lat="43.90375" lon="7.71427">
        <ele>889.135</ele>
        <time>2016-12-22T09:25:33Z</time>
      </trkpt>
      <trkpt lat="43.90374" lon="7.71423">
        <ele>889.759</ele>
        <time>2016-12-22T09:25:36Z</time>
      </trkpt>
      <trkpt lat="43.90374" lon="7.71419">
        <ele>890.181</ele>
        <time>2016-12-22T09:25:39Z</time>
      </trkpt>
      <trkpt lat="43.90373" lon="7.71414">
        <ele>890.548</ele>
        <time>2016-12-22T09:25:42Z</time>
      </trkpt>
      <trkpt lat="43.90369" lon="7.71408">
        <ele>890.951</ele>
        <time>2016-12-22T09:25:45Z</time>
      </trkpt>
      <trkpt lat="43.90367" lon="7.71404">
        <ele>891.058</ele>
        <time>2016-12-22T09:25:47Z</time>
      </trkpt>
      <trkpt lat="43.90365" lon="7.714">
        <ele>891.127</ele>
        <time>2016-12-22T09:25:49Z</time>
      </trkpt>
      <trkpt lat="43.90363" lon="7.71396">
        <ele>891.314</ele>
        <time>2016-12-22T09:25:51Z</time>
      </trkpt>
      <trkpt lat="43.90361" lon="7.71393">
        <ele>891.712</ele>
        <time>2016-12-22T09:25:54Z</time>
      </trkpt>
      <trkpt lat="43.90359" lon="7.71391">
        <ele>891.933</ele>
        <time>2016-12-22T09:25:56Z</time>
      </trkpt>
      <trkpt lat="43.90357" lon="7.71387">
        <ele>892.064</ele>
        <time>2016-12-22T09:25:58Z</time>
      </trkpt>
      <trkpt lat="43.90355" lon="7.71384">
        <ele>892.247</ele>
        <time>2016-12-22T09:26:00Z</time>
      </trkpt>
      <trkpt lat="43.90352" lon="7.7138">
        <ele>892.563</ele>
        <time>2016-12-22T09:26:03Z</time>
      </trkpt>
      <trkpt lat="43.9035" lon="7.71377">
        <ele>892.689</ele>
        <time>2016-12-22T09:26:05Z</time>
      </trkpt>
      <trkpt lat="43.90347" lon="7.71373">
        <ele>892.902</ele>
        <time>2016-12-22T09:26:07Z</time>
      </trkpt>
      <trkpt lat="43.90343" lon="7.71368">
        <ele>893.7</ele>
        <time>2016-12-22T09:26:20Z</time>
      </trkpt>
      <trkpt lat="43.90341" lon="7.71363">
        <ele>893.755</ele>
        <time>2016-12-22T09:26:22Z</time>
      </trkpt>
      <trkpt lat="43.90341" lon="7.71358">
        <ele>893.73</ele>
        <time>2016-12-22T09:26:24Z</time>
      </trkpt>
      <trkpt lat="43.9034" lon="7.71354">
        <ele>893.791</ele>
        <time>2016-12-22T09:26:26Z</time>
      </trkpt>
      <trkpt lat="43.90342" lon="7.71349">
        <ele>894.452</ele>
        <time>2016-12-22T09:26:38Z</time>
      </trkpt>
      <trkpt lat="43.90343" lon="7.71345">
        <ele>894.885</ele>
        <time>2016-12-22T09:26:42Z</time>
      </trkpt>
      <trkpt lat="43.90343" lon="7.71341">
        <ele>894.989</ele>
        <time>2016-12-22T09:26:51Z</time>
      </trkpt>
      <trkpt lat="43.90346" lon="7.71342">
        <ele>895.068</ele>
        <time>2016-12-22T09:26:58Z</time>
      </trkpt>
      <trkpt lat="43.90347" lon="7.71337">
        <ele>894.989</ele>
        <time>2016-12-22T09:27:06Z</time>
      </trkpt>
      <trkpt lat="43.90346" lon="7.71333">
        <ele>894.849</ele>
        <time>2016-12-22T09:27:13Z</time>
      </trkpt>
      <trkpt lat="43.9035" lon="7.71335">
        <ele>894.337</ele>
        <time>2016-12-22T09:27:24Z</time>
      </trkpt>
      <trkpt lat="43.90353" lon="7.71334">
        <ele>894.2</ele>
        <time>2016-12-22T09:27:31Z</time>
      </trkpt>
      <trkpt lat="43.90357" lon="7.71333">
        <ele>894.325</ele>
        <time>2016-12-22T09:27:35Z</time>
      </trkpt>
      <trkpt lat="43.9036" lon="7.71332">
        <ele>894.62</ele>
        <time>2016-12-22T09:27:39Z</time>
      </trkpt>
      <trkpt lat="43.90363" lon="7.7133">
        <ele>894.626</ele>
        <time>2016-12-22T09:27:43Z</time>
      </trkpt>
      <trkpt lat="43.90366" lon="7.71332">
        <ele>894.521</ele>
        <time>2016-12-22T09:27:45Z</time>
      </trkpt>
      <trkpt lat="43.9037" lon="7.71331">
        <ele>894.314</ele>
        <time>2016-12-22T09:27:47Z</time>
      </trkpt>
      <trkpt lat="43.90373" lon="7.71331">
        <ele>893.846</ele>
        <time>2016-12-22T09:27:50Z</time>
      </trkpt>
      <trkpt lat="43.90376" lon="7.7133">
        <ele>893.36</ele>
        <time>2016-12-22T09:27:53Z</time>
      </trkpt>
      <trkpt lat="43.90379" lon="7.71329">
        <ele>892.969</ele>
        <time>2016-12-22T09:27:57Z</time>
      </trkpt>
      <trkpt lat="43.90381" lon="7.71325">
        <ele>892.664</ele>
        <time>2016-12-22T09:28:00Z</time>
      </trkpt>
      <trkpt lat="43.90384" lon="7.71322">
        <ele>892.447</ele>
        <time>2016-12-22T09:28:04Z</time>
      </trkpt>
      <trkpt lat="43.90388" lon="7.71321">
        <ele>892.28</ele>
        <time>2016-12-22T09:28:07Z</time>
      </trkpt>
      <trkpt lat="43.9039" lon="7.71319">
        <ele>892.165</ele>
        <time>2016-12-22T09:28:09Z</time>
      </trkpt>
      <trkpt lat="43.90393" lon="7.71316">
        <ele>891.929</ele>
        <time>2016-12-22T09:28:12Z</time>
      </trkpt>
      <trkpt lat="43.90395" lon="7.71312">
        <ele>891.674</ele>
        <time>2016-12-22T09:28:16Z</time>
      </trkpt>
      <trkpt lat="43.90398" lon="7.71308">
        <ele>891.472</ele>
        <time>2016-12-22T09:28:18Z</time>
      </trkpt>
      <trkpt lat="43.904" lon="7.71305">
        <ele>891.013</ele>
        <time>2016-12-22T09:28:22Z</time>
      </trkpt>
      <trkpt lat="43.90401" lon="7.71301">
        <ele>890.664</ele>
        <time>2016-12-22T09:28:25Z</time>
      </trkpt>
      <trkpt lat="43.90404" lon="7.71299">
        <ele>889.996</ele>
        <time>2016-12-22T09:28:30Z</time>
      </trkpt>
      <trkpt lat="43.90405" lon="7.71295">
        <ele>889.534</ele>
        <time>2016-12-22T09:28:34Z</time>
      </trkpt>
      <trkpt lat="43.90406" lon="7.71292">
        <ele>889.036</ele>
        <time>2016-12-22T09:28:37Z</time>
      </trkpt>
      <trkpt lat="43.90407" lon="7.71288">
        <ele>888.513</ele>
        <time>2016-12-22T09:28:40Z</time>
      </trkpt>
      <trkpt lat="43.90409" lon="7.71283">
        <ele>887.963</ele>
        <time>2016-12-22T09:28:43Z</time>
      </trkpt>
      <trkpt lat="43.90411" lon="7.71278">
        <ele>887.455</ele>
        <time>2016-12-22T09:28:46Z</time>
      </trkpt>
      <trkpt lat="43.90412" lon="7.71275">
        <ele>887.01</ele>
        <time>2016-12-22T09:28:49Z</time>
      </trkpt>
      <trkpt lat="43.90413" lon="7.71271">
        <ele>886.537</ele>
        <time>2016-12-22T09:28:53Z</time>
      </trkpt>
      <trkpt lat="43.90413" lon="7.71267">
        <ele>886.037</ele>
        <time>2016-12-22T09:28:56Z</time>
      </trkpt>
      <trkpt lat="43.90415" lon="7.71264">
        <ele>885.551</ele>
        <time>2016-12-22T09:28:59Z</time>
      </trkpt>
      <trkpt lat="43.90417" lon="7.71268">
        <ele>883.578</ele>
        <time>2016-12-22T09:29:07Z</time>
      </trkpt>
      <trkpt lat="43.9042" lon="7.71267">
        <ele>882.219</ele>
        <time>2016-12-22T09:29:13Z</time>
      </trkpt>
      <trkpt lat="43.90423" lon="7.71264">
        <ele>881.441</ele>
        <time>2016-12-22T09:29:16Z</time>
      </trkpt>
      <trkpt lat="43.90426" lon="7.71262">
        <ele>880.383</ele>
        <time>2016-12-22T09:29:20Z</time>
      </trkpt>
      <trkpt lat="43.90426" lon="7.71258">
        <ele>878.928</ele>
        <time>2016-12-22T09:29:25Z</time>
      </trkpt>
      <trkpt lat="43.90426" lon="7.71253">
        <ele>878.239</ele>
        <time>2016-12-22T09:29:28Z</time>
      </trkpt>
      <trkpt lat="43.90427" lon="7.71249">
        <ele>877.473</ele>
        <time>2016-12-22T09:29:31Z</time>
      </trkpt>
      <trkpt lat="43.90428" lon="7.71244">
        <ele>874.839</ele>
        <time>2016-12-22T09:30:26Z</time>
      </trkpt>
      <trkpt lat="43.90428" lon="7.71241">
        <ele>874.031</ele>
        <time>2016-12-22T09:30:30Z</time>
      </trkpt>
      <trkpt lat="43.9043" lon="7.71243">
        <ele>873.509</ele>
        <time>2016-12-22T09:30:33Z</time>
      </trkpt>
      <trkpt lat="43.90433" lon="7.71241">
        <ele>872.222</ele>
        <time>2016-12-22T09:30:39Z</time>
      </trkpt>
      <trkpt lat="43.90432" lon="7.71237">
        <ele>870.985</ele>
        <time>2016-12-22T09:30:44Z</time>
      </trkpt>
      <trkpt lat="43.90432" lon="7.71232">
        <ele>869.997</ele>
        <time>2016-12-22T09:30:50Z</time>
      </trkpt>
      <trkpt lat="43.90435" lon="7.71231">
        <ele>869.348</ele>
        <time>2016-12-22T09:30:54Z</time>
      </trkpt>
      <trkpt lat="43.90438" lon="7.7123">
        <ele>868.805</ele>
        <time>2016-12-22T09:30:58Z</time>
      </trkpt>
      <trkpt lat="43.90441" lon="7.71229">
        <ele>868.268</ele>
        <time>2016-12-22T09:31:01Z</time>
      </trkpt>
      <trkpt lat="43.90439" lon="7.71227">
        <ele>866.792</ele>
        <time>2016-12-22T09:31:11Z</time>
      </trkpt>
      <trkpt lat="43.90439" lon="7.71222">
        <ele>866.3</ele>
        <time>2016-12-22T09:31:13Z</time>
      </trkpt>
      <trkpt lat="43.9044" lon="7.71219">
        <ele>865.817</ele>
        <time>2016-12-22T09:31:15Z</time>
      </trkpt>
      <trkpt lat="43.90441" lon="7.71214">
        <ele>865.265</ele>
        <time>2016-12-22T09:31:18Z</time>
      </trkpt>
      <trkpt lat="43.90444" lon="7.71212">
        <ele>863.827</ele>
        <time>2016-12-22T09:31:26Z</time>
      </trkpt>
      <trkpt lat="43.90446" lon="7.7121">
        <ele>862.976</ele>
        <time>2016-12-22T09:31:45Z</time>
      </trkpt>
      <trkpt lat="43.90448" lon="7.71206">
        <ele>862.397</ele>
        <time>2016-12-22T09:31:53Z</time>
      </trkpt>
      <trkpt lat="43.90449" lon="7.71202">
        <ele>861.637</ele>
        <time>2016-12-22T09:31:57Z</time>
      </trkpt>
      <trkpt lat="43.90449" lon="7.71198">
        <ele>861.149</ele>
        <time>2016-12-22T09:32:00Z</time>
      </trkpt>
      <trkpt lat="43.9045" lon="7.71192">
        <ele>860.665</ele>
        <time>2016-12-22T09:32:03Z</time>
      </trkpt>
      <trkpt lat="43.90451" lon="7.71188">
        <ele>860.151</ele>
        <time>2016-12-22T09:32:06Z</time>
      </trkpt>
      <trkpt lat="43.90451" lon="7.71184">
        <ele>859.739</ele>
        <time>2016-12-22T09:32:09Z</time>
      </trkpt>
      <trkpt lat="43.90453" lon="7.71179">
        <ele>859.489</ele>
        <time>2016-12-22T09:32:12Z</time>
      </trkpt>
      <trkpt lat="43.90454" lon="7.71175">
        <ele>859.333</ele>
        <time>2016-12-22T09:32:14Z</time>
      </trkpt>
      <trkpt lat="43.90455" lon="7.71171">
        <ele>859.005</ele>
        <time>2016-12-22T09:32:17Z</time>
      </trkpt>
      <trkpt lat="43.90455" lon="7.71165">
        <ele>858.591</ele>
        <time>2016-12-22T09:32:19Z</time>
      </trkpt>
      <trkpt lat="43.90455" lon="7.71161">
        <ele>857.622</ele>
        <time>2016-12-22T09:32:23Z</time>
      </trkpt>
      <trkpt lat="43.90454" lon="7.71157">
        <ele>856.661</ele>
        <time>2016-12-22T09:32:26Z</time>
      </trkpt>
      <trkpt lat="43.90454" lon="7.71153">
        <ele>856.006</ele>
        <time>2016-12-22T09:32:28Z</time>
      </trkpt>
      <trkpt lat="43.90452" lon="7.71149">
        <ele>855.342</ele>
        <time>2016-12-22T09:32:30Z</time>
      </trkpt>
      <trkpt lat="43.9045" lon="7.71145">
        <ele>854.421</ele>
        <time>2016-12-22T09:32:33Z</time>
      </trkpt>
      <trkpt lat="43.9045" lon="7.71141">
        <ele>853.623</ele>
        <time>2016-12-22T09:32:36Z</time>
      </trkpt>
      <trkpt lat="43.90449" lon="7.71135">
        <ele>852.801</ele>
        <time>2016-12-22T09:32:39Z</time>
      </trkpt>
      <trkpt lat="43.90447" lon="7.71134">
        <ele>851.828</ele>
        <time>2016-12-22T09:32:43Z</time>
      </trkpt>
      <trkpt lat="43.90448" lon="7.7113">
        <ele>850.567</ele>
        <time>2016-12-22T09:33:50Z</time>
      </trkpt>
      <trkpt lat="43.90449" lon="7.71134">
        <ele>849.186</ele>
        <time>2016-12-22T09:34:35Z</time>
      </trkpt>
      <trkpt lat="43.90452" lon="7.71133">
        <ele>847.28</ele>
        <time>2016-12-22T09:34:45Z</time>
      </trkpt>
      <trkpt lat="43.90455" lon="7.71135">
        <ele>846.268</ele>
        <time>2016-12-22T09:34:52Z</time>
      </trkpt>
      <trkpt lat="43.90456" lon="7.71139">
        <ele>845.823</ele>
        <time>2016-12-22T09:34:55Z</time>
      </trkpt>
      <trkpt lat="43.90457" lon="7.71143">
        <ele>845.292</ele>
        <time>2016-12-22T09:35:05Z</time>
      </trkpt>
      <trkpt lat="43.90461" lon="7.71144">
        <ele>844.803</ele>
        <time>2016-12-22T09:35:09Z</time>
      </trkpt>
      <trkpt lat="43.90463" lon="7.71145">
        <ele>844.606</ele>
        <time>2016-12-22T09:35:15Z</time>
      </trkpt>
      <trkpt lat="43.90463" lon="7.71141">
        <ele>843.877</ele>
        <time>2016-12-22T09:35:23Z</time>
      </trkpt>
      <trkpt lat="43.90463" lon="7.71136">
        <ele>843.611</ele>
        <time>2016-12-22T09:35:26Z</time>
      </trkpt>
      <trkpt lat="43.90463" lon="7.71131">
        <ele>843.4</ele>
        <time>2016-12-22T09:35:30Z</time>
      </trkpt>
      <trkpt lat="43.90464" lon="7.71126">
        <ele>843.304</ele>
        <time>2016-12-22T09:35:33Z</time>
      </trkpt>
      <trkpt lat="43.90466" lon="7.71123">
        <ele>843.092</ele>
        <time>2016-12-22T09:35:36Z</time>
      </trkpt>
      <trkpt lat="43.90468" lon="7.7112">
        <ele>842.663</ele>
        <time>2016-12-22T09:35:39Z</time>
      </trkpt>
      <trkpt lat="43.90471" lon="7.71121">
        <ele>841.814</ele>
        <time>2016-12-22T09:35:43Z</time>
      </trkpt>
      <trkpt lat="43.90474" lon="7.71121">
        <ele>841.324</ele>
        <time>2016-12-22T09:35:45Z</time>
      </trkpt>
      <trkpt lat="43.90477" lon="7.71118">
        <ele>840.814</ele>
        <time>2016-12-22T09:35:47Z</time>
      </trkpt>
      <trkpt lat="43.90479" lon="7.71114">
        <ele>839.299</ele>
        <time>2016-12-22T09:35:53Z</time>
      </trkpt>
      <trkpt lat="43.90481" lon="7.71109">
        <ele>838.382</ele>
        <time>2016-12-22T09:35:57Z</time>
      </trkpt>
      <trkpt lat="43.90482" lon="7.71105">
        <ele>837.604</ele>
        <time>2016-12-22T09:36:01Z</time>
      </trkpt>
      <trkpt lat="43.90484" lon="7.71101">
        <ele>836.924</ele>
        <time>2016-12-22T09:36:04Z</time>
      </trkpt>
      <trkpt lat="43.90485" lon="7.71097">
        <ele>836.273</ele>
        <time>2016-12-22T09:36:07Z</time>
      </trkpt>
      <trkpt lat="43.90486" lon="7.71094">
        <ele>835.637</ele>
        <time>2016-12-22T09:36:10Z</time>
      </trkpt>
      <trkpt lat="43.90489" lon="7.71093">
        <ele>834.061</ele>
        <time>2016-12-22T09:36:18Z</time>
      </trkpt>
      <trkpt lat="43.90488" lon="7.71097">
        <ele>830.834</ele>
        <time>2016-12-22T09:37:01Z</time>
      </trkpt>
      <trkpt lat="43.90488" lon="7.71101">
        <ele>829.586</ele>
        <time>2016-12-22T09:37:11Z</time>
      </trkpt>
      <trkpt lat="43.9049" lon="7.71098">
        <ele>828.697</ele>
        <time>2016-12-22T09:37:22Z</time>
      </trkpt>
      <trkpt lat="43.90491" lon="7.71094">
        <ele>828.397</ele>
        <time>2016-12-22T09:37:25Z</time>
      </trkpt>
      <trkpt lat="43.90495" lon="7.71093">
        <ele>828.158</ele>
        <time>2016-12-22T09:37:28Z</time>
      </trkpt>
      <trkpt lat="43.90498" lon="7.71093">
        <ele>827.977</ele>
        <time>2016-12-22T09:37:30Z</time>
      </trkpt>
      <trkpt lat="43.90499" lon="7.71089">
        <ele>827.562</ele>
        <time>2016-12-22T09:37:35Z</time>
      </trkpt>
      <trkpt lat="43.90501" lon="7.71085">
        <ele>827.294</ele>
        <time>2016-12-22T09:37:38Z</time>
      </trkpt>
      <trkpt lat="43.90504" lon="7.71085">
        <ele>827.121</ele>
        <time>2016-12-22T09:37:40Z</time>
      </trkpt>
      <trkpt lat="43.90507" lon="7.71083">
        <ele>826.458</ele>
        <time>2016-12-22T09:37:45Z</time>
      </trkpt>
      <trkpt lat="43.90509" lon="7.7108">
        <ele>825.408</ele>
        <time>2016-12-22T09:37:51Z</time>
      </trkpt>
      <trkpt lat="43.9051" lon="7.71076">
        <ele>824.233</ele>
        <time>2016-12-22T09:37:57Z</time>
      </trkpt>
      <trkpt lat="43.90511" lon="7.71072">
        <ele>823.879</ele>
        <time>2016-12-22T09:37:59Z</time>
      </trkpt>
      <trkpt lat="43.90513" lon="7.71068">
        <ele>823.549</ele>
        <time>2016-12-22T09:38:01Z</time>
      </trkpt>
      <trkpt lat="43.90515" lon="7.71065">
        <ele>823.299</ele>
        <time>2016-12-22T09:38:03Z</time>
      </trkpt>
      <trkpt lat="43.90518" lon="7.7106">
        <ele>822.781</ele>
        <time>2016-12-22T09:38:07Z</time>
      </trkpt>
      <trkpt lat="43.9052" lon="7.71057">
        <ele>822.59</ele>
        <time>2016-12-22T09:38:09Z</time>
      </trkpt>
      <trkpt lat="43.90523" lon="7.71053">
        <ele>822.083</ele>
        <time>2016-12-22T09:38:12Z</time>
      </trkpt>
      <trkpt lat="43.90524" lon="7.71049">
        <ele>821.575</ele>
        <time>2016-12-22T09:38:15Z</time>
      </trkpt>
      <trkpt lat="43.90527" lon="7.71047">
        <ele>820.935</ele>
        <time>2016-12-22T09:38:24Z</time>
      </trkpt>
      <trkpt lat="43.90529" lon="7.71044">
        <ele>820.079</ele>
        <time>2016-12-22T09:38:28Z</time>
      </trkpt>
      <trkpt lat="43.90532" lon="7.71043">
        <ele>819.504</ele>
        <time>2016-12-22T09:38:31Z</time>
      </trkpt>
      <trkpt lat="43.90535" lon="7.7104">
        <ele>819.092</ele>
        <time>2016-12-22T09:38:33Z</time>
      </trkpt>
      <trkpt lat="43.90538" lon="7.71036">
        <ele>818.643</ele>
        <time>2016-12-22T09:38:35Z</time>
      </trkpt>
      <trkpt lat="43.9054" lon="7.71034">
        <ele>818.29</ele>
        <time>2016-12-22T09:38:37Z</time>
      </trkpt>
      <trkpt lat="43.90542" lon="7.71031">
        <ele>817.763</ele>
        <time>2016-12-22T09:38:40Z</time>
      </trkpt>
      <trkpt lat="43.90545" lon="7.7103">
        <ele>817.085</ele>
        <time>2016-12-22T09:38:43Z</time>
      </trkpt>
      <trkpt lat="43.90549" lon="7.71027">
        <ele>815.901</ele>
        <time>2016-12-22T09:38:47Z</time>
      </trkpt>
      <trkpt lat="43.90551" lon="7.71023">
        <ele>815.256</ele>
        <time>2016-12-22T09:38:49Z</time>
      </trkpt>
      <trkpt lat="43.90553" lon="7.71019">
        <ele>814.379</ele>
        <time>2016-12-22T09:38:52Z</time>
      </trkpt>
      <trkpt lat="43.90555" lon="7.71016">
        <ele>813.323</ele>
        <time>2016-12-22T09:38:56Z</time>
      </trkpt>
      <trkpt lat="43.90556" lon="7.71013">
        <ele>810.795</ele>
        <time>2016-12-22T09:39:06Z</time>
      </trkpt>
      <trkpt lat="43.90558" lon="7.71009">
        <ele>810.06</ele>
        <time>2016-12-22T09:39:08Z</time>
      </trkpt>
      <trkpt lat="43.9056" lon="7.71005">
        <ele>809.717</ele>
        <time>2016-12-22T09:39:09Z</time>
      </trkpt>
      <trkpt lat="43.90564" lon="7.71005">
        <ele>809.029</ele>
        <time>2016-12-22T09:39:11Z</time>
      </trkpt>
      <trkpt lat="43.90566" lon="7.71003">
        <ele>806.896</ele>
        <time>2016-12-22T09:39:27Z</time>
      </trkpt>
      <trkpt lat="43.90567" lon="7.70999">
        <ele>804.697</ele>
        <time>2016-12-22T09:39:40Z</time>
      </trkpt>
      <trkpt lat="43.9057" lon="7.70997">
        <ele>804.266</ele>
        <time>2016-12-22T09:39:45Z</time>
      </trkpt>
      <trkpt lat="43.90572" lon="7.70998">
        <ele>803.536</ele>
        <time>2016-12-22T09:39:53Z</time>
      </trkpt>
      <trkpt lat="43.90574" lon="7.70995">
        <ele>801.964</ele>
        <time>2016-12-22T09:40:04Z</time>
      </trkpt>
      <trkpt lat="43.90574" lon="7.70999">
        <ele>801.388</ele>
        <time>2016-12-22T09:40:19Z</time>
      </trkpt>
      <trkpt lat="43.90577" lon="7.70998">
        <ele>799.433</ele>
        <time>2016-12-22T09:40:36Z</time>
      </trkpt>
      <trkpt lat="43.90581" lon="7.70998">
        <ele>798.957</ele>
        <time>2016-12-22T09:40:40Z</time>
      </trkpt>
      <trkpt lat="43.90582" lon="7.71003">
        <ele>798.47</ele>
        <time>2016-12-22T09:40:46Z</time>
      </trkpt>
      <trkpt lat="43.90585" lon="7.71002">
        <ele>797.865</ele>
        <time>2016-12-22T09:40:51Z</time>
      </trkpt>
      <trkpt lat="43.90588" lon="7.71001">
        <ele>797.276</ele>
        <time>2016-12-22T09:40:54Z</time>
      </trkpt>
      <trkpt lat="43.90591" lon="7.71">
        <ele>796.397</ele>
        <time>2016-12-22T09:40:58Z</time>
      </trkpt>
      <trkpt lat="43.90593" lon="7.70998">
        <ele>795.982</ele>
        <time>2016-12-22T09:41:01Z</time>
      </trkpt>
      <trkpt lat="43.90597" lon="7.70998">
        <ele>795.625</ele>
        <time>2016-12-22T09:41:05Z</time>
      </trkpt>
      <trkpt lat="43.906" lon="7.71001">
        <ele>795.126</ele>
        <time>2016-12-22T09:41:11Z</time>
      </trkpt>
      <trkpt lat="43.90603" lon="7.71004">
        <ele>794.777</ele>
        <time>2016-12-22T09:41:14Z</time>
      </trkpt>
      <trkpt lat="43.90605" lon="7.71006">
        <ele>793.575</ele>
        <time>2016-12-22T09:41:29Z</time>
      </trkpt>
      <trkpt lat="43.90608" lon="7.71005">
        <ele>792.552</ele>
        <time>2016-12-22T09:41:35Z</time>
      </trkpt>
      <trkpt lat="43.90611" lon="7.71001">
        <ele>792.013</ele>
        <time>2016-12-22T09:41:38Z</time>
      </trkpt>
      <trkpt lat="43.90614" lon="7.71">
        <ele>791.689</ele>
        <time>2016-12-22T09:41:40Z</time>
      </trkpt>
      <trkpt lat="43.90617" lon="7.70999">
        <ele>791.416</ele>
        <time>2016-12-22T09:41:43Z</time>
      </trkpt>
      <trkpt lat="43.90619" lon="7.70997">
        <ele>790.836</ele>
        <time>2016-12-22T09:41:47Z</time>
      </trkpt>
      <trkpt lat="43.90622" lon="7.70996">
        <ele>790.168</ele>
        <time>2016-12-22T09:41:52Z</time>
      </trkpt>
      <trkpt lat="43.90625" lon="7.70995">
        <ele>788.866</ele>
        <time>2016-12-22T09:42:01Z</time>
      </trkpt>
      <trkpt lat="43.90627" lon="7.70992">
        <ele>787.543</ele>
        <time>2016-12-22T09:42:08Z</time>
      </trkpt>
      <trkpt lat="43.9063" lon="7.70992">
        <ele>787.097</ele>
        <time>2016-12-22T09:42:10Z</time>
      </trkpt>
      <trkpt lat="43.90632" lon="7.7099">
        <ele>786.53</ele>
        <time>2016-12-22T09:42:14Z</time>
      </trkpt>
      <trkpt lat="43.90635" lon="7.70991">
        <ele>786.151</ele>
        <time>2016-12-22T09:42:25Z</time>
      </trkpt>
      <trkpt lat="43.90634" lon="7.70987">
        <ele>784.846</ele>
        <time>2016-12-22T09:42:40Z</time>
      </trkpt>
      <trkpt lat="43.90636" lon="7.70984">
        <ele>784.321</ele>
        <time>2016-12-22T09:42:43Z</time>
      </trkpt>
      <trkpt lat="43.90638" lon="7.70981">
        <ele>783.846</ele>
        <time>2016-12-22T09:42:46Z</time>
      </trkpt>
      <trkpt lat="43.9064" lon="7.70986">
        <ele>782.322</ele>
        <time>2016-12-22T09:42:57Z</time>
      </trkpt>
      <trkpt lat="43.90642" lon="7.70983">
        <ele>781.944</ele>
        <time>2016-12-22T09:43:00Z</time>
      </trkpt>
      <trkpt lat="43.90644" lon="7.70979">
        <ele>781.427</ele>
        <time>2016-12-22T09:43:04Z</time>
      </trkpt>
      <trkpt lat="43.90647" lon="7.70975">
        <ele>781.284</ele>
        <time>2016-12-22T09:43:06Z</time>
      </trkpt>
      <trkpt lat="43.9065" lon="7.70977">
        <ele>780.888</ele>
        <time>2016-12-22T09:43:13Z</time>
      </trkpt>
      <trkpt lat="43.90649" lon="7.70981">
        <ele>779.402</ele>
        <time>2016-12-22T09:43:40Z</time>
      </trkpt>
      <trkpt lat="43.90652" lon="7.70979">
        <ele>778.928</ele>
        <time>2016-12-22T09:43:49Z</time>
      </trkpt>
      <trkpt lat="43.90654" lon="7.70976">
        <ele>778.619</ele>
        <time>2016-12-22T09:43:55Z</time>
      </trkpt>
      <trkpt lat="43.90654" lon="7.70972">
        <ele>778.335</ele>
        <time>2016-12-22T09:43:58Z</time>
      </trkpt>
      <trkpt lat="43.90657" lon="7.70972">
        <ele>778.171</ele>
        <time>2016-12-22T09:44:03Z</time>
      </trkpt>
      <trkpt lat="43.90659" lon="7.70976">
        <ele>776.338</ele>
        <time>2016-12-22T09:44:26Z</time>
      </trkpt>
      <trkpt lat="43.9066" lon="7.7098">
        <ele>775.787</ele>
        <time>2016-12-22T09:44:30Z</time>
      </trkpt>
      <trkpt lat="43.90662" lon="7.70978">
        <ele>775.105</ele>
        <time>2016-12-22T09:44:34Z</time>
      </trkpt>
      <trkpt lat="43.90664" lon="7.7098">
        <ele>773.986</ele>
        <time>2016-12-22T09:44:39Z</time>
      </trkpt>
      <trkpt lat="43.90666" lon="7.70983">
        <ele>772.148</ele>
        <time>2016-12-22T09:44:47Z</time>
      </trkpt>
      <trkpt lat="43.90669" lon="7.70985">
        <ele>770.251</ele>
        <time>2016-12-22T09:45:03Z</time>
      </trkpt>
      <trkpt lat="43.9067" lon="7.70981">
        <ele>769.157</ele>
        <time>2016-12-22T09:45:11Z</time>
      </trkpt>
      <trkpt lat="43.90671" lon="7.70978">
        <ele>768.489</ele>
        <time>2016-12-22T09:45:15Z</time>
      </trkpt>
      <trkpt lat="43.90673" lon="7.70974">
        <ele>766.785</ele>
        <time>2016-12-22T09:45:28Z</time>
      </trkpt>
      <trkpt lat="43.90676" lon="7.70974">
        <ele>765.913</ele>
        <time>2016-12-22T09:45:36Z</time>
      </trkpt>
      <trkpt lat="43.9068" lon="7.70974">
        <ele>765.147</ele>
        <time>2016-12-22T09:45:40Z</time>
      </trkpt>
      <trkpt lat="43.90681" lon="7.70978">
        <ele>764.405</ele>
        <time>2016-12-22T09:45:44Z</time>
      </trkpt>
      <trkpt lat="43.90681" lon="7.70982">
        <ele>763.644</ele>
        <time>2016-12-22T09:45:48Z</time>
      </trkpt>
      <trkpt lat="43.90681" lon="7.70985">
        <ele>762.748</ele>
        <time>2016-12-22T09:45:57Z</time>
      </trkpt>
      <trkpt lat="43.9068" lon="7.70989">
        <ele>762.281</ele>
        <time>2016-12-22T09:46:04Z</time>
      </trkpt>
      <trkpt lat="43.90682" lon="7.70988">
        <ele>760.758</ele>
        <time>2016-12-22T09:46:34Z</time>
      </trkpt>
      <trkpt lat="43.90683" lon="7.70992">
        <ele>759.533</ele>
        <time>2016-12-22T09:46:46Z</time>
      </trkpt>
      <trkpt lat="43.9068" lon="7.70994">
        <ele>758.632</ele>
        <time>2016-12-22T09:46:57Z</time>
      </trkpt>
      <trkpt lat="43.90677" lon="7.70995">
        <ele>757.354</ele>
        <time>2016-12-22T09:47:02Z</time>
      </trkpt>
      <trkpt lat="43.90677" lon="7.71">
        <ele>756.454</ele>
        <time>2016-12-22T09:47:09Z</time>
      </trkpt>
      <trkpt lat="43.90677" lon="7.71005">
        <ele>755.89</ele>
        <time>2016-12-22T09:47:15Z</time>
      </trkpt>
      <trkpt lat="43.90674" lon="7.71011">
        <ele>755.35</ele>
        <time>2016-12-22T09:47:24Z</time>
      </trkpt>
      <trkpt lat="43.90674" lon="7.71016">
        <ele>755.232</ele>
        <time>2016-12-22T09:47:26Z</time>
      </trkpt>
      <trkpt lat="43.90673" lon="7.7102">
        <ele>755.056</ele>
        <time>2016-12-22T09:47:29Z</time>
      </trkpt>
      <trkpt lat="43.90671" lon="7.71023">
        <ele>754.074</ele>
        <time>2016-12-22T09:47:39Z</time>
      </trkpt>
      <trkpt lat="43.9067" lon="7.71027">
        <ele>751.381</ele>
        <time>2016-12-22T09:48:09Z</time>
      </trkpt>
      <trkpt lat="43.90668" lon="7.71029">
        <ele>751.43</ele>
        <time>2016-12-22T09:48:14Z</time>
      </trkpt>
      <trkpt lat="43.90666" lon="7.71033">
        <ele>751.026</ele>
        <time>2016-12-22T09:48:39Z</time>
      </trkpt>
      <trkpt lat="43.90666" lon="7.71038">
        <ele>750.927</ele>
        <time>2016-12-22T09:48:43Z</time>
      </trkpt>
      <trkpt lat="43.90665" lon="7.71042">
        <ele>750.893</ele>
        <time>2016-12-22T09:48:47Z</time>
      </trkpt>
      <trkpt lat="43.90667" lon="7.71045">
        <ele>750.894</ele>
        <time>2016-12-22T09:48:55Z</time>
      </trkpt>
      <trkpt lat="43.90668" lon="7.71049">
        <ele>750.709</ele>
        <time>2016-12-22T09:49:02Z</time>
      </trkpt>
      <trkpt lat="43.90669" lon="7.71052">
        <ele>749.685</ele>
        <time>2016-12-22T09:49:10Z</time>
      </trkpt>
      <trkpt lat="43.90669" lon="7.71056">
        <ele>749.336</ele>
        <time>2016-12-22T09:49:16Z</time>
      </trkpt>
      <trkpt lat="43.90669" lon="7.71061">
        <ele>749.065</ele>
        <time>2016-12-22T09:49:22Z</time>
      </trkpt>
      <trkpt lat="43.90672" lon="7.71059">
        <ele>747.269</ele>
        <time>2016-12-22T09:49:44Z</time>
      </trkpt>
      <trkpt lat="43.90674" lon="7.71056">
        <ele>746.979</ele>
        <time>2016-12-22T09:49:48Z</time>
      </trkpt>
      <trkpt lat="43.90677" lon="7.71057">
        <ele>745.509</ele>
        <time>2016-12-22T09:50:02Z</time>
      </trkpt>
      <trkpt lat="43.90678" lon="7.71054">
        <ele>743.782</ele>
        <time>2016-12-22T09:50:19Z</time>
      </trkpt>
      <trkpt lat="43.9068" lon="7.71057">
        <ele>742.488</ele>
        <time>2016-12-22T09:50:39Z</time>
      </trkpt>
      <trkpt lat="43.9068" lon="7.71061">
        <ele>742.609</ele>
        <time>2016-12-22T09:50:43Z</time>
      </trkpt>
      <trkpt lat="43.90681" lon="7.71065">
        <ele>742.787</ele>
        <time>2016-12-22T09:50:45Z</time>
      </trkpt>
      <trkpt lat="43.9068" lon="7.7107">
        <ele>742.758</ele>
        <time>2016-12-22T09:50:54Z</time>
      </trkpt>
      <trkpt lat="43.90681" lon="7.71074">
        <ele>742.278</ele>
        <time>2016-12-22T09:51:01Z</time>
      </trkpt>
      <trkpt lat="43.90681" lon="7.71078">
        <ele>741.529</ele>
        <time>2016-12-22T09:51:11Z</time>
      </trkpt>
      <trkpt lat="43.90682" lon="7.71082">
        <ele>741.044</ele>
        <time>2016-12-22T09:51:20Z</time>
      </trkpt>
      <trkpt lat="43.90683" lon="7.71085">
        <ele>741.261</ele>
        <time>2016-12-22T09:51:25Z</time>
      </trkpt>
      <trkpt lat="43.90684" lon="7.71091">
        <ele>741.658</ele>
        <time>2016-12-22T09:51:30Z</time>
      </trkpt>
      <trkpt lat="43.90686" lon="7.71096">
        <ele>741.997</ele>
        <time>2016-12-22T09:51:35Z</time>
      </trkpt>
      <trkpt lat="43.90689" lon="7.711">
        <ele>741.968</ele>
        <time>2016-12-22T09:51:40Z</time>
      </trkpt>
      <trkpt lat="43.90691" lon="7.71102">
        <ele>741.955</ele>
        <time>2016-12-22T09:51:45Z</time>
      </trkpt>
      <trkpt lat="43.90694" lon="7.71105">
        <ele>741.937</ele>
        <time>2016-12-22T09:51:52Z</time>
      </trkpt>
      <trkpt lat="43.90696" lon="7.71105">
        <ele>741.427</ele>
        <time>2016-12-22T09:51:59Z</time>
      </trkpt>
      <trkpt lat="43.90699" lon="7.71107">
        <ele>740.698</ele>
        <time>2016-12-22T09:52:05Z</time>
      </trkpt>
      <trkpt lat="43.90701" lon="7.71109">
        <ele>739.863</ele>
        <time>2016-12-22T09:52:15Z</time>
      </trkpt>
      <trkpt lat="43.90703" lon="7.71111">
        <ele>738.667</ele>
        <time>2016-12-22T09:52:22Z</time>
      </trkpt>
      <trkpt lat="43.90705" lon="7.71115">
        <ele>737.712</ele>
        <time>2016-12-22T09:52:45Z</time>
      </trkpt>
      <trkpt lat="43.90708" lon="7.71114">
        <ele>735.797</ele>
        <time>2016-12-22T09:53:09Z</time>
      </trkpt>
      <trkpt lat="43.90711" lon="7.71113">
        <ele>735.729</ele>
        <time>2016-12-22T09:53:14Z</time>
      </trkpt>
      <trkpt lat="43.90713" lon="7.7111">
        <ele>734.459</ele>
        <time>2016-12-22T09:53:38Z</time>
      </trkpt>
      <trkpt lat="43.90716" lon="7.71108">
        <ele>733.739</ele>
        <time>2016-12-22T09:53:42Z</time>
      </trkpt>
      <trkpt lat="43.90718" lon="7.71105">
        <ele>732.963</ele>
        <time>2016-12-22T09:53:48Z</time>
      </trkpt>
      <trkpt lat="43.90719" lon="7.71101">
        <ele>732.509</ele>
        <time>2016-12-22T09:53:52Z</time>
      </trkpt>
      <trkpt lat="43.90719" lon="7.71097">
        <ele>731.842</ele>
        <time>2016-12-22T09:53:56Z</time>
      </trkpt>
      <trkpt lat="43.90719" lon="7.71093">
        <ele>731.443</ele>
        <time>2016-12-22T09:54:03Z</time>
      </trkpt>
      <trkpt lat="43.9072" lon="7.71088">
        <ele>731.222</ele>
        <time>2016-12-22T09:54:05Z</time>
      </trkpt>
      <trkpt lat="43.9072" lon="7.71084">
        <ele>730.869</ele>
        <time>2016-12-22T09:54:09Z</time>
      </trkpt>
      <trkpt lat="43.90722" lon="7.71081">
        <ele>729.726</ele>
        <time>2016-12-22T09:54:19Z</time>
      </trkpt>
      <trkpt lat="43.90723" lon="7.71077">
        <ele>727.763</ele>
        <time>2016-12-22T09:54:36Z</time>
      </trkpt>
      <trkpt lat="43.90725" lon="7.71075">
        <ele>726.822</ele>
        <time>2016-12-22T09:54:48Z</time>
      </trkpt>
      <trkpt lat="43.90727" lon="7.71073">
        <ele>726.16</ele>
        <time>2016-12-22T09:54:53Z</time>
      </trkpt>
      <trkpt lat="43.90731" lon="7.71071">
        <ele>725.331</ele>
        <time>2016-12-22T09:55:01Z</time>
      </trkpt>
      <trkpt lat="43.90735" lon="7.71071">
        <ele>724.865</ele>
        <time>2016-12-22T09:55:03Z</time>
      </trkpt>
      <trkpt lat="43.90738" lon="7.71072">
        <ele>724.421</ele>
        <time>2016-12-22T09:55:05Z</time>
      </trkpt>
      <trkpt lat="43.90741" lon="7.71072">
        <ele>724.023</ele>
        <time>2016-12-22T09:55:07Z</time>
      </trkpt>
      <trkpt lat="43.90745" lon="7.71074">
        <ele>723.401</ele>
        <time>2016-12-22T09:55:11Z</time>
      </trkpt>
      <trkpt lat="43.90747" lon="7.71077">
        <ele>723.285</ele>
        <time>2016-12-22T09:55:14Z</time>
      </trkpt>
      <trkpt lat="43.9075" lon="7.7108">
        <ele>723.216</ele>
        <time>2016-12-22T09:55:16Z</time>
      </trkpt>
      <trkpt lat="43.90752" lon="7.71082">
        <ele>723.007</ele>
        <time>2016-12-22T09:55:19Z</time>
      </trkpt>
      <trkpt lat="43.90754" lon="7.71087">
        <ele>722.979</ele>
        <time>2016-12-22T09:55:23Z</time>
      </trkpt>
      <trkpt lat="43.90754" lon="7.71091">
        <ele>722.962</ele>
        <time>2016-12-22T09:55:26Z</time>
      </trkpt>
      <trkpt lat="43.90755" lon="7.71096">
        <ele>722.811</ele>
        <time>2016-12-22T09:55:29Z</time>
      </trkpt>
      <trkpt lat="43.90756" lon="7.71099">
        <ele>722.645</ele>
        <time>2016-12-22T09:55:31Z</time>
      </trkpt>
      <trkpt lat="43.90755" lon="7.71103">
        <ele>722.63</ele>
        <time>2016-12-22T09:55:35Z</time>
      </trkpt>
      <trkpt lat="43.90753" lon="7.71107">
        <ele>722.57</ele>
        <time>2016-12-22T09:55:37Z</time>
      </trkpt>
      <trkpt lat="43.90753" lon="7.71111">
        <ele>722.274</ele>
        <time>2016-12-22T09:55:40Z</time>
      </trkpt>
      <trkpt lat="43.90752" lon="7.71115">
        <ele>722.062</ele>
        <time>2016-12-22T09:55:43Z</time>
      </trkpt>
      <trkpt lat="43.90751" lon="7.71119">
        <ele>721.777</ele>
        <time>2016-12-22T09:55:46Z</time>
      </trkpt>
      <trkpt lat="43.9075" lon="7.71124">
        <ele>721.443</ele>
        <time>2016-12-22T09:55:50Z</time>
      </trkpt>
      <trkpt lat="43.90745" lon="7.71125">
        <ele>721.196</ele>
        <time>2016-12-22T09:55:53Z</time>
      </trkpt>
      <trkpt lat="43.90742" lon="7.71128">
        <ele>720.896</ele>
        <time>2016-12-22T09:55:55Z</time>
      </trkpt>
      <trkpt lat="43.90739" lon="7.7113">
        <ele>720.406</ele>
        <time>2016-12-22T09:55:58Z</time>
      </trkpt>
      <trkpt lat="43.90742" lon="7.71132">
        <ele>719.619</ele>
        <time>2016-12-22T09:56:08Z</time>
      </trkpt>
      <trkpt lat="43.90745" lon="7.71132">
        <ele>719.242</ele>
        <time>2016-12-22T09:56:11Z</time>
      </trkpt>
      <trkpt lat="43.90748" lon="7.71134">
        <ele>718.912</ele>
        <time>2016-12-22T09:56:14Z</time>
      </trkpt>
      <trkpt lat="43.90751" lon="7.71132">
        <ele>718.532</ele>
        <time>2016-12-22T09:56:24Z</time>
      </trkpt>
      <trkpt lat="43.90753" lon="7.7113">
        <ele>717.674</ele>
        <time>2016-12-22T09:56:36Z</time>
      </trkpt>
      <trkpt lat="43.90754" lon="7.71126">
        <ele>716.886</ele>
        <time>2016-12-22T09:56:52Z</time>
      </trkpt>
      <trkpt lat="43.90754" lon="7.71131">
        <ele>716.693</ele>
        <time>2016-12-22T09:57:24Z</time>
      </trkpt>
      <trkpt lat="43.90754" lon="7.71137">
        <ele>716.683</ele>
        <time>2016-12-22T09:57:26Z</time>
      </trkpt>
      <trkpt lat="43.90753" lon="7.71141">
        <ele>716.655</ele>
        <time>2016-12-22T09:57:32Z</time>
      </trkpt>
      <trkpt lat="43.90751" lon="7.71143">
        <ele>716.602</ele>
        <time>2016-12-22T09:57:41Z</time>
      </trkpt>
      <trkpt lat="43.90754" lon="7.71143">
        <ele>719.163</ele>
        <time>2016-12-22T10:04:07Z</time>
      </trkpt>
      <trkpt lat="43.90757" lon="7.71146">
        <ele>718.892</ele>
        <time>2016-12-22T10:04:23Z</time>
      </trkpt>
      <trkpt lat="43.90759" lon="7.71148">
        <ele>718.308</ele>
        <time>2016-12-22T10:04:32Z</time>
      </trkpt>
      <trkpt lat="43.90762" lon="7.71151">
        <ele>718.214</ele>
        <time>2016-12-22T10:04:35Z</time>
      </trkpt>
      <trkpt lat="43.90765" lon="7.7115">
        <ele>716.834</ele>
        <time>2016-12-22T10:04:47Z</time>
      </trkpt>
      <trkpt lat="43.90769" lon="7.71151">
        <ele>716.226</ele>
        <time>2016-12-22T10:04:53Z</time>
      </trkpt>
      <trkpt lat="43.90771" lon="7.71153">
        <ele>715.482</ele>
        <time>2016-12-22T10:05:00Z</time>
      </trkpt>
      <trkpt lat="43.90774" lon="7.71153">
        <ele>715.133</ele>
        <time>2016-12-22T10:05:09Z</time>
      </trkpt>
      <trkpt lat="43.90777" lon="7.71152">
        <ele>714.803</ele>
        <time>2016-12-22T10:05:31Z</time>
      </trkpt>
      <trkpt lat="43.90778" lon="7.71155">
        <ele>713.971</ele>
        <time>2016-12-22T10:05:53Z</time>
      </trkpt>
      <trkpt lat="43.90779" lon="7.71152">
        <ele>712.886</ele>
        <time>2016-12-22T10:06:20Z</time>
      </trkpt>
      <trkpt lat="43.90783" lon="7.71153">
        <ele>712.806</ele>
        <time>2016-12-22T10:06:34Z</time>
      </trkpt>
      <trkpt lat="43.90785" lon="7.71152">
        <ele>712.809</ele>
        <time>2016-12-22T10:06:45Z</time>
      </trkpt>
      <trkpt lat="43.90787" lon="7.71155">
        <ele>707.961</ele>
        <time>2016-12-22T10:07:33Z</time>
      </trkpt>
      <trkpt lat="43.90789" lon="7.71158">
        <ele>707.338</ele>
        <time>2016-12-22T10:07:40Z</time>
      </trkpt>
      <trkpt lat="43.90792" lon="7.71159">
        <ele>706.47</ele>
        <time>2016-12-22T10:07:46Z</time>
      </trkpt>
      <trkpt lat="43.90795" lon="7.71162">
        <ele>705.857</ele>
        <time>2016-12-22T10:07:50Z</time>
      </trkpt>
      <trkpt lat="43.90798" lon="7.71165">
        <ele>705.901</ele>
        <time>2016-12-22T10:07:52Z</time>
      </trkpt>
      <trkpt lat="43.908" lon="7.71167">
        <ele>705.97</ele>
        <time>2016-12-22T10:08:02Z</time>
      </trkpt>
      <trkpt lat="43.90803" lon="7.71164">
        <ele>705.698</ele>
        <time>2016-12-22T10:08:09Z</time>
      </trkpt>
      <trkpt lat="43.90806" lon="7.71164">
        <ele>704.903</ele>
        <time>2016-12-22T10:08:12Z</time>
      </trkpt>
      <trkpt lat="43.90809" lon="7.71163">
        <ele>703.259</ele>
        <time>2016-12-22T10:08:17Z</time>
      </trkpt>
      <trkpt lat="43.90813" lon="7.71163">
        <ele>702.493</ele>
        <time>2016-12-22T10:08:20Z</time>
      </trkpt>
      <trkpt lat="43.90816" lon="7.71164">
        <ele>701.85</ele>
        <time>2016-12-22T10:08:27Z</time>
      </trkpt>
      <trkpt lat="43.90819" lon="7.71162">
        <ele>700.572</ele>
        <time>2016-12-22T10:08:34Z</time>
      </trkpt>
      <trkpt lat="43.90821" lon="7.71164">
        <ele>699.174</ele>
        <time>2016-12-22T10:08:44Z</time>
      </trkpt>
      <trkpt lat="43.90824" lon="7.71165">
        <ele>698.268</ele>
        <time>2016-12-22T10:08:48Z</time>
      </trkpt>
      <trkpt lat="43.90827" lon="7.71166">
        <ele>697.938</ele>
        <time>2016-12-22T10:09:00Z</time>
      </trkpt>
      <trkpt lat="43.9083" lon="7.71164">
        <ele>697.185</ele>
        <time>2016-12-22T10:09:07Z</time>
      </trkpt>
      <trkpt lat="43.90833" lon="7.71164">
        <ele>696.769</ele>
        <time>2016-12-22T10:09:09Z</time>
      </trkpt>
      <trkpt lat="43.90836" lon="7.71162">
        <ele>696.482</ele>
        <time>2016-12-22T10:09:11Z</time>
      </trkpt>
      <trkpt lat="43.90839" lon="7.71158">
        <ele>696.194</ele>
        <time>2016-12-22T10:09:14Z</time>
      </trkpt>
      <trkpt lat="43.90842" lon="7.71157">
        <ele>695.929</ele>
        <time>2016-12-22T10:09:17Z</time>
      </trkpt>
      <trkpt lat="43.90846" lon="7.71157">
        <ele>695.769</ele>
        <time>2016-12-22T10:09:20Z</time>
      </trkpt>
      <trkpt lat="43.90849" lon="7.71158">
        <ele>695.555</ele>
        <time>2016-12-22T10:09:23Z</time>
      </trkpt>
      <trkpt lat="43.90852" lon="7.71159">
        <ele>695.238</ele>
        <time>2016-12-22T10:09:31Z</time>
      </trkpt>
      <trkpt lat="43.90855" lon="7.71159">
        <ele>695.096</ele>
        <time>2016-12-22T10:09:34Z</time>
      </trkpt>
      <trkpt lat="43.90858" lon="7.71162">
        <ele>694.981</ele>
        <time>2016-12-22T10:09:36Z</time>
      </trkpt>
      <trkpt lat="43.90861" lon="7.71163">
        <ele>694.895</ele>
        <time>2016-12-22T10:09:39Z</time>
      </trkpt>
      <trkpt lat="43.90865" lon="7.71164">
        <ele>694.823</ele>
        <time>2016-12-22T10:09:43Z</time>
      </trkpt>
      <trkpt lat="43.90869" lon="7.71164">
        <ele>694.709</ele>
        <time>2016-12-22T10:09:45Z</time>
      </trkpt>
      <trkpt lat="43.90872" lon="7.71163">
        <ele>694.582</ele>
        <time>2016-12-22T10:09:47Z</time>
      </trkpt>
      <trkpt lat="43.90875" lon="7.71162">
        <ele>694.533</ele>
        <time>2016-12-22T10:09:48Z</time>
      </trkpt>
      <trkpt lat="43.90877" lon="7.71159">
        <ele>694.173</ele>
        <time>2016-12-22T10:09:52Z</time>
      </trkpt>
      <trkpt lat="43.9088" lon="7.71157">
        <ele>693.964</ele>
        <time>2016-12-22T10:09:57Z</time>
      </trkpt>
      <trkpt lat="43.90883" lon="7.71156">
        <ele>693.94</ele>
        <time>2016-12-22T10:10:02Z</time>
      </trkpt>
      <trkpt lat="43.90886" lon="7.71155">
        <ele>693.071</ele>
        <time>2016-12-22T10:10:06Z</time>
      </trkpt>
      <trkpt lat="43.90892" lon="7.71155">
        <ele>692.612</ele>
        <time>2016-12-22T10:10:09Z</time>
      </trkpt>
      <trkpt lat="43.90895" lon="7.71157">
        <ele>692.075</ele>
        <time>2016-12-22T10:10:12Z</time>
      </trkpt>
      <trkpt lat="43.90898" lon="7.71157">
        <ele>691.79</ele>
        <time>2016-12-22T10:10:14Z</time>
      </trkpt>
      <trkpt lat="43.90902" lon="7.71155">
        <ele>691.085</ele>
        <time>2016-12-22T10:10:19Z</time>
      </trkpt>
      <trkpt lat="43.90905" lon="7.71157">
        <ele>690.524</ele>
        <time>2016-12-22T10:10:25Z</time>
      </trkpt>
      <trkpt lat="43.90907" lon="7.71159">
        <ele>690.045</ele>
        <time>2016-12-22T10:10:29Z</time>
      </trkpt>
      <trkpt lat="43.90909" lon="7.71162">
        <ele>689.889</ele>
        <time>2016-12-22T10:10:31Z</time>
      </trkpt>
      <trkpt lat="43.90911" lon="7.71166">
        <ele>689.488</ele>
        <time>2016-12-22T10:10:35Z</time>
      </trkpt>
      <trkpt lat="43.90913" lon="7.71169">
        <ele>689.29</ele>
        <time>2016-12-22T10:10:37Z</time>
      </trkpt>
      <trkpt lat="43.90917" lon="7.71171">
        <ele>688.747</ele>
        <time>2016-12-22T10:10:40Z</time>
      </trkpt>
      <trkpt lat="43.9092" lon="7.71172">
        <ele>688.112</ele>
        <time>2016-12-22T10:10:43Z</time>
      </trkpt>
      <trkpt lat="43.90924" lon="7.71172">
        <ele>687.678</ele>
        <time>2016-12-22T10:10:45Z</time>
      </trkpt>
      <trkpt lat="43.90927" lon="7.71172">
        <ele>687.073</ele>
        <time>2016-12-22T10:10:48Z</time>
      </trkpt>
      <trkpt lat="43.9093" lon="7.7117">
        <ele>686.674</ele>
        <time>2016-12-22T10:10:51Z</time>
      </trkpt>
      <trkpt lat="43.90931" lon="7.71174">
        <ele>686.318</ele>
        <time>2016-12-22T10:10:56Z</time>
      </trkpt>
      <trkpt lat="43.90934" lon="7.71177">
        <ele>686.086</ele>
        <time>2016-12-22T10:10:59Z</time>
      </trkpt>
      <trkpt lat="43.90937" lon="7.71179">
        <ele>685.718</ele>
        <time>2016-12-22T10:11:03Z</time>
      </trkpt>
      <trkpt lat="43.9094" lon="7.7118">
        <ele>685.468</ele>
        <time>2016-12-22T10:11:05Z</time>
      </trkpt>
      <trkpt lat="43.90943" lon="7.71181">
        <ele>685.263</ele>
        <time>2016-12-22T10:11:07Z</time>
      </trkpt>
      <trkpt lat="43.90946" lon="7.71183">
        <ele>684.775</ele>
        <time>2016-12-22T10:11:11Z</time>
      </trkpt>
      <trkpt lat="43.9095" lon="7.71185">
        <ele>684.098</ele>
        <time>2016-12-22T10:11:14Z</time>
      </trkpt>
      <trkpt lat="43.90953" lon="7.71187">
        <ele>683.559</ele>
        <time>2016-12-22T10:11:16Z</time>
      </trkpt>
      <trkpt lat="43.90955" lon="7.71189">
        <ele>683.068</ele>
        <time>2016-12-22T10:11:18Z</time>
      </trkpt>
      <trkpt lat="43.90958" lon="7.71192">
        <ele>682.692</ele>
        <time>2016-12-22T10:11:20Z</time>
      </trkpt>
      <trkpt lat="43.90961" lon="7.71195">
        <ele>682.366</ele>
        <time>2016-12-22T10:11:22Z</time>
      </trkpt>
      <trkpt lat="43.90963" lon="7.71196">
        <ele>682.131</ele>
        <time>2016-12-22T10:11:24Z</time>
      </trkpt>
      <trkpt lat="43.90967" lon="7.71196">
        <ele>681.826</ele>
        <time>2016-12-22T10:11:26Z</time>
      </trkpt>
      <trkpt lat="43.9097" lon="7.71195">
        <ele>681.472</ele>
        <time>2016-12-22T10:11:28Z</time>
      </trkpt>
      <trkpt lat="43.90974" lon="7.71193">
        <ele>680.298</ele>
        <time>2016-12-22T10:11:33Z</time>
      </trkpt>
      <trkpt lat="43.90977" lon="7.7119">
        <ele>679.448</ele>
        <time>2016-12-22T10:11:36Z</time>
      </trkpt>
      <trkpt lat="43.90981" lon="7.7119">
        <ele>679.01</ele>
        <time>2016-12-22T10:11:38Z</time>
      </trkpt>
      <trkpt lat="43.90985" lon="7.71189">
        <ele>678.526</ele>
        <time>2016-12-22T10:11:40Z</time>
      </trkpt>
      <trkpt lat="43.90987" lon="7.71188">
        <ele>677.957</ele>
        <time>2016-12-22T10:11:42Z</time>
      </trkpt>
      <trkpt lat="43.9099" lon="7.7119">
        <ele>677.078</ele>
        <time>2016-12-22T10:11:46Z</time>
      </trkpt>
      <trkpt lat="43.90991" lon="7.71193">
        <ele>676.659</ele>
        <time>2016-12-22T10:11:49Z</time>
      </trkpt>
      <trkpt lat="43.90991" lon="7.71198">
        <ele>676.216</ele>
        <time>2016-12-22T10:11:55Z</time>
      </trkpt>
      <trkpt lat="43.90992" lon="7.71201">
        <ele>675.597</ele>
        <time>2016-12-22T10:12:02Z</time>
      </trkpt>
      <trkpt lat="43.90994" lon="7.71203">
        <ele>674.624</ele>
        <time>2016-12-22T10:12:13Z</time>
      </trkpt>
      <trkpt lat="43.90994" lon="7.71207">
        <ele>673.368</ele>
        <time>2016-12-22T10:12:21Z</time>
      </trkpt>
      <trkpt lat="43.90995" lon="7.71211">
        <ele>672.675</ele>
        <time>2016-12-22T10:12:24Z</time>
      </trkpt>
      <trkpt lat="43.90997" lon="7.71217">
        <ele>672.11</ele>
        <time>2016-12-22T10:12:27Z</time>
      </trkpt>
      <trkpt lat="43.90995" lon="7.71221">
        <ele>671.66</ele>
        <time>2016-12-22T10:12:30Z</time>
      </trkpt>
      <trkpt lat="43.90995" lon="7.71225">
        <ele>671.403</ele>
        <time>2016-12-22T10:12:33Z</time>
      </trkpt>
      <trkpt lat="43.90993" lon="7.71228">
        <ele>664.933</ele>
        <time>2016-12-22T10:13:38Z</time>
      </trkpt>
      <trkpt lat="43.90994" lon="7.71231">
        <ele>664.13</ele>
        <time>2016-12-22T10:13:57Z</time>
      </trkpt>
      <trkpt lat="43.90994" lon="7.71235">
        <ele>662.775</ele>
        <time>2016-12-22T10:14:12Z</time>
      </trkpt>
      <trkpt lat="43.90996" lon="7.71236">
        <ele>660.08</ele>
        <time>2016-12-22T10:14:37Z</time>
      </trkpt>
      <trkpt lat="43.90998" lon="7.71239">
        <ele>658.843</ele>
        <time>2016-12-22T10:14:51Z</time>
      </trkpt>
      <trkpt lat="43.91002" lon="7.71237">
        <ele>658.271</ele>
        <time>2016-12-22T10:14:57Z</time>
      </trkpt>
      <trkpt lat="43.91005" lon="7.71237">
        <ele>658.17</ele>
        <time>2016-12-22T10:14:59Z</time>
      </trkpt>
      <trkpt lat="43.91008" lon="7.71236">
        <ele>657.992</ele>
        <time>2016-12-22T10:15:03Z</time>
      </trkpt>
      <trkpt lat="43.91009" lon="7.7124">
        <ele>657.96</ele>
        <time>2016-12-22T10:15:09Z</time>
      </trkpt>
      <trkpt lat="43.91011" lon="7.71243">
        <ele>657.927</ele>
        <time>2016-12-22T10:15:18Z</time>
      </trkpt>
      <trkpt lat="43.91014" lon="7.71242">
        <ele>657.321</ele>
        <time>2016-12-22T10:15:53Z</time>
      </trkpt>
      <trkpt lat="43.91016" lon="7.71239">
        <ele>656.425</ele>
        <time>2016-12-22T10:16:28Z</time>
      </trkpt>
      <trkpt lat="43.91015" lon="7.71235">
        <ele>655.973</ele>
        <time>2016-12-22T10:16:47Z</time>
      </trkpt>
      <trkpt lat="43.91013" lon="7.71236">
        <ele>656.143</ele>
        <time>2016-12-22T10:16:58Z</time>
      </trkpt>
      <trkpt lat="43.91011" lon="7.71239">
        <ele>655.941</ele>
        <time>2016-12-22T10:17:05Z</time>
      </trkpt>
      <trkpt lat="43.91009" lon="7.71242">
        <ele>655.678</ele>
        <time>2016-12-22T10:17:13Z</time>
      </trkpt>
      <trkpt lat="43.91007" lon="7.71243">
        <ele>653.24</ele>
        <time>2016-12-22T10:18:02Z</time>
      </trkpt>
      <trkpt lat="43.91009" lon="7.71241">
        <ele>653.303</ele>
        <time>2016-12-22T10:18:31Z</time>
      </trkpt>
      <trkpt lat="43.91006" lon="7.71239">
        <ele>652.821</ele>
        <time>2016-12-22T10:18:48Z</time>
      </trkpt>
      <trkpt lat="43.91004" lon="7.71237">
        <ele>652.728</ele>
        <time>2016-12-22T10:18:53Z</time>
      </trkpt>
      <trkpt lat="43.91007" lon="7.71238">
        <ele>651.929</ele>
        <time>2016-12-22T10:19:52Z</time>
      </trkpt>
      <trkpt lat="43.9101" lon="7.71241">
        <ele>651.849</ele>
        <time>2016-12-22T10:20:01Z</time>
      </trkpt>
      <trkpt lat="43.91012" lon="7.71239">
        <ele>651.387</ele>
        <time>2016-12-22T10:20:17Z</time>
      </trkpt>
      <trkpt lat="43.91015" lon="7.7124">
        <ele>651.162</ele>
        <time>2016-12-22T10:20:28Z</time>
      </trkpt>
      <trkpt lat="43.91018" lon="7.71241">
        <ele>651.708</ele>
        <time>2016-12-22T10:20:42Z</time>
      </trkpt>
      <trkpt lat="43.91016" lon="7.71244">
        <ele>651.809</ele>
        <time>2016-12-22T10:20:47Z</time>
      </trkpt>
      <trkpt lat="43.91013" lon="7.71243">
        <ele>651.412</ele>
        <time>2016-12-22T10:21:04Z</time>
      </trkpt>
      <trkpt lat="43.91011" lon="7.7124">
        <ele>650.732</ele>
        <time>2016-12-22T10:21:15Z</time>
      </trkpt>
      <trkpt lat="43.91009" lon="7.71237">
        <ele>650.564</ele>
        <time>2016-12-22T10:21:21Z</time>
      </trkpt>
      <trkpt lat="43.9101" lon="7.71241">
        <ele>650.654</ele>
        <time>2016-12-22T10:21:32Z</time>
      </trkpt>
      <trkpt lat="43.91011" lon="7.71245">
        <ele>650.652</ele>
        <time>2016-12-22T10:21:36Z</time>
      </trkpt>
      <trkpt lat="43.91013" lon="7.71249">
        <ele>650.538</ele>
        <time>2016-12-22T10:21:40Z</time>
      </trkpt>
      <trkpt lat="43.91011" lon="7.71252">
        <ele>650.726</ele>
        <time>2016-12-22T10:22:15Z</time>
      </trkpt>
      <trkpt lat="43.91008" lon="7.71252">
        <ele>650.582</ele>
        <time>2016-12-22T10:22:24Z</time>
      </trkpt>
      <trkpt lat="43.91007" lon="7.71248">
        <ele>650.221</ele>
        <time>2016-12-22T10:22:33Z</time>
      </trkpt>
      <trkpt lat="43.91008" lon="7.71245">
        <ele>650.33</ele>
        <time>2016-12-22T10:23:24Z</time>
      </trkpt>
      <trkpt lat="43.91008" lon="7.71241">
        <ele>650.482</ele>
        <time>2016-12-22T10:23:30Z</time>
      </trkpt>
      <trkpt lat="43.91009" lon="7.71244">
        <ele>651.25</ele>
        <time>2016-12-22T10:24:00Z</time>
      </trkpt>
      <trkpt lat="43.91011" lon="7.71243">
        <ele>651.551</ele>
        <time>2016-12-22T10:24:10Z</time>
      </trkpt>
      <trkpt lat="43.91013" lon="7.7124">
        <ele>651.868</ele>
        <time>2016-12-22T10:24:21Z</time>
      </trkpt>
      <trkpt lat="43.91015" lon="7.71244">
        <ele>651.717</ele>
        <time>2016-12-22T10:24:41Z</time>
      </trkpt>
      <trkpt lat="43.91015" lon="7.71247">
        <ele>651.567</ele>
        <time>2016-12-22T10:24:47Z</time>
      </trkpt>
      <trkpt lat="43.91017" lon="7.7125">
        <ele>650.986</ele>
        <time>2016-12-22T10:25:09Z</time>
      </trkpt>
      <trkpt lat="43.91017" lon="7.71253">
        <ele>649.801</ele>
        <time>2016-12-22T10:25:32Z</time>
      </trkpt>
      <trkpt lat="43.91016" lon="7.71257">
        <ele>649.987</ele>
        <time>2016-12-22T10:25:37Z</time>
      </trkpt>
      <trkpt lat="43.91019" lon="7.71257">
        <ele>649.734</ele>
        <time>2016-12-22T10:25:42Z</time>
      </trkpt>
      <trkpt lat="43.91022" lon="7.71257">
        <ele>649.072</ele>
        <time>2016-12-22T10:25:51Z</time>
      </trkpt>
      <trkpt lat="43.91025" lon="7.71255">
        <ele>648.918</ele>
        <time>2016-12-22T10:26:04Z</time>
      </trkpt>
      <trkpt lat="43.91027" lon="7.71256">
        <ele>649</ele>
        <time>2016-12-22T10:26:21Z</time>
      </trkpt>
      <trkpt lat="43.91028" lon="7.71252">
        <ele>648.293</ele>
        <time>2016-12-22T10:26:33Z</time>
      </trkpt>
      <trkpt lat="43.91031" lon="7.71251">
        <ele>647.574</ele>
        <time>2016-12-22T10:26:55Z</time>
      </trkpt>
      <trkpt lat="43.91032" lon="7.71247">
        <ele>647.134</ele>
        <time>2016-12-22T10:27:01Z</time>
      </trkpt>
      <trkpt lat="43.91033" lon="7.71243">
        <ele>646.77</ele>
        <time>2016-12-22T10:27:03Z</time>
      </trkpt>
      <trkpt lat="43.91032" lon="7.71239">
        <ele>646.396</ele>
        <time>2016-12-22T10:27:07Z</time>
      </trkpt>
      <trkpt lat="43.91031" lon="7.71234">
        <ele>646.3</ele>
        <time>2016-12-22T10:27:10Z</time>
      </trkpt>
      <trkpt lat="43.91031" lon="7.7123">
        <ele>645.678</ele>
        <time>2016-12-22T10:27:20Z</time>
      </trkpt>
      <trkpt lat="43.91031" lon="7.71226">
        <ele>644.907</ele>
        <time>2016-12-22T10:27:29Z</time>
      </trkpt>
      <trkpt lat="43.91029" lon="7.71222">
        <ele>644.263</ele>
        <time>2016-12-22T10:27:38Z</time>
      </trkpt>
      <trkpt lat="43.91028" lon="7.71219">
        <ele>643.994</ele>
        <time>2016-12-22T10:27:43Z</time>
      </trkpt>
      <trkpt lat="43.91028" lon="7.71214">
        <ele>643.689</ele>
        <time>2016-12-22T10:27:54Z</time>
      </trkpt>
      <trkpt lat="43.9103" lon="7.71211">
        <ele>643.463</ele>
        <time>2016-12-22T10:28:02Z</time>
      </trkpt>
      <trkpt lat="43.91033" lon="7.71209">
        <ele>643.112</ele>
        <time>2016-12-22T10:28:11Z</time>
      </trkpt>
      <trkpt lat="43.91036" lon="7.71208">
        <ele>643.075</ele>
        <time>2016-12-22T10:28:16Z</time>
      </trkpt>
      <trkpt lat="43.91038" lon="7.71205">
        <ele>641.917</ele>
        <time>2016-12-22T10:28:38Z</time>
      </trkpt>
      <trkpt lat="43.91038" lon="7.71201">
        <ele>641.451</ele>
        <time>2016-12-22T10:28:52Z</time>
      </trkpt>
      <trkpt lat="43.91036" lon="7.71198">
        <ele>640.909</ele>
        <time>2016-12-22T10:29:08Z</time>
      </trkpt>
      <trkpt lat="43.91035" lon="7.71194">
        <ele>640.029</ele>
        <time>2016-12-22T10:29:18Z</time>
      </trkpt>
      <trkpt lat="43.91039" lon="7.71192">
        <ele>638.774</ele>
        <time>2016-12-22T10:29:28Z</time>
      </trkpt>
      <trkpt lat="43.91042" lon="7.71191">
        <ele>638.276</ele>
        <time>2016-12-22T10:29:31Z</time>
      </trkpt>
      <trkpt lat="43.91043" lon="7.71187">
        <ele>636.75</ele>
        <time>2016-12-22T10:29:44Z</time>
      </trkpt>
      <trkpt lat="43.91045" lon="7.71184">
        <ele>636.234</ele>
        <time>2016-12-22T10:29:47Z</time>
      </trkpt>
      <trkpt lat="43.91048" lon="7.71181">
        <ele>635.939</ele>
        <time>2016-12-22T10:29:49Z</time>
      </trkpt>
      <trkpt lat="43.91052" lon="7.7118">
        <ele>635.497</ele>
        <time>2016-12-22T10:29:52Z</time>
      </trkpt>
      <trkpt lat="43.91054" lon="7.71179">
        <ele>635.15</ele>
        <time>2016-12-22T10:29:55Z</time>
      </trkpt>
      <trkpt lat="43.91057" lon="7.71177">
        <ele>634.006</ele>
        <time>2016-12-22T10:30:01Z</time>
      </trkpt>
      <trkpt lat="43.91059" lon="7.71173">
        <ele>632.834</ele>
        <time>2016-12-22T10:30:10Z</time>
      </trkpt>
      <trkpt lat="43.91057" lon="7.71169">
        <ele>631.941</ele>
        <time>2016-12-22T10:30:14Z</time>
      </trkpt>
      <trkpt lat="43.91059" lon="7.71166">
        <ele>629.765</ele>
        <time>2016-12-22T10:30:23Z</time>
      </trkpt>
      <trkpt lat="43.9106" lon="7.71163">
        <ele>629.03</ele>
        <time>2016-12-22T10:30:28Z</time>
      </trkpt>
      <trkpt lat="43.91062" lon="7.71165">
        <ele>627.445</ele>
        <time>2016-12-22T10:30:39Z</time>
      </trkpt>
      <trkpt lat="43.91062" lon="7.7117">
        <ele>627.114</ele>
        <time>2016-12-22T10:30:43Z</time>
      </trkpt>
      <trkpt lat="43.91061" lon="7.71175">
        <ele>626.862</ele>
        <time>2016-12-22T10:30:46Z</time>
      </trkpt>
      <trkpt lat="43.91064" lon="7.71172">
        <ele>625.835</ele>
        <time>2016-12-22T10:31:02Z</time>
      </trkpt>
      <trkpt lat="43.91067" lon="7.71171">
        <ele>625.61</ele>
        <time>2016-12-22T10:31:11Z</time>
      </trkpt>
      <trkpt lat="43.91067" lon="7.71175">
        <ele>625.28</ele>
        <time>2016-12-22T10:31:22Z</time>
      </trkpt>
      <trkpt lat="43.91066" lon="7.71179">
        <ele>624.764</ele>
        <time>2016-12-22T10:31:26Z</time>
      </trkpt>
      <trkpt lat="43.91068" lon="7.71181">
        <ele>624.717</ele>
        <time>2016-12-22T10:31:28Z</time>
      </trkpt>
      <trkpt lat="43.91069" lon="7.71185">
        <ele>624.169</ele>
        <time>2016-12-22T10:31:42Z</time>
      </trkpt>
      <trkpt lat="43.91071" lon="7.71186">
        <ele>621.699</ele>
        <time>2016-12-22T10:32:00Z</time>
      </trkpt>
      <trkpt lat="43.91074" lon="7.7118">
        <ele>621.167</ele>
        <time>2016-12-22T10:32:12Z</time>
      </trkpt>
      <trkpt lat="43.91076" lon="7.71176">
        <ele>621.276</ele>
        <time>2016-12-22T10:32:18Z</time>
      </trkpt>
      <trkpt lat="43.91075" lon="7.71173">
        <ele>620.993</ele>
        <time>2016-12-22T10:32:25Z</time>
      </trkpt>
      <trkpt lat="43.91076" lon="7.71169">
        <ele>620.675</ele>
        <time>2016-12-22T10:32:32Z</time>
      </trkpt>
      <trkpt lat="43.9108" lon="7.71166">
        <ele>620.422</ele>
        <time>2016-12-22T10:32:34Z</time>
      </trkpt>
      <trkpt lat="43.91083" lon="7.71166">
        <ele>618.938</ele>
        <time>2016-12-22T10:32:44Z</time>
      </trkpt>
      <trkpt lat="43.91086" lon="7.71168">
        <ele>618.57</ele>
        <time>2016-12-22T10:32:48Z</time>
      </trkpt>
      <trkpt lat="43.91088" lon="7.71166">
        <ele>618.262</ele>
        <time>2016-12-22T10:32:55Z</time>
      </trkpt>
      <trkpt lat="43.9109" lon="7.71162">
        <ele>617.704</ele>
        <time>2016-12-22T10:33:03Z</time>
      </trkpt>
      <trkpt lat="43.91092" lon="7.71158">
        <ele>616.622</ele>
        <time>2016-12-22T10:33:08Z</time>
      </trkpt>
      <trkpt lat="43.91094" lon="7.71156">
        <ele>615.117</ele>
        <time>2016-12-22T10:33:14Z</time>
      </trkpt>
      <trkpt lat="43.91098" lon="7.71153">
        <ele>614.097</ele>
        <time>2016-12-22T10:33:21Z</time>
      </trkpt>
      <trkpt lat="43.91101" lon="7.7115">
        <ele>613.88</ele>
        <time>2016-12-22T10:33:23Z</time>
      </trkpt>
      <trkpt lat="43.91102" lon="7.71148">
        <ele>613.022</ele>
        <time>2016-12-22T10:33:29Z</time>
      </trkpt>
      <trkpt lat="43.91105" lon="7.71144">
        <ele>610.798</ele>
        <time>2016-12-22T10:34:15Z</time>
      </trkpt>
      <trkpt lat="43.91109" lon="7.71144">
        <ele>610.372</ele>
        <time>2016-12-22T10:34:17Z</time>
      </trkpt>
      <trkpt lat="43.91111" lon="7.71147">
        <ele>609.211</ele>
        <time>2016-12-22T10:34:24Z</time>
      </trkpt>
      <trkpt lat="43.91113" lon="7.71149">
        <ele>606.465</ele>
        <time>2016-12-22T10:34:43Z</time>
      </trkpt>
      <trkpt lat="43.91116" lon="7.71149">
        <ele>605.51</ele>
        <time>2016-12-22T10:34:46Z</time>
      </trkpt>
      <trkpt lat="43.91119" lon="7.71151">
        <ele>604.858</ele>
        <time>2016-12-22T10:34:48Z</time>
      </trkpt>
      <trkpt lat="43.91125" lon="7.71156">
        <ele>603.415</ele>
        <time>2016-12-22T10:35:06Z</time>
      </trkpt>
      <trkpt lat="43.91124" lon="7.71161">
        <ele>603.168</ele>
        <time>2016-12-22T10:35:09Z</time>
      </trkpt>
      <trkpt lat="43.91124" lon="7.71166">
        <ele>602.982</ele>
        <time>2016-12-22T10:35:11Z</time>
      </trkpt>
      <trkpt lat="43.91126" lon="7.71171">
        <ele>602.641</ele>
        <time>2016-12-22T10:35:14Z</time>
      </trkpt>
      <trkpt lat="43.91126" lon="7.71167">
        <ele>600.708</ele>
        <time>2016-12-22T10:35:33Z</time>
      </trkpt>
      <trkpt lat="43.91127" lon="7.71163">
        <ele>598.887</ele>
        <time>2016-12-22T10:35:49Z</time>
      </trkpt>
      <trkpt lat="43.91129" lon="7.71159">
        <ele>595.933</ele>
        <time>2016-12-22T10:36:04Z</time>
      </trkpt>
      <trkpt lat="43.91132" lon="7.7116">
        <ele>595.218</ele>
        <time>2016-12-22T10:36:10Z</time>
      </trkpt>
      <trkpt lat="43.91134" lon="7.71162">
        <ele>593.265</ele>
        <time>2016-12-22T10:36:39Z</time>
      </trkpt>
      <trkpt lat="43.91137" lon="7.71161">
        <ele>591.329</ele>
        <time>2016-12-22T10:36:59Z</time>
      </trkpt>
      <trkpt lat="43.91138" lon="7.71157">
        <ele>590.053</ele>
        <time>2016-12-22T10:37:09Z</time>
      </trkpt>
      <trkpt lat="43.91141" lon="7.71155">
        <ele>588.821</ele>
        <time>2016-12-22T10:37:14Z</time>
      </trkpt>
      <trkpt lat="43.91144" lon="7.71156">
        <ele>587.459</ele>
        <time>2016-12-22T10:37:21Z</time>
      </trkpt>
      <trkpt lat="43.91146" lon="7.71159">
        <ele>585.772</ele>
        <time>2016-12-22T10:37:43Z</time>
      </trkpt>
      <trkpt lat="43.91147" lon="7.71163">
        <ele>585.703</ele>
        <time>2016-12-22T10:37:47Z</time>
      </trkpt>
      <trkpt lat="43.91147" lon="7.7116">
        <ele>585.401</ele>
        <time>2016-12-22T10:37:56Z</time>
      </trkpt>
      <trkpt lat="43.91144" lon="7.7116">
        <ele>585.17</ele>
        <time>2016-12-22T10:38:05Z</time>
      </trkpt>
      <trkpt lat="43.91147" lon="7.71161">
        <ele>584.187</ele>
        <time>2016-12-22T10:38:50Z</time>
      </trkpt>
      <trkpt lat="43.9115" lon="7.71159">
        <ele>583.973</ele>
        <time>2016-12-22T10:38:58Z</time>
      </trkpt>
      <trkpt lat="43.91149" lon="7.71155">
        <ele>582.61</ele>
        <time>2016-12-22T10:39:10Z</time>
      </trkpt>
      <trkpt lat="43.91151" lon="7.71153">
        <ele>581.658</ele>
        <time>2016-12-22T10:39:19Z</time>
      </trkpt>
      <trkpt lat="43.91151" lon="7.71157">
        <ele>581.382</ele>
        <time>2016-12-22T10:39:34Z</time>
      </trkpt>
      <trkpt lat="43.91152" lon="7.7116">
        <ele>581.727</ele>
        <time>2016-12-22T10:39:40Z</time>
      </trkpt>
      <trkpt lat="43.91153" lon="7.71164">
        <ele>581.561</ele>
        <time>2016-12-22T10:39:46Z</time>
      </trkpt>
      <trkpt lat="43.91155" lon="7.71167">
        <ele>581.495</ele>
        <time>2016-12-22T10:40:03Z</time>
      </trkpt>
      <trkpt lat="43.91156" lon="7.71164">
        <ele>581.381</ele>
        <time>2016-12-22T10:40:34Z</time>
      </trkpt>
      <trkpt lat="43.91157" lon="7.7116">
        <ele>580.918</ele>
        <time>2016-12-22T10:40:44Z</time>
      </trkpt>
      <trkpt lat="43.91156" lon="7.71156">
        <ele>579.631</ele>
        <time>2016-12-22T10:40:53Z</time>
      </trkpt>
      <trkpt lat="43.91155" lon="7.71152">
        <ele>579.189</ele>
        <time>2016-12-22T10:41:01Z</time>
      </trkpt>
      <trkpt lat="43.91157" lon="7.71148">
        <ele>578.249</ele>
        <time>2016-12-22T10:41:12Z</time>
      </trkpt>
      <trkpt lat="43.9116" lon="7.7115">
        <ele>577.033</ele>
        <time>2016-12-22T10:41:27Z</time>
      </trkpt>
      <trkpt lat="43.91162" lon="7.71151">
        <ele>574.907</ele>
        <time>2016-12-22T10:41:53Z</time>
      </trkpt>
      <trkpt lat="43.91165" lon="7.71151">
        <ele>574.571</ele>
        <time>2016-12-22T10:42:06Z</time>
      </trkpt>
      <trkpt lat="43.91164" lon="7.71148">
        <ele>574.451</ele>
        <time>2016-12-22T10:42:19Z</time>
      </trkpt>
      <trkpt lat="43.91162" lon="7.7115">
        <ele>573.204</ele>
        <time>2016-12-22T10:42:44Z</time>
      </trkpt>
      <trkpt lat="43.9116" lon="7.71145">
        <ele>571.61</ele>
        <time>2016-12-22T10:42:56Z</time>
      </trkpt>
      <trkpt lat="43.91159" lon="7.71149">
        <ele>569.776</ele>
        <time>2016-12-22T10:43:14Z</time>
      </trkpt>
      <trkpt lat="43.91161" lon="7.71151">
        <ele>570.14</ele>
        <time>2016-12-22T10:43:30Z</time>
      </trkpt>
      <trkpt lat="43.91164" lon="7.71151">
        <ele>570.221</ele>
        <time>2016-12-22T10:43:31Z</time>
      </trkpt>
      <trkpt lat="43.91167" lon="7.71151">
        <ele>570.413</ele>
        <time>2016-12-22T10:43:34Z</time>
      </trkpt>
      <trkpt lat="43.9117" lon="7.7115">
        <ele>570.399</ele>
        <time>2016-12-22T10:43:36Z</time>
      </trkpt>
      <trkpt lat="43.91172" lon="7.71147">
        <ele>571.585</ele>
        <time>2016-12-22T10:43:45Z</time>
      </trkpt>
      <trkpt lat="43.91169" lon="7.71147">
        <ele>572.628</ele>
        <time>2016-12-22T10:44:12Z</time>
      </trkpt>
      <trkpt lat="43.91169" lon="7.71143">
        <ele>572.656</ele>
        <time>2016-12-22T10:44:30Z</time>
      </trkpt>
      <trkpt lat="43.91173" lon="7.71144">
        <ele>570.672</ele>
        <time>2016-12-22T10:44:42Z</time>
      </trkpt>
      <trkpt lat="43.91175" lon="7.71141">
        <ele>569.006</ele>
        <time>2016-12-22T10:44:53Z</time>
      </trkpt>
      <trkpt lat="43.91176" lon="7.71145">
        <ele>568.781</ele>
        <time>2016-12-22T10:44:56Z</time>
      </trkpt>
      <trkpt lat="43.91176" lon="7.71149">
        <ele>568.422</ele>
        <time>2016-12-22T10:45:04Z</time>
      </trkpt>
      <trkpt lat="43.91178" lon="7.71152">
        <ele>568.207</ele>
        <time>2016-12-22T10:45:08Z</time>
      </trkpt>
      <trkpt lat="43.9118" lon="7.7115">
        <ele>567.741</ele>
        <time>2016-12-22T10:45:15Z</time>
      </trkpt>
      <trkpt lat="43.91179" lon="7.71145">
        <ele>565.381</ele>
        <time>2016-12-22T10:45:29Z</time>
      </trkpt>
      <trkpt lat="43.91182" lon="7.71141">
        <ele>564.973</ele>
        <time>2016-12-22T10:45:32Z</time>
      </trkpt>
      <trkpt lat="43.91184" lon="7.71139">
        <ele>564.691</ele>
        <time>2016-12-22T10:45:34Z</time>
      </trkpt>
      <trkpt lat="43.91186" lon="7.71137">
        <ele>562.817</ele>
        <time>2016-12-22T10:45:53Z</time>
      </trkpt>
      <trkpt lat="43.91189" lon="7.71137">
        <ele>560.952</ele>
        <time>2016-12-22T10:46:07Z</time>
      </trkpt>
      <trkpt lat="43.91192" lon="7.71136">
        <ele>560.158</ele>
        <time>2016-12-22T10:46:16Z</time>
      </trkpt>
      <trkpt lat="43.91191" lon="7.7114">
        <ele>559.166</ele>
        <time>2016-12-22T10:46:43Z</time>
      </trkpt>
      <trkpt lat="43.91193" lon="7.71137">
        <ele>558.809</ele>
        <time>2016-12-22T10:46:45Z</time>
      </trkpt>
      <trkpt lat="43.91196" lon="7.71134">
        <ele>558.344</ele>
        <time>2016-12-22T10:46:48Z</time>
      </trkpt>
      <trkpt lat="43.91198" lon="7.7113">
        <ele>558.113</ele>
        <time>2016-12-22T10:46:50Z</time>
      </trkpt>
      <trkpt lat="43.912" lon="7.71126">
        <ele>557.693</ele>
        <time>2016-12-22T10:46:53Z</time>
      </trkpt>
      <trkpt lat="43.91202" lon="7.71122">
        <ele>557.466</ele>
        <time>2016-12-22T10:46:57Z</time>
      </trkpt>
      <trkpt lat="43.91205" lon="7.71119">
        <ele>557.371</ele>
        <time>2016-12-22T10:47:00Z</time>
      </trkpt>
      <trkpt lat="43.91207" lon="7.71116">
        <ele>557.487</ele>
        <time>2016-12-22T10:47:03Z</time>
      </trkpt>
      <trkpt lat="43.91211" lon="7.71115">
        <ele>557.635</ele>
        <time>2016-12-22T10:47:06Z</time>
      </trkpt>
      <trkpt lat="43.91215" lon="7.71112">
        <ele>557.76</ele>
        <time>2016-12-22T10:47:09Z</time>
      </trkpt>
      <trkpt lat="43.91218" lon="7.71113">
        <ele>557.156</ele>
        <time>2016-12-22T10:47:31Z</time>
      </trkpt>
      <trkpt lat="43.9122" lon="7.71112">
        <ele>556.983</ele>
        <time>2016-12-22T10:47:40Z</time>
      </trkpt>
      <trkpt lat="43.91223" lon="7.71111">
        <ele>556.78</ele>
        <time>2016-12-22T10:47:51Z</time>
      </trkpt>
      <trkpt lat="43.91222" lon="7.71115">
        <ele>555.847</ele>
        <time>2016-12-22T10:48:23Z</time>
      </trkpt>
      <trkpt lat="43.91223" lon="7.71119">
        <ele>555.878</ele>
        <time>2016-12-22T10:48:27Z</time>
      </trkpt>
      <trkpt lat="43.91221" lon="7.71122">
        <ele>556.056</ele>
        <time>2016-12-22T10:48:38Z</time>
      </trkpt>
      <trkpt lat="43.91218" lon="7.71124">
        <ele>556.259</ele>
        <time>2016-12-22T10:48:45Z</time>
      </trkpt>
      <trkpt lat="43.91215" lon="7.71125">
        <ele>556.514</ele>
        <time>2016-12-22T10:48:54Z</time>
      </trkpt>
      <trkpt lat="43.91214" lon="7.71119">
        <ele>557.707</ele>
        <time>2016-12-22T10:49:41Z</time>
      </trkpt>
      <trkpt lat="43.91214" lon="7.71114">
        <ele>558.049</ele>
        <time>2016-12-22T10:49:45Z</time>
      </trkpt>
      <trkpt lat="43.91214" lon="7.7111">
        <ele>558.368</ele>
        <time>2016-12-22T10:49:47Z</time>
      </trkpt>
      <trkpt lat="43.91216" lon="7.71106">
        <ele>558.742</ele>
        <time>2016-12-22T10:49:50Z</time>
      </trkpt>
      <trkpt lat="43.91215" lon="7.71099">
        <ele>558.893</ele>
        <time>2016-12-22T10:49:56Z</time>
      </trkpt>
      <trkpt lat="43.91216" lon="7.71094">
        <ele>558.941</ele>
        <time>2016-12-22T10:49:59Z</time>
      </trkpt>
      <trkpt lat="43.91217" lon="7.71088">
        <ele>559.03</ele>
        <time>2016-12-22T10:50:01Z</time>
      </trkpt>
      <trkpt lat="43.91215" lon="7.71084">
        <ele>559.577</ele>
        <time>2016-12-22T10:50:04Z</time>
      </trkpt>
      <trkpt lat="43.91215" lon="7.7108">
        <ele>560.772</ele>
        <time>2016-12-22T10:50:15Z</time>
      </trkpt>
      <trkpt lat="43.91213" lon="7.71075">
        <ele>560.681</ele>
        <time>2016-12-22T10:50:21Z</time>
      </trkpt>
      <trkpt lat="43.91213" lon="7.7107">
        <ele>560.261</ele>
        <time>2016-12-22T10:50:24Z</time>
      </trkpt>
      <trkpt lat="43.91211" lon="7.71066">
        <ele>559.679</ele>
        <time>2016-12-22T10:50:26Z</time>
      </trkpt>
      <trkpt lat="43.91212" lon="7.71062">
        <ele>559.494</ele>
        <time>2016-12-22T10:50:31Z</time>
      </trkpt>
      <trkpt lat="43.91213" lon="7.71056">
        <ele>559.572</ele>
        <time>2016-12-22T10:50:33Z</time>
      </trkpt>
      <trkpt lat="43.91215" lon="7.71053">
        <ele>559.641</ele>
        <time>2016-12-22T10:50:41Z</time>
      </trkpt>
      <trkpt lat="43.91218" lon="7.71048">
        <ele>559.204</ele>
        <time>2016-12-22T10:50:45Z</time>
      </trkpt>
      <trkpt lat="43.9122" lon="7.71044">
        <ele>559.106</ele>
        <time>2016-12-22T10:50:47Z</time>
      </trkpt>
      <trkpt lat="43.91221" lon="7.7104">
        <ele>560.271</ele>
        <time>2016-12-22T10:50:59Z</time>
      </trkpt>
      <trkpt lat="43.91221" lon="7.71036">
        <ele>560.238</ele>
        <time>2016-12-22T10:51:05Z</time>
      </trkpt>
      <trkpt lat="43.9122" lon="7.71032">
        <ele>560.248</ele>
        <time>2016-12-22T10:51:08Z</time>
      </trkpt>
      <trkpt lat="43.91219" lon="7.71028">
        <ele>560.976</ele>
        <time>2016-12-22T10:51:13Z</time>
      </trkpt>
      <trkpt lat="43.9122" lon="7.71024">
        <ele>560.787</ele>
        <time>2016-12-22T10:51:16Z</time>
      </trkpt>
      <trkpt lat="43.91219" lon="7.71019">
        <ele>560.912</ele>
        <time>2016-12-22T10:51:22Z</time>
      </trkpt>
      <trkpt lat="43.91218" lon="7.71015">
        <ele>562.001</ele>
        <time>2016-12-22T10:51:35Z</time>
      </trkpt>
      <trkpt lat="43.91216" lon="7.71012">
        <ele>564.144</ele>
        <time>2016-12-22T10:51:48Z</time>
      </trkpt>
      <trkpt lat="43.91217" lon="7.71007">
        <ele>563.766</ele>
        <time>2016-12-22T10:51:55Z</time>
      </trkpt>
      <trkpt lat="43.91217" lon="7.71003">
        <ele>563.093</ele>
        <time>2016-12-22T10:52:08Z</time>
      </trkpt>
      <trkpt lat="43.91218" lon="7.70999">
        <ele>562.88</ele>
        <time>2016-12-22T10:52:13Z</time>
      </trkpt>
      <trkpt lat="43.91221" lon="7.70997">
        <ele>562.845</ele>
        <time>2016-12-22T10:52:15Z</time>
      </trkpt>
      <trkpt lat="43.91223" lon="7.70994">
        <ele>562.74</ele>
        <time>2016-12-22T10:52:21Z</time>
      </trkpt>
      <trkpt lat="43.91226" lon="7.70993">
        <ele>562.722</ele>
        <time>2016-12-22T10:52:24Z</time>
      </trkpt>
      <trkpt lat="43.91228" lon="7.70996">
        <ele>562.919</ele>
        <time>2016-12-22T10:52:28Z</time>
      </trkpt>
      <trkpt lat="43.91231" lon="7.70995">
        <ele>563.268</ele>
        <time>2016-12-22T10:52:40Z</time>
      </trkpt>
      <trkpt lat="43.91232" lon="7.70992">
        <ele>563.438</ele>
        <time>2016-12-22T10:52:46Z</time>
      </trkpt>
      <trkpt lat="43.91233" lon="7.70988">
        <ele>563.389</ele>
        <time>2016-12-22T10:52:49Z</time>
      </trkpt>
      <trkpt lat="43.91235" lon="7.70984">
        <ele>563.741</ele>
        <time>2016-12-22T10:52:53Z</time>
      </trkpt>
      <trkpt lat="43.91236" lon="7.7098">
        <ele>565.569</ele>
        <time>2016-12-22T10:52:59Z</time>
      </trkpt>
      <trkpt lat="43.91238" lon="7.70977">
        <ele>566.912</ele>
        <time>2016-12-22T10:53:03Z</time>
      </trkpt>
      <trkpt lat="43.91239" lon="7.70973">
        <ele>568.464</ele>
        <time>2016-12-22T10:53:07Z</time>
      </trkpt>
      <trkpt lat="43.91241" lon="7.70968">
        <ele>570.461</ele>
        <time>2016-12-22T10:53:13Z</time>
      </trkpt>
      <trkpt lat="43.91243" lon="7.70964">
        <ele>570.895</ele>
        <time>2016-12-22T10:53:15Z</time>
      </trkpt>
      <trkpt lat="43.91245" lon="7.70961">
        <ele>571.377</ele>
        <time>2016-12-22T10:53:17Z</time>
      </trkpt>
      <trkpt lat="43.91245" lon="7.70957">
        <ele>572.7</ele>
        <time>2016-12-22T10:53:23Z</time>
      </trkpt>
      <trkpt lat="43.91245" lon="7.70953">
        <ele>574.327</ele>
        <time>2016-12-22T10:53:30Z</time>
      </trkpt>
      <trkpt lat="43.91247" lon="7.7095">
        <ele>574.693</ele>
        <time>2016-12-22T10:53:32Z</time>
      </trkpt>
      <trkpt lat="43.91251" lon="7.70951">
        <ele>576.66</ele>
        <time>2016-12-22T10:53:46Z</time>
      </trkpt>
      <trkpt lat="43.91254" lon="7.70952">
        <ele>577.588</ele>
        <time>2016-12-22T10:53:51Z</time>
      </trkpt>
      <trkpt lat="43.91256" lon="7.70954">
        <ele>578.478</ele>
        <time>2016-12-22T10:53:58Z</time>
      </trkpt>
      <trkpt lat="43.91257" lon="7.70959">
        <ele>578.518</ele>
        <time>2016-12-22T10:54:01Z</time>
      </trkpt>
      <trkpt lat="43.91258" lon="7.70963">
        <ele>578.476</ele>
        <time>2016-12-22T10:54:04Z</time>
      </trkpt>
      <trkpt lat="43.9126" lon="7.70967">
        <ele>578.552</ele>
        <time>2016-12-22T10:54:08Z</time>
      </trkpt>
      <trkpt lat="43.91263" lon="7.70965">
        <ele>578.734</ele>
        <time>2016-12-22T10:54:12Z</time>
      </trkpt>
      <trkpt lat="43.91265" lon="7.70962">
        <ele>578.673</ele>
        <time>2016-12-22T10:54:16Z</time>
      </trkpt>
      <trkpt lat="43.91268" lon="7.70961">
        <ele>578.857</ele>
        <time>2016-12-22T10:54:28Z</time>
      </trkpt>
      <trkpt lat="43.91271" lon="7.70959">
        <ele>579.385</ele>
        <time>2016-12-22T10:54:35Z</time>
      </trkpt>
      <trkpt lat="43.91275" lon="7.70959">
        <ele>580.502</ele>
        <time>2016-12-22T10:54:42Z</time>
      </trkpt>
      <trkpt lat="43.91277" lon="7.70958">
        <ele>581.001</ele>
        <time>2016-12-22T10:54:47Z</time>
      </trkpt>
      <trkpt lat="43.9128" lon="7.70957">
        <ele>581.447</ele>
        <time>2016-12-22T10:54:50Z</time>
      </trkpt>
      <trkpt lat="43.91283" lon="7.70954">
        <ele>582.244</ele>
        <time>2016-12-22T10:54:53Z</time>
      </trkpt>
      <trkpt lat="43.91284" lon="7.70952">
        <ele>583.672</ele>
        <time>2016-12-22T10:54:58Z</time>
      </trkpt>
      <trkpt lat="43.91288" lon="7.7095">
        <ele>584.055</ele>
        <time>2016-12-22T10:55:00Z</time>
      </trkpt>
      <trkpt lat="43.91291" lon="7.70948">
        <ele>584.322</ele>
        <time>2016-12-22T10:55:02Z</time>
      </trkpt>
      <trkpt lat="43.91295" lon="7.70947">
        <ele>584.511</ele>
        <time>2016-12-22T10:55:05Z</time>
      </trkpt>
      <trkpt lat="43.91298" lon="7.70948">
        <ele>584.871</ele>
        <time>2016-12-22T10:55:08Z</time>
      </trkpt>
      <trkpt lat="43.91301" lon="7.70947">
        <ele>585.114</ele>
        <time>2016-12-22T10:55:11Z</time>
      </trkpt>
      <trkpt lat="43.91304" lon="7.70948">
        <ele>585.872</ele>
        <time>2016-12-22T10:55:20Z</time>
      </trkpt>
      <trkpt lat="43.91307" lon="7.70949">
        <ele>586.513</ele>
        <time>2016-12-22T10:55:26Z</time>
      </trkpt>
      <trkpt lat="43.91311" lon="7.7095">
        <ele>586.927</ele>
        <time>2016-12-22T10:55:29Z</time>
      </trkpt>
      <trkpt lat="43.91313" lon="7.7095">
        <ele>587.4</ele>
        <time>2016-12-22T10:55:35Z</time>
      </trkpt>
      <trkpt lat="43.91316" lon="7.70952">
        <ele>588.52</ele>
        <time>2016-12-22T10:55:53Z</time>
      </trkpt>
      <trkpt lat="43.91316" lon="7.70948">
        <ele>587.879</ele>
        <time>2016-12-22T10:56:32Z</time>
      </trkpt>
      <trkpt lat="43.91313" lon="7.70949">
        <ele>588.18</ele>
        <time>2016-12-22T10:57:06Z</time>
      </trkpt>
      <trkpt lat="43.91313" lon="7.70952">
        <ele>588.491</ele>
        <time>2016-12-22T10:57:26Z</time>
      </trkpt>
      <trkpt lat="43.91315" lon="7.70956">
        <ele>588.488</ele>
        <time>2016-12-22T10:57:34Z</time>
      </trkpt>
      <trkpt lat="43.91314" lon="7.70951">
        <ele>588.37</ele>
        <time>2016-12-22T10:59:12Z</time>
      </trkpt>
      <trkpt lat="43.91313" lon="7.70948">
        <ele>588.399</ele>
        <time>2016-12-22T10:59:16Z</time>
      </trkpt>
      <trkpt lat="43.91311" lon="7.70945">
        <ele>588.497</ele>
        <time>2016-12-22T10:59:27Z</time>
      </trkpt>
      <trkpt lat="43.91311" lon="7.70949">
        <ele>588.971</ele>
        <time>2016-12-22T10:59:47Z</time>
      </trkpt>
      <trkpt lat="43.91311" lon="7.70954">
        <ele>589.048</ele>
        <time>2016-12-22T10:59:52Z</time>
      </trkpt>
      <trkpt lat="43.91313" lon="7.70957">
        <ele>589.735</ele>
        <time>2016-12-22T11:00:06Z</time>
      </trkpt>
      <trkpt lat="43.91316" lon="7.7096">
        <ele>589.641</ele>
        <time>2016-12-22T11:00:12Z</time>
      </trkpt>
      <trkpt lat="43.91319" lon="7.70962">
        <ele>589.584</ele>
        <time>2016-12-22T11:00:17Z</time>
      </trkpt>
      <trkpt lat="43.91322" lon="7.70962">
        <ele>589.511</ele>
        <time>2016-12-22T11:00:22Z</time>
      </trkpt>
      <trkpt lat="43.91325" lon="7.70962">
        <ele>589.436</ele>
        <time>2016-12-22T11:00:26Z</time>
      </trkpt>
      <trkpt lat="43.91322" lon="7.70959">
        <ele>588.33</ele>
        <time>2016-12-22T11:00:45Z</time>
      </trkpt>
      <trkpt lat="43.91319" lon="7.70957">
        <ele>588.237</ele>
        <time>2016-12-22T11:00:48Z</time>
      </trkpt>
      <trkpt lat="43.91317" lon="7.70959">
        <ele>587.989</ele>
        <time>2016-12-22T11:00:58Z</time>
      </trkpt>
      <trkpt lat="43.91316" lon="7.70955">
        <ele>587.816</ele>
        <time>2016-12-22T11:01:06Z</time>
      </trkpt>
      <trkpt lat="43.91315" lon="7.70958">
        <ele>587.72</ele>
        <time>2016-12-22T11:01:42Z</time>
      </trkpt>
      <trkpt lat="43.91317" lon="7.70956">
        <ele>587.59</ele>
        <time>2016-12-22T11:02:05Z</time>
      </trkpt>
      <trkpt lat="43.9132" lon="7.70954">
        <ele>587.401</ele>
        <time>2016-12-22T11:02:21Z</time>
      </trkpt>
      <trkpt lat="43.91321" lon="7.70951">
        <ele>586.95</ele>
        <time>2016-12-22T11:02:30Z</time>
      </trkpt>
      <trkpt lat="43.91323" lon="7.70954">
        <ele>586.432</ele>
        <time>2016-12-22T11:02:41Z</time>
      </trkpt>
      <trkpt lat="43.91321" lon="7.70951">
        <ele>592.541</ele>
        <time>2016-12-22T11:05:37Z</time>
      </trkpt>
      <trkpt lat="43.91319" lon="7.70948">
        <ele>592.643</ele>
        <time>2016-12-22T11:05:42Z</time>
      </trkpt>
      <trkpt lat="43.91317" lon="7.70946">
        <ele>592.146</ele>
        <time>2016-12-22T11:07:10Z</time>
      </trkpt>
      <trkpt lat="43.91314" lon="7.70945">
        <ele>592.12</ele>
        <time>2016-12-22T11:07:15Z</time>
      </trkpt>
      <trkpt lat="43.91313" lon="7.70948">
        <ele>593.406</ele>
        <time>2016-12-22T11:08:27Z</time>
      </trkpt>
      <trkpt lat="43.91316" lon="7.70951">
        <ele>594.425</ele>
        <time>2016-12-22T11:08:50Z</time>
      </trkpt>
      <trkpt lat="43.91319" lon="7.70951">
        <ele>595.175</ele>
        <time>2016-12-22T11:08:59Z</time>
      </trkpt>
      <trkpt lat="43.9132" lon="7.70947">
        <ele>595.224</ele>
        <time>2016-12-22T11:09:07Z</time>
      </trkpt>
      <trkpt lat="43.91317" lon="7.70948">
        <ele>600.007</ele>
        <time>2016-12-22T11:11:01Z</time>
      </trkpt>
      <trkpt lat="43.91315" lon="7.70952">
        <ele>600.373</ele>
        <time>2016-12-22T11:11:07Z</time>
      </trkpt>
      <trkpt lat="43.91314" lon="7.70956">
        <ele>600.506</ele>
        <time>2016-12-22T11:11:10Z</time>
      </trkpt>
      <trkpt lat="43.91314" lon="7.70961">
        <ele>600.599</ele>
        <time>2016-12-22T11:11:13Z</time>
      </trkpt>
      <trkpt lat="43.91314" lon="7.70964">
        <ele>599.79</ele>
        <time>2016-12-22T11:11:23Z</time>
      </trkpt>
      <trkpt lat="43.91313" lon="7.70967">
        <ele>597.936</ele>
        <time>2016-12-22T11:12:02Z</time>
      </trkpt>
      <trkpt lat="43.9131" lon="7.7097">
        <ele>597.765</ele>
        <time>2016-12-22T11:12:20Z</time>
      </trkpt>
      <trkpt lat="43.91311" lon="7.70974">
        <ele>596.684</ele>
        <time>2016-12-22T11:12:57Z</time>
      </trkpt>
      <trkpt lat="43.91311" lon="7.70978">
        <ele>596.673</ele>
        <time>2016-12-22T11:13:02Z</time>
      </trkpt>
      <trkpt lat="43.91311" lon="7.70981">
        <ele>596.771</ele>
        <time>2016-12-22T11:13:06Z</time>
      </trkpt>
      <trkpt lat="43.9131" lon="7.70985">
        <ele>596.722</ele>
        <time>2016-12-22T11:13:21Z</time>
      </trkpt>
      <trkpt lat="43.91309" lon="7.70989">
        <ele>596.695</ele>
        <time>2016-12-22T11:13:23Z</time>
      </trkpt>
      <trkpt lat="43.91309" lon="7.70993">
        <ele>596.703</ele>
        <time>2016-12-22T11:13:36Z</time>
      </trkpt>
      <trkpt lat="43.91309" lon="7.70998">
        <ele>597.049</ele>
        <time>2016-12-22T11:13:40Z</time>
      </trkpt>
      <trkpt lat="43.91309" lon="7.71002">
        <ele>597.087</ele>
        <time>2016-12-22T11:13:44Z</time>
      </trkpt>
      <trkpt lat="43.91309" lon="7.71007">
        <ele>597.098</ele>
        <time>2016-12-22T11:13:49Z</time>
      </trkpt>
      <trkpt lat="43.9131" lon="7.71011">
        <ele>597.193</ele>
        <time>2016-12-22T11:13:55Z</time>
      </trkpt>
      <trkpt lat="43.91311" lon="7.71014">
        <ele>597.119</ele>
        <time>2016-12-22T11:14:06Z</time>
      </trkpt>
      <trkpt lat="43.91311" lon="7.71018">
        <ele>597.644</ele>
        <time>2016-12-22T11:14:13Z</time>
      </trkpt>
      <trkpt lat="43.91313" lon="7.71022">
        <ele>598.429</ele>
        <time>2016-12-22T11:14:17Z</time>
      </trkpt>
      <trkpt lat="43.91313" lon="7.71027">
        <ele>599.317</ele>
        <time>2016-12-22T11:14:22Z</time>
      </trkpt>
      <trkpt lat="43.91314" lon="7.71031">
        <ele>599.383</ele>
        <time>2016-12-22T11:14:29Z</time>
      </trkpt>
      <trkpt lat="43.91316" lon="7.71035">
        <ele>599.671</ele>
        <time>2016-12-22T11:14:37Z</time>
      </trkpt>
      <trkpt lat="43.91316" lon="7.71039">
        <ele>600.481</ele>
        <time>2016-12-22T11:14:42Z</time>
      </trkpt>
      <trkpt lat="43.91319" lon="7.71041">
        <ele>601.596</ele>
        <time>2016-12-22T11:14:49Z</time>
      </trkpt>
      <trkpt lat="43.9132" lon="7.71045">
        <ele>602.424</ele>
        <time>2016-12-22T11:14:59Z</time>
      </trkpt>
      <trkpt lat="43.91321" lon="7.71049">
        <ele>602.633</ele>
        <time>2016-12-22T11:15:05Z</time>
      </trkpt>
      <trkpt lat="43.91322" lon="7.71053">
        <ele>602.715</ele>
        <time>2016-12-22T11:15:11Z</time>
      </trkpt>
      <trkpt lat="43.91322" lon="7.71056">
        <ele>603.154</ele>
        <time>2016-12-22T11:15:19Z</time>
      </trkpt>
      <trkpt lat="43.91321" lon="7.7106">
        <ele>603.852</ele>
        <time>2016-12-22T11:15:34Z</time>
      </trkpt>
      <trkpt lat="43.91319" lon="7.71057">
        <ele>604.75</ele>
        <time>2016-12-22T11:16:00Z</time>
      </trkpt>
      <trkpt lat="43.91318" lon="7.71053">
        <ele>604.805</ele>
        <time>2016-12-22T11:16:04Z</time>
      </trkpt>
      <trkpt lat="43.91315" lon="7.71058">
        <ele>605.02</ele>
        <time>2016-12-22T11:16:10Z</time>
      </trkpt>
      <trkpt lat="43.91316" lon="7.71062">
        <ele>605.397</ele>
        <time>2016-12-22T11:16:15Z</time>
      </trkpt>
      <trkpt lat="43.91317" lon="7.71066">
        <ele>606.052</ele>
        <time>2016-12-22T11:16:19Z</time>
      </trkpt>
      <trkpt lat="43.91319" lon="7.7107">
        <ele>606.334</ele>
        <time>2016-12-22T11:16:21Z</time>
      </trkpt>
      <trkpt lat="43.91321" lon="7.71074">
        <ele>606.766</ele>
        <time>2016-12-22T11:16:24Z</time>
      </trkpt>
      <trkpt lat="43.91323" lon="7.71078">
        <ele>606.978</ele>
        <time>2016-12-22T11:16:26Z</time>
      </trkpt>
      <trkpt lat="43.91325" lon="7.71081">
        <ele>607.121</ele>
        <time>2016-12-22T11:16:28Z</time>
      </trkpt>
      <trkpt lat="43.91327" lon="7.71083">
        <ele>607.066</ele>
        <time>2016-12-22T11:16:30Z</time>
      </trkpt>
      <trkpt lat="43.9133" lon="7.71086">
        <ele>607.16</ele>
        <time>2016-12-22T11:16:32Z</time>
      </trkpt>
      <trkpt lat="43.91332" lon="7.7109">
        <ele>607.139</ele>
        <time>2016-12-22T11:16:35Z</time>
      </trkpt>
      <trkpt lat="43.91334" lon="7.71093">
        <ele>607.24</ele>
        <time>2016-12-22T11:16:42Z</time>
      </trkpt>
      <trkpt lat="43.91335" lon="7.71097">
        <ele>606.994</ele>
        <time>2016-12-22T11:16:52Z</time>
      </trkpt>
      <trkpt lat="43.91337" lon="7.711">
        <ele>606.744</ele>
        <time>2016-12-22T11:17:01Z</time>
      </trkpt>
      <trkpt lat="43.91338" lon="7.71104">
        <ele>606.535</ele>
        <time>2016-12-22T11:17:10Z</time>
      </trkpt>
      <trkpt lat="43.91339" lon="7.71108">
        <ele>607.019</ele>
        <time>2016-12-22T11:17:14Z</time>
      </trkpt>
      <trkpt lat="43.91342" lon="7.71112">
        <ele>607.23</ele>
        <time>2016-12-22T11:17:16Z</time>
      </trkpt>
      <trkpt lat="43.91344" lon="7.71115">
        <ele>607.578</ele>
        <time>2016-12-22T11:17:19Z</time>
      </trkpt>
      <trkpt lat="43.91347" lon="7.71117">
        <ele>608.456</ele>
        <time>2016-12-22T11:17:29Z</time>
      </trkpt>
      <trkpt lat="43.91348" lon="7.71121">
        <ele>608.337</ele>
        <time>2016-12-22T11:17:41Z</time>
      </trkpt>
      <trkpt lat="43.91348" lon="7.71125">
        <ele>608.022</ele>
        <time>2016-12-22T11:17:48Z</time>
      </trkpt>
      <trkpt lat="43.9135" lon="7.71128">
        <ele>607.861</ele>
        <time>2016-12-22T11:17:50Z</time>
      </trkpt>
      <trkpt lat="43.91348" lon="7.71133">
        <ele>607.406</ele>
        <time>2016-12-22T11:17:54Z</time>
      </trkpt>
      <trkpt lat="43.91349" lon="7.71137">
        <ele>607.096</ele>
        <time>2016-12-22T11:17:58Z</time>
      </trkpt>
      <trkpt lat="43.91352" lon="7.71141">
        <ele>606.794</ele>
        <time>2016-12-22T11:18:01Z</time>
      </trkpt>
      <trkpt lat="43.91358" lon="7.71142">
        <ele>606.801</ele>
        <time>2016-12-22T11:18:04Z</time>
      </trkpt>
      <trkpt lat="43.91356" lon="7.71143">
        <ele>607.309</ele>
        <time>2016-12-22T11:18:24Z</time>
      </trkpt>
      <trkpt lat="43.91354" lon="7.71145">
        <ele>607.227</ele>
        <time>2016-12-22T11:18:36Z</time>
      </trkpt>
      <trkpt lat="43.9135" lon="7.71145">
        <ele>608.553</ele>
        <time>2016-12-22T11:18:44Z</time>
      </trkpt>
      <trkpt lat="43.91347" lon="7.71146">
        <ele>609.021</ele>
        <time>2016-12-22T11:18:47Z</time>
      </trkpt>
      <trkpt lat="43.91345" lon="7.71144">
        <ele>609.531</ele>
        <time>2016-12-22T11:19:07Z</time>
      </trkpt>
      <trkpt lat="43.91342" lon="7.71147">
        <ele>610.593</ele>
        <time>2016-12-22T11:19:23Z</time>
      </trkpt>
      <trkpt lat="43.91339" lon="7.71148">
        <ele>610.781</ele>
        <time>2016-12-22T11:19:25Z</time>
      </trkpt>
      <trkpt lat="43.91337" lon="7.71149">
        <ele>610.907</ele>
        <time>2016-12-22T11:19:27Z</time>
      </trkpt>
      <trkpt lat="43.91333" lon="7.71152">
        <ele>611.309</ele>
        <time>2016-12-22T11:19:33Z</time>
      </trkpt>
      <trkpt lat="43.91334" lon="7.71156">
        <ele>611.194</ele>
        <time>2016-12-22T11:19:48Z</time>
      </trkpt>
      <trkpt lat="43.91331" lon="7.71158">
        <ele>611.506</ele>
        <time>2016-12-22T11:19:56Z</time>
      </trkpt>
      <trkpt lat="43.91332" lon="7.71163">
        <ele>611.683</ele>
        <time>2016-12-22T11:20:09Z</time>
      </trkpt>
      <trkpt lat="43.91335" lon="7.71164">
        <ele>612.118</ele>
        <time>2016-12-22T11:20:30Z</time>
      </trkpt>
      <trkpt lat="43.91337" lon="7.71166">
        <ele>612.649</ele>
        <time>2016-12-22T11:20:36Z</time>
      </trkpt>
      <trkpt lat="43.9134" lon="7.71167">
        <ele>612.956</ele>
        <time>2016-12-22T11:20:38Z</time>
      </trkpt>
      <trkpt lat="43.91342" lon="7.71171">
        <ele>613.59</ele>
        <time>2016-12-22T11:20:42Z</time>
      </trkpt>
      <trkpt lat="43.91342" lon="7.71175">
        <ele>614.175</ele>
        <time>2016-12-22T11:20:54Z</time>
      </trkpt>
      <trkpt lat="43.91339" lon="7.71178">
        <ele>614.246</ele>
        <time>2016-12-22T11:20:58Z</time>
      </trkpt>
      <trkpt lat="43.91339" lon="7.71182">
        <ele>614.473</ele>
        <time>2016-12-22T11:21:08Z</time>
      </trkpt>
      <trkpt lat="43.91341" lon="7.71184">
        <ele>614.532</ele>
        <time>2016-12-22T11:21:14Z</time>
      </trkpt>
      <trkpt lat="43.91344" lon="7.71185">
        <ele>613.81</ele>
        <time>2016-12-22T11:21:23Z</time>
      </trkpt>
      <trkpt lat="43.91347" lon="7.71186">
        <ele>612.618</ele>
        <time>2016-12-22T11:21:38Z</time>
      </trkpt>
      <trkpt lat="43.91351" lon="7.71187">
        <ele>612.106</ele>
        <time>2016-12-22T11:21:42Z</time>
      </trkpt>
      <trkpt lat="43.91353" lon="7.71186">
        <ele>611.591</ele>
        <time>2016-12-22T11:21:48Z</time>
      </trkpt>
      <trkpt lat="43.91353" lon="7.71181">
        <ele>611.338</ele>
        <time>2016-12-22T11:21:59Z</time>
      </trkpt>
      <trkpt lat="43.91353" lon="7.71177">
        <ele>610.592</ele>
        <time>2016-12-22T11:22:08Z</time>
      </trkpt>
      <trkpt lat="43.91352" lon="7.71174">
        <ele>610.227</ele>
        <time>2016-12-22T11:22:15Z</time>
      </trkpt>
      <trkpt lat="43.91349" lon="7.71178">
        <ele>609.539</ele>
        <time>2016-12-22T11:22:51Z</time>
      </trkpt>
      <trkpt lat="43.91347" lon="7.71182">
        <ele>609.52</ele>
        <time>2016-12-22T11:22:55Z</time>
      </trkpt>
      <trkpt lat="43.91348" lon="7.71185">
        <ele>613.323</ele>
        <time>2016-12-22T11:26:02Z</time>
      </trkpt>
      <trkpt lat="43.91351" lon="7.71183">
        <ele>613.401</ele>
        <time>2016-12-22T11:26:06Z</time>
      </trkpt>
      <trkpt lat="43.9135" lon="7.71188">
        <ele>613.888</ele>
        <time>2016-12-22T11:26:48Z</time>
      </trkpt>
      <trkpt lat="43.91351" lon="7.71191">
        <ele>614.123</ele>
        <time>2016-12-22T11:26:55Z</time>
      </trkpt>
      <trkpt lat="43.9135" lon="7.71195">
        <ele>614.502</ele>
        <time>2016-12-22T11:27:04Z</time>
      </trkpt>
      <trkpt lat="43.91348" lon="7.71198">
        <ele>614.824</ele>
        <time>2016-12-22T11:27:12Z</time>
      </trkpt>
      <trkpt lat="43.91349" lon="7.71194">
        <ele>614.893</ele>
        <time>2016-12-22T11:27:22Z</time>
      </trkpt>
      <trkpt lat="43.91346" lon="7.71194">
        <ele>615.154</ele>
        <time>2016-12-22T11:27:30Z</time>
      </trkpt>
      <trkpt lat="43.91343" lon="7.71196">
        <ele>615.396</ele>
        <time>2016-12-22T11:27:35Z</time>
      </trkpt>
      <trkpt lat="43.91341" lon="7.71199">
        <ele>618.68</ele>
        <time>2016-12-22T11:28:11Z</time>
      </trkpt>
      <trkpt lat="43.91339" lon="7.71201">
        <ele>618.927</ele>
        <time>2016-12-22T11:28:15Z</time>
      </trkpt>
      <trkpt lat="43.91339" lon="7.71196">
        <ele>619.008</ele>
        <time>2016-12-22T11:28:21Z</time>
      </trkpt>
      <trkpt lat="43.9134" lon="7.71192">
        <ele>618.936</ele>
        <time>2016-12-22T11:28:24Z</time>
      </trkpt>
      <trkpt lat="43.91338" lon="7.71189">
        <ele>618.775</ele>
        <time>2016-12-22T11:28:29Z</time>
      </trkpt>
      <trkpt lat="43.9134" lon="7.71185">
        <ele>618.567</ele>
        <time>2016-12-22T11:28:36Z</time>
      </trkpt>
      <trkpt lat="43.91342" lon="7.71184">
        <ele>618.454</ele>
        <time>2016-12-22T11:28:40Z</time>
      </trkpt>
      <trkpt lat="43.91345" lon="7.71184">
        <ele>618.15</ele>
        <time>2016-12-22T11:28:54Z</time>
      </trkpt>
      <trkpt lat="43.91342" lon="7.71183">
        <ele>618.405</ele>
        <time>2016-12-22T11:29:48Z</time>
      </trkpt>
      <trkpt lat="43.9134" lon="7.71183">
        <ele>618.426</ele>
        <time>2016-12-22T11:29:54Z</time>
      </trkpt>
      <trkpt lat="43.91337" lon="7.71185">
        <ele>618.509</ele>
        <time>2016-12-22T11:30:07Z</time>
      </trkpt>
      <trkpt lat="43.9134" lon="7.71188">
        <ele>618.985</ele>
        <time>2016-12-22T11:30:33Z</time>
      </trkpt>
      <trkpt lat="43.91342" lon="7.71189">
        <ele>619.024</ele>
        <time>2016-12-22T11:30:38Z</time>
      </trkpt>
      <trkpt lat="43.91345" lon="7.71191">
        <ele>619.048</ele>
        <time>2016-12-22T11:30:43Z</time>
      </trkpt>
      <trkpt lat="43.91348" lon="7.71193">
        <ele>619.071</ele>
        <time>2016-12-22T11:30:52Z</time>
      </trkpt>
      <trkpt lat="43.91351" lon="7.71194">
        <ele>618.928</ele>
        <time>2016-12-22T11:30:59Z</time>
      </trkpt>
      <trkpt lat="43.91353" lon="7.71194">
        <ele>618.775</ele>
        <time>2016-12-22T11:31:04Z</time>
      </trkpt>
      <trkpt lat="43.91356" lon="7.71193">
        <ele>618.632</ele>
        <time>2016-12-22T11:31:08Z</time>
      </trkpt>
      <trkpt lat="43.91359" lon="7.71192">
        <ele>618.438</ele>
        <time>2016-12-22T11:31:13Z</time>
      </trkpt>
      <trkpt lat="43.91356" lon="7.71191">
        <ele>617.54</ele>
        <time>2016-12-22T11:31:31Z</time>
      </trkpt>
      <trkpt lat="43.91353" lon="7.71192">
        <ele>617.162</ele>
        <time>2016-12-22T11:31:39Z</time>
      </trkpt>
      <trkpt lat="43.91351" lon="7.7119">
        <ele>616.998</ele>
        <time>2016-12-22T11:31:47Z</time>
      </trkpt>
      <trkpt lat="43.91349" lon="7.71187">
        <ele>617.073</ele>
        <time>2016-12-22T11:31:59Z</time>
      </trkpt>
      <trkpt lat="43.91347" lon="7.71185">
        <ele>617.414</ele>
        <time>2016-12-22T11:32:20Z</time>
      </trkpt>
      <trkpt lat="43.91344" lon="7.71183">
        <ele>617.429</ele>
        <time>2016-12-22T11:32:23Z</time>
      </trkpt>
      <trkpt lat="43.9134" lon="7.71182">
        <ele>617.469</ele>
        <time>2016-12-22T11:32:27Z</time>
      </trkpt>
      <trkpt lat="43.91337" lon="7.71181">
        <ele>617.495</ele>
        <time>2016-12-22T11:32:29Z</time>
      </trkpt>
      <trkpt lat="43.91333" lon="7.71182">
        <ele>617.536</ele>
        <time>2016-12-22T11:32:33Z</time>
      </trkpt>
      <trkpt lat="43.91336" lon="7.7118">
        <ele>617.865</ele>
        <time>2016-12-22T11:32:59Z</time>
      </trkpt>
      <trkpt lat="43.91338" lon="7.71182">
        <ele>616.381</ele>
        <time>2016-12-22T11:37:46Z</time>
      </trkpt>
      <trkpt lat="43.9134" lon="7.71186">
        <ele>616.413</ele>
        <time>2016-12-22T11:37:49Z</time>
      </trkpt>
      <trkpt lat="43.91343" lon="7.71185">
        <ele>616.387</ele>
        <time>2016-12-22T11:37:55Z</time>
      </trkpt>
      <trkpt lat="43.91346" lon="7.71185">
        <ele>616.273</ele>
        <time>2016-12-22T11:38:02Z</time>
      </trkpt>
      <trkpt lat="43.91349" lon="7.71184">
        <ele>616.168</ele>
        <time>2016-12-22T11:38:10Z</time>
      </trkpt>
      <trkpt lat="43.91353" lon="7.71185">
        <ele>614.877</ele>
        <time>2016-12-22T11:41:28Z</time>
      </trkpt>
      <trkpt lat="43.9135" lon="7.71183">
        <ele>615.26</ele>
        <time>2016-12-22T11:42:03Z</time>
      </trkpt>
      <trkpt lat="43.91347" lon="7.71184">
        <ele>615.992</ele>
        <time>2016-12-22T11:42:22Z</time>
      </trkpt>
      <trkpt lat="43.91344" lon="7.71184">
        <ele>616.004</ele>
        <time>2016-12-22T11:42:35Z</time>
      </trkpt>
      <trkpt lat="43.91346" lon="7.71189">
        <ele>616.503</ele>
        <time>2016-12-22T11:43:21Z</time>
      </trkpt>
      <trkpt lat="43.91347" lon="7.71185">
        <ele>617.558</ele>
        <time>2016-12-22T11:43:52Z</time>
      </trkpt>
      <trkpt lat="43.91345" lon="7.71188">
        <ele>617.302</ele>
        <time>2016-12-22T11:44:08Z</time>
      </trkpt>
      <trkpt lat="43.91347" lon="7.7119">
        <ele>617.155</ele>
        <time>2016-12-22T11:44:40Z</time>
      </trkpt>
      <trkpt lat="43.9135" lon="7.71192">
        <ele>617.139</ele>
        <time>2016-12-22T11:44:47Z</time>
      </trkpt>
      <trkpt lat="43.9135" lon="7.71188">
        <ele>616.695</ele>
        <time>2016-12-22T11:45:16Z</time>
      </trkpt>
      <trkpt lat="43.91352" lon="7.71186">
        <ele>617.26</ele>
        <time>2016-12-22T11:45:52Z</time>
      </trkpt>
      <trkpt lat="43.91351" lon="7.71183">
        <ele>616.9</ele>
        <time>2016-12-22T11:46:03Z</time>
      </trkpt>
      <trkpt lat="43.91349" lon="7.7118">
        <ele>616.631</ele>
        <time>2016-12-22T11:46:11Z</time>
      </trkpt>
      <trkpt lat="43.91346" lon="7.71182">
        <ele>616.456</ele>
        <time>2016-12-22T11:46:19Z</time>
      </trkpt>
      <trkpt lat="43.91344" lon="7.71184">
        <ele>616.392</ele>
        <time>2016-12-22T11:46:24Z</time>
      </trkpt>
      <trkpt lat="43.91343" lon="7.71188">
        <ele>616.495</ele>
        <time>2016-12-22T11:46:50Z</time>
      </trkpt>
      <trkpt lat="43.91344" lon="7.71192">
        <ele>617.262</ele>
        <time>2016-12-22T11:47:43Z</time>
      </trkpt>
      <trkpt lat="43.91346" lon="7.71192">
        <ele>618.821</ele>
        <time>2016-12-22T11:48:07Z</time>
      </trkpt>
      <trkpt lat="43.91347" lon="7.71188">
        <ele>618.733</ele>
        <time>2016-12-22T11:48:16Z</time>
      </trkpt>
      <trkpt lat="43.91347" lon="7.71192">
        <ele>618.435</ele>
        <time>2016-12-22T11:49:31Z</time>
      </trkpt>
      <trkpt lat="43.91345" lon="7.71189">
        <ele>618.887</ele>
        <time>2016-12-22T11:50:04Z</time>
      </trkpt>
      <trkpt lat="43.91343" lon="7.71186">
        <ele>618.802</ele>
        <time>2016-12-22T11:50:14Z</time>
      </trkpt>
      <trkpt lat="43.9134" lon="7.71188">
        <ele>618.905</ele>
        <time>2016-12-22T11:50:20Z</time>
      </trkpt>
      <trkpt lat="43.91342" lon="7.71191">
        <ele>619.431</ele>
        <time>2016-12-22T11:50:33Z</time>
      </trkpt>
      <trkpt lat="43.91345" lon="7.71192">
        <ele>619.619</ele>
        <time>2016-12-22T11:50:40Z</time>
      </trkpt>
      <trkpt lat="43.91347" lon="7.71189">
        <ele>619.665</ele>
        <time>2016-12-22T11:50:51Z</time>
      </trkpt>
      <trkpt lat="43.91348" lon="7.71185">
        <ele>619.536</ele>
        <time>2016-12-22T11:50:59Z</time>
      </trkpt>
      <trkpt lat="43.91348" lon="7.7118">
        <ele>619.281</ele>
        <time>2016-12-22T11:51:09Z</time>
      </trkpt>
      <trkpt lat="43.91346" lon="7.71177">
        <ele>619.089</ele>
        <time>2016-12-22T11:51:15Z</time>
      </trkpt>
      <trkpt lat="43.91348" lon="7.7118">
        <ele>618.727</ele>
        <time>2016-12-22T11:51:33Z</time>
      </trkpt>
      <trkpt lat="43.91348" lon="7.71184">
        <ele>618.548</ele>
        <time>2016-12-22T11:51:45Z</time>
      </trkpt>
      <trkpt lat="43.91348" lon="7.71188">
        <ele>618.058</ele>
        <time>2016-12-22T11:52:16Z</time>
      </trkpt>
      <trkpt lat="43.91346" lon="7.71189">
        <ele>618.06</ele>
        <time>2016-12-22T11:52:32Z</time>
      </trkpt>
      <trkpt lat="43.91343" lon="7.71191">
        <ele>618.161</ele>
        <time>2016-12-22T11:52:49Z</time>
      </trkpt>
      <trkpt lat="43.91345" lon="7.71188">
        <ele>618.231</ele>
        <time>2016-12-22T11:53:15Z</time>
      </trkpt>
      <trkpt lat="43.91347" lon="7.71187">
        <ele>618.031</ele>
        <time>2016-12-22T11:53:30Z</time>
      </trkpt>
      <trkpt lat="43.91344" lon="7.71188">
        <ele>617.67</ele>
        <time>2016-12-22T11:54:06Z</time>
      </trkpt>
      <trkpt lat="43.91343" lon="7.7119">
        <ele>617.722</ele>
        <time>2016-12-22T11:54:09Z</time>
      </trkpt>
      <trkpt lat="43.91344" lon="7.71194">
        <ele>618.162</ele>
        <time>2016-12-22T11:54:33Z</time>
      </trkpt>
      <trkpt lat="43.91341" lon="7.71194">
        <ele>618.828</ele>
        <time>2016-12-22T11:54:53Z</time>
      </trkpt>
      <trkpt lat="43.91343" lon="7.71198">
        <ele>620.123</ele>
        <time>2016-12-22T11:55:32Z</time>
      </trkpt>
      <trkpt lat="43.91345" lon="7.712">
        <ele>620.249</ele>
        <time>2016-12-22T11:55:38Z</time>
      </trkpt>
      <trkpt lat="43.91346" lon="7.71196">
        <ele>620.803</ele>
        <time>2016-12-22T11:56:06Z</time>
      </trkpt>
      <trkpt lat="43.91343" lon="7.71194">
        <ele>620.748</ele>
        <time>2016-12-22T11:56:13Z</time>
      </trkpt>
      <trkpt lat="43.91344" lon="7.7119">
        <ele>620.812</ele>
        <time>2016-12-22T11:56:22Z</time>
      </trkpt>
      <trkpt lat="43.91346" lon="7.71186">
        <ele>620.95</ele>
        <time>2016-12-22T11:56:27Z</time>
      </trkpt>
      <trkpt lat="43.91349" lon="7.71184">
        <ele>620.957</ele>
        <time>2016-12-22T11:56:32Z</time>
      </trkpt>
      <trkpt lat="43.9135" lon="7.71181">
        <ele>620.781</ele>
        <time>2016-12-22T11:56:40Z</time>
      </trkpt>
      <trkpt lat="43.91353" lon="7.71179">
        <ele>620.683</ele>
        <time>2016-12-22T11:56:45Z</time>
      </trkpt>
      <trkpt lat="43.91351" lon="7.71182">
        <ele>620.69</ele>
        <time>2016-12-22T11:57:18Z</time>
      </trkpt>
      <trkpt lat="43.91347" lon="7.71185">
        <ele>620.737</ele>
        <time>2016-12-22T11:57:21Z</time>
      </trkpt>
      <trkpt lat="43.91344" lon="7.71186">
        <ele>620.768</ele>
        <time>2016-12-22T11:57:23Z</time>
      </trkpt>
      <trkpt lat="43.91342" lon="7.71187">
        <ele>620.846</ele>
        <time>2016-12-22T11:57:28Z</time>
      </trkpt>
      <trkpt lat="43.91345" lon="7.71188">
        <ele>620.556</ele>
        <time>2016-12-22T11:57:51Z</time>
      </trkpt>
      <trkpt lat="43.91344" lon="7.71183">
        <ele>617.591</ele>
        <time>2016-12-22T11:58:28Z</time>
      </trkpt>
      <trkpt lat="43.91347" lon="7.71181">
        <ele>616.421</ele>
        <time>2016-12-22T11:58:33Z</time>
      </trkpt>
      <trkpt lat="43.91349" lon="7.71179">
        <ele>614.599</ele>
        <time>2016-12-22T11:58:37Z</time>
      </trkpt>
      <trkpt lat="43.91352" lon="7.71178">
        <ele>613.845</ele>
        <time>2016-12-22T11:58:42Z</time>
      </trkpt>
      <trkpt lat="43.91354" lon="7.71181">
        <ele>613.429</ele>
        <time>2016-12-22T12:00:15Z</time>
      </trkpt>
      <trkpt lat="43.91353" lon="7.71184">
        <ele>613.75</ele>
        <time>2016-12-22T12:01:02Z</time>
      </trkpt>
      <trkpt lat="43.91354" lon="7.71189">
        <ele>613.729</ele>
        <time>2016-12-22T12:01:10Z</time>
      </trkpt>
      <trkpt lat="43.91355" lon="7.71193">
        <ele>613.879</ele>
        <time>2016-12-22T12:01:19Z</time>
      </trkpt>
      <trkpt lat="43.91351" lon="7.71194">
        <ele>613.707</ele>
        <time>2016-12-22T12:01:26Z</time>
      </trkpt>
      <trkpt lat="43.91349" lon="7.71192">
        <ele>613.323</ele>
        <time>2016-12-22T12:01:40Z</time>
      </trkpt>
      <trkpt lat="43.91348" lon="7.71188">
        <ele>613.377</ele>
        <time>2016-12-22T12:01:48Z</time>
      </trkpt>
      <trkpt lat="43.91347" lon="7.71191">
        <ele>613.166</ele>
        <time>2016-12-22T12:02:02Z</time>
      </trkpt>
      <trkpt lat="43.91344" lon="7.71193">
        <ele>611.597</ele>
        <time>2016-12-22T12:02:48Z</time>
      </trkpt>
      <trkpt lat="43.91344" lon="7.71198">
        <ele>611.62</ele>
        <time>2016-12-22T12:02:53Z</time>
      </trkpt>
      <trkpt lat="43.91341" lon="7.712">
        <ele>612.755</ele>
        <time>2016-12-22T12:03:17Z</time>
      </trkpt>
      <trkpt lat="43.91342" lon="7.71204">
        <ele>612.194</ele>
        <time>2016-12-22T12:03:21Z</time>
      </trkpt>
      <trkpt lat="43.91342" lon="7.71208">
        <ele>610.018</ele>
        <time>2016-12-22T12:03:58Z</time>
      </trkpt>
      <trkpt lat="43.9134" lon="7.71209">
        <ele>618.685</ele>
        <time>2016-12-22T12:16:20Z</time>
      </trkpt>
      <trkpt lat="43.91337" lon="7.71209">
        <ele>618.681</ele>
        <time>2016-12-22T12:16:22Z</time>
      </trkpt>
      <trkpt lat="43.91334" lon="7.71209">
        <ele>618.673</ele>
        <time>2016-12-22T12:16:26Z</time>
      </trkpt>
      <trkpt lat="43.91331" lon="7.71206">
        <ele>618.692</ele>
        <time>2016-12-22T12:16:30Z</time>
      </trkpt>
      <trkpt lat="43.91328" lon="7.71205">
        <ele>618.77</ele>
        <time>2016-12-22T12:16:36Z</time>
      </trkpt>
      <trkpt lat="43.91326" lon="7.71206">
        <ele>615.482</ele>
        <time>2016-12-22T12:32:15Z</time>
      </trkpt>
      <trkpt lat="43.91323" lon="7.71208">
        <ele>602.896</ele>
        <time>2016-12-22T12:36:05Z</time>
      </trkpt>
      <trkpt lat="43.91322" lon="7.71212">
        <ele>602.081</ele>
        <time>2016-12-22T12:37:06Z</time>
      </trkpt>
      <trkpt lat="43.91321" lon="7.71217">
        <ele>598.166</ele>
        <time>2016-12-22T12:38:04Z</time>
      </trkpt>
      <trkpt lat="43.91322" lon="7.71221">
        <ele>598.055</ele>
        <time>2016-12-22T12:38:10Z</time>
      </trkpt>
      <trkpt lat="43.91323" lon="7.71225">
        <ele>597.768</ele>
        <time>2016-12-22T12:38:21Z</time>
      </trkpt>
      <trkpt lat="43.91323" lon="7.7123">
        <ele>597.511</ele>
        <time>2016-12-22T12:38:23Z</time>
      </trkpt>
      <trkpt lat="43.9132" lon="7.71231">
        <ele>598.613</ele>
        <time>2016-12-22T12:38:44Z</time>
      </trkpt>
      <trkpt lat="43.91322" lon="7.71234">
        <ele>599.741</ele>
        <time>2016-12-22T12:39:00Z</time>
      </trkpt>
      <trkpt lat="43.91325" lon="7.71236">
        <ele>597.493</ele>
        <time>2016-12-22T12:39:31Z</time>
      </trkpt>
      <trkpt lat="43.91328" lon="7.71238">
        <ele>597.33</ele>
        <time>2016-12-22T12:39:32Z</time>
      </trkpt>
      <trkpt lat="43.9133" lon="7.71242">
        <ele>596.898</ele>
        <time>2016-12-22T12:39:35Z</time>
      </trkpt>
      <trkpt lat="43.91333" lon="7.71245">
        <ele>596.583</ele>
        <time>2016-12-22T12:39:40Z</time>
      </trkpt>
      <trkpt lat="43.91336" lon="7.71249">
        <ele>596.181</ele>
        <time>2016-12-22T12:39:44Z</time>
      </trkpt>
      <trkpt lat="43.91337" lon="7.71253">
        <ele>596.22</ele>
        <time>2016-12-22T12:39:46Z</time>
      </trkpt>
      <trkpt lat="43.91338" lon="7.71258">
        <ele>596.751</ele>
        <time>2016-12-22T12:39:58Z</time>
      </trkpt>
      <trkpt lat="43.9134" lon="7.71261">
        <ele>597.128</ele>
        <time>2016-12-22T12:40:12Z</time>
      </trkpt>
      <trkpt lat="43.91338" lon="7.71269">
        <ele>598.441</ele>
        <time>2016-12-22T12:41:21Z</time>
      </trkpt>
      <trkpt lat="43.91341" lon="7.71271">
        <ele>598.25</ele>
        <time>2016-12-22T12:41:37Z</time>
      </trkpt>
      <trkpt lat="43.91343" lon="7.71275">
        <ele>599.114</ele>
        <time>2016-12-22T12:41:59Z</time>
      </trkpt>
      <trkpt lat="43.91344" lon="7.71279">
        <ele>598.401</ele>
        <time>2016-12-22T12:42:04Z</time>
      </trkpt>
      <trkpt lat="43.91344" lon="7.71284">
        <ele>597.082</ele>
        <time>2016-12-22T12:42:18Z</time>
      </trkpt>
      <trkpt lat="43.91344" lon="7.71288">
        <ele>596.652</ele>
        <time>2016-12-22T12:42:21Z</time>
      </trkpt>
      <trkpt lat="43.91344" lon="7.71292">
        <ele>596.392</ele>
        <time>2016-12-22T12:42:24Z</time>
      </trkpt>
      <trkpt lat="43.91347" lon="7.71295">
        <ele>596.752</ele>
        <time>2016-12-22T12:42:47Z</time>
      </trkpt>
      <trkpt lat="43.91348" lon="7.713">
        <ele>597.742</ele>
        <time>2016-12-22T12:42:53Z</time>
      </trkpt>
      <trkpt lat="43.91349" lon="7.71304">
        <ele>598.275</ele>
        <time>2016-12-22T12:43:27Z</time>
      </trkpt>
      <trkpt lat="43.91351" lon="7.71308">
        <ele>597.769</ele>
        <time>2016-12-22T12:43:45Z</time>
      </trkpt>
      <trkpt lat="43.91351" lon="7.71312">
        <ele>597.862</ele>
        <time>2016-12-22T12:43:56Z</time>
      </trkpt>
      <trkpt lat="43.91352" lon="7.71316">
        <ele>599.303</ele>
        <time>2016-12-22T12:44:15Z</time>
      </trkpt>
      <trkpt lat="43.9135" lon="7.71322">
        <ele>600.442</ele>
        <time>2016-12-22T12:44:48Z</time>
      </trkpt>
      <trkpt lat="43.91349" lon="7.71327">
        <ele>600.614</ele>
        <time>2016-12-22T12:44:59Z</time>
      </trkpt>
      <trkpt lat="43.91348" lon="7.71331">
        <ele>600.511</ele>
        <time>2016-12-22T12:45:01Z</time>
      </trkpt>
      <trkpt lat="43.91347" lon="7.71336">
        <ele>600.36</ele>
        <time>2016-12-22T12:45:06Z</time>
      </trkpt>
      <trkpt lat="43.91346" lon="7.71339">
        <ele>600.377</ele>
        <time>2016-12-22T12:45:08Z</time>
      </trkpt>
      <trkpt lat="43.91344" lon="7.71343">
        <ele>600.473</ele>
        <time>2016-12-22T12:45:10Z</time>
      </trkpt>
      <trkpt lat="43.91343" lon="7.71347">
        <ele>600.512</ele>
        <time>2016-12-22T12:45:16Z</time>
      </trkpt>
      <trkpt lat="43.9134" lon="7.7135">
        <ele>602.072</ele>
        <time>2016-12-22T12:45:25Z</time>
      </trkpt>
      <trkpt lat="43.91337" lon="7.71352">
        <ele>605.019</ele>
        <time>2016-12-22T12:46:17Z</time>
      </trkpt>
      <trkpt lat="43.91335" lon="7.71355">
        <ele>605.134</ele>
        <time>2016-12-22T12:46:26Z</time>
      </trkpt>
      <trkpt lat="43.91335" lon="7.71359">
        <ele>605.074</ele>
        <time>2016-12-22T12:46:33Z</time>
      </trkpt>
      <trkpt lat="43.91338" lon="7.7136">
        <ele>605.098</ele>
        <time>2016-12-22T12:46:47Z</time>
      </trkpt>
      <trkpt lat="43.91339" lon="7.71364">
        <ele>605.26</ele>
        <time>2016-12-22T12:47:04Z</time>
      </trkpt>
      <trkpt lat="43.91339" lon="7.71368">
        <ele>605.319</ele>
        <time>2016-12-22T12:47:09Z</time>
      </trkpt>
      <trkpt lat="43.91338" lon="7.71372">
        <ele>605.765</ele>
        <time>2016-12-22T12:47:16Z</time>
      </trkpt>
      <trkpt lat="43.91337" lon="7.71376">
        <ele>606.422</ele>
        <time>2016-12-22T12:47:20Z</time>
      </trkpt>
      <trkpt lat="43.91336" lon="7.7138">
        <ele>606.997</ele>
        <time>2016-12-22T12:47:24Z</time>
      </trkpt>
      <trkpt lat="43.91337" lon="7.71384">
        <ele>607.287</ele>
        <time>2016-12-22T12:47:30Z</time>
      </trkpt>
      <trkpt lat="43.91334" lon="7.71388">
        <ele>607.429</ele>
        <time>2016-12-22T12:47:36Z</time>
      </trkpt>
      <trkpt lat="43.91331" lon="7.71389">
        <ele>607.408</ele>
        <time>2016-12-22T12:47:46Z</time>
      </trkpt>
      <trkpt lat="43.91331" lon="7.71393">
        <ele>607.534</ele>
        <time>2016-12-22T12:47:52Z</time>
      </trkpt>
      <trkpt lat="43.91329" lon="7.71397">
        <ele>607.604</ele>
        <time>2016-12-22T12:47:55Z</time>
      </trkpt>
      <trkpt lat="43.91329" lon="7.71401">
        <ele>607.727</ele>
        <time>2016-12-22T12:48:03Z</time>
      </trkpt>
      <trkpt lat="43.91327" lon="7.71404">
        <ele>608.217</ele>
        <time>2016-12-22T12:48:07Z</time>
      </trkpt>
      <trkpt lat="43.91324" lon="7.71407">
        <ele>608.319</ele>
        <time>2016-12-22T12:48:12Z</time>
      </trkpt>
      <trkpt lat="43.91324" lon="7.71411">
        <ele>608.282</ele>
        <time>2016-12-22T12:48:15Z</time>
      </trkpt>
      <trkpt lat="43.91325" lon="7.71415">
        <ele>607.442</ele>
        <time>2016-12-22T12:48:32Z</time>
      </trkpt>
      <trkpt lat="43.91326" lon="7.71418">
        <ele>607.696</ele>
        <time>2016-12-22T12:48:37Z</time>
      </trkpt>
      <trkpt lat="43.91323" lon="7.71419">
        <ele>607.533</ele>
        <time>2016-12-22T12:49:09Z</time>
      </trkpt>
      <trkpt lat="43.91324" lon="7.71423">
        <ele>607.496</ele>
        <time>2016-12-22T12:49:20Z</time>
      </trkpt>
      <trkpt lat="43.91324" lon="7.71427">
        <ele>607.361</ele>
        <time>2016-12-22T12:49:29Z</time>
      </trkpt>
      <trkpt lat="43.91325" lon="7.71431">
        <ele>607.581</ele>
        <time>2016-12-22T12:49:35Z</time>
      </trkpt>
      <trkpt lat="43.91324" lon="7.71436">
        <ele>607.665</ele>
        <time>2016-12-22T12:49:43Z</time>
      </trkpt>
      <trkpt lat="43.91323" lon="7.7144">
        <ele>607.735</ele>
        <time>2016-12-22T12:49:46Z</time>
      </trkpt>
      <trkpt lat="43.91322" lon="7.71444">
        <ele>607.598</ele>
        <time>2016-12-22T12:49:49Z</time>
      </trkpt>
      <trkpt lat="43.9132" lon="7.71448">
        <ele>607.636</ele>
        <time>2016-12-22T12:49:52Z</time>
      </trkpt>
      <trkpt lat="43.91319" lon="7.71452">
        <ele>607.739</ele>
        <time>2016-12-22T12:49:56Z</time>
      </trkpt>
      <trkpt lat="43.91319" lon="7.71456">
        <ele>606.391</ele>
        <time>2016-12-22T12:50:18Z</time>
      </trkpt>
      <trkpt lat="43.91318" lon="7.7146">
        <ele>605.974</ele>
        <time>2016-12-22T12:50:29Z</time>
      </trkpt>
      <trkpt lat="43.91319" lon="7.71463">
        <ele>605.954</ele>
        <time>2016-12-22T12:50:31Z</time>
      </trkpt>
      <trkpt lat="43.9132" lon="7.7147">
        <ele>605.76</ele>
        <time>2016-12-22T12:50:35Z</time>
      </trkpt>
      <trkpt lat="43.9132" lon="7.71473">
        <ele>605.649</ele>
        <time>2016-12-22T12:50:37Z</time>
      </trkpt>
      <trkpt lat="43.91321" lon="7.71477">
        <ele>605.546</ele>
        <time>2016-12-22T12:50:40Z</time>
      </trkpt>
      <trkpt lat="43.91322" lon="7.71481">
        <ele>605.532</ele>
        <time>2016-12-22T12:50:45Z</time>
      </trkpt>
      <trkpt lat="43.91324" lon="7.71484">
        <ele>605.4</ele>
        <time>2016-12-22T12:50:50Z</time>
      </trkpt>
      <trkpt lat="43.91325" lon="7.71487">
        <ele>605.041</ele>
        <time>2016-12-22T12:50:53Z</time>
      </trkpt>
      <trkpt lat="43.91327" lon="7.71484">
        <ele>603.99</ele>
        <time>2016-12-22T12:51:02Z</time>
      </trkpt>
      <trkpt lat="43.91325" lon="7.71488">
        <ele>601.157</ele>
        <time>2016-12-22T12:51:13Z</time>
      </trkpt>
      <trkpt lat="43.91323" lon="7.71493">
        <ele>600.455</ele>
        <time>2016-12-22T12:51:18Z</time>
      </trkpt>
      <trkpt lat="43.9132" lon="7.71492">
        <ele>600.37</ele>
        <time>2016-12-22T12:51:28Z</time>
      </trkpt>
      <trkpt lat="43.91319" lon="7.71496">
        <ele>600.834</ele>
        <time>2016-12-22T12:51:33Z</time>
      </trkpt>
      <trkpt lat="43.9132" lon="7.71505">
        <ele>600.976</ele>
        <time>2016-12-22T12:51:35Z</time>
      </trkpt>
      <trkpt lat="43.91321" lon="7.71509">
        <ele>601.15</ele>
        <time>2016-12-22T12:51:37Z</time>
      </trkpt>
      <trkpt lat="43.91324" lon="7.7151">
        <ele>601.234</ele>
        <time>2016-12-22T12:51:40Z</time>
      </trkpt>
      <trkpt lat="43.91326" lon="7.71509">
        <ele>601.288</ele>
        <time>2016-12-22T12:51:47Z</time>
      </trkpt>
      <trkpt lat="43.91324" lon="7.71506">
        <ele>601.228</ele>
        <time>2016-12-22T12:51:58Z</time>
      </trkpt>
      <trkpt lat="43.91321" lon="7.71508">
        <ele>601.246</ele>
        <time>2016-12-22T12:52:02Z</time>
      </trkpt>
      <trkpt lat="43.91322" lon="7.71512">
        <ele>598.866</ele>
        <time>2016-12-22T12:54:28Z</time>
      </trkpt>
      <trkpt lat="43.91325" lon="7.71512">
        <ele>599.271</ele>
        <time>2016-12-22T12:54:46Z</time>
      </trkpt>
      <trkpt lat="43.91327" lon="7.71515">
        <ele>599.87</ele>
        <time>2016-12-22T12:55:02Z</time>
      </trkpt>
      <trkpt lat="43.91328" lon="7.71521">
        <ele>599.018</ele>
        <time>2016-12-22T12:55:11Z</time>
      </trkpt>
      <trkpt lat="43.91327" lon="7.71524">
        <ele>599.072</ele>
        <time>2016-12-22T12:55:15Z</time>
      </trkpt>
      <trkpt lat="43.9133" lon="7.71526">
        <ele>600.512</ele>
        <time>2016-12-22T12:55:54Z</time>
      </trkpt>
      <trkpt lat="43.9133" lon="7.71531">
        <ele>601.382</ele>
        <time>2016-12-22T12:56:13Z</time>
      </trkpt>
      <trkpt lat="43.91332" lon="7.71535">
        <ele>601.563</ele>
        <time>2016-12-22T12:56:15Z</time>
      </trkpt>
      <trkpt lat="43.91335" lon="7.71539">
        <ele>602.187</ele>
        <time>2016-12-22T12:56:27Z</time>
      </trkpt>
      <trkpt lat="43.91337" lon="7.71542">
        <ele>605.095</ele>
        <time>2016-12-22T12:56:37Z</time>
      </trkpt>
      <trkpt lat="43.91339" lon="7.71546">
        <ele>605.59</ele>
        <time>2016-12-22T12:56:40Z</time>
      </trkpt>
      <trkpt lat="43.91341" lon="7.71548">
        <ele>605.9</ele>
        <time>2016-12-22T12:56:43Z</time>
      </trkpt>
      <trkpt lat="43.91343" lon="7.71552">
        <ele>606.136</ele>
        <time>2016-12-22T12:56:46Z</time>
      </trkpt>
      <trkpt lat="43.91346" lon="7.71548">
        <ele>606.356</ele>
        <time>2016-12-22T12:56:55Z</time>
      </trkpt>
      <trkpt lat="43.91349" lon="7.71544">
        <ele>606.359</ele>
        <time>2016-12-22T12:56:57Z</time>
      </trkpt>
      <trkpt lat="43.91353" lon="7.71548">
        <ele>606.115</ele>
        <time>2016-12-22T12:57:10Z</time>
      </trkpt>
      <trkpt lat="43.91355" lon="7.7155">
        <ele>605.923</ele>
        <time>2016-12-22T12:57:13Z</time>
      </trkpt>
      <trkpt lat="43.91357" lon="7.71554">
        <ele>606.791</ele>
        <time>2016-12-22T12:57:45Z</time>
      </trkpt>
      <trkpt lat="43.91357" lon="7.71558">
        <ele>606.815</ele>
        <time>2016-12-22T12:57:47Z</time>
      </trkpt>
      <trkpt lat="43.91359" lon="7.71561">
        <ele>606.961</ele>
        <time>2016-12-22T12:57:52Z</time>
      </trkpt>
      <trkpt lat="43.91361" lon="7.71563">
        <ele>607.146</ele>
        <time>2016-12-22T12:57:55Z</time>
      </trkpt>
      <trkpt lat="43.91362" lon="7.71567">
        <ele>607.342</ele>
        <time>2016-12-22T12:57:57Z</time>
      </trkpt>
      <trkpt lat="43.91362" lon="7.71573">
        <ele>607.299</ele>
        <time>2016-12-22T12:58:00Z</time>
      </trkpt>
      <trkpt lat="43.91365" lon="7.71574">
        <ele>607.121</ele>
        <time>2016-12-22T12:58:02Z</time>
      </trkpt>
      <trkpt lat="43.91368" lon="7.71575">
        <ele>607.384</ele>
        <time>2016-12-22T12:58:07Z</time>
      </trkpt>
      <trkpt lat="43.91368" lon="7.7158">
        <ele>614.483</ele>
        <time>2016-12-22T13:02:48Z</time>
      </trkpt>
      <trkpt lat="43.9137" lon="7.71582">
        <ele>614.235</ele>
        <time>2016-12-22T13:04:25Z</time>
      </trkpt>
      <trkpt lat="43.91371" lon="7.71585">
        <ele>613.623</ele>
        <time>2016-12-22T13:04:36Z</time>
      </trkpt>
      <trkpt lat="43.9137" lon="7.7159">
        <ele>612.345</ele>
        <time>2016-12-22T13:04:47Z</time>
      </trkpt>
      <trkpt lat="43.91371" lon="7.71594">
        <ele>614.495</ele>
        <time>2016-12-22T13:05:14Z</time>
      </trkpt>
      <trkpt lat="43.91373" lon="7.71597">
        <ele>615.104</ele>
        <time>2016-12-22T13:05:19Z</time>
      </trkpt>
      <trkpt lat="43.91376" lon="7.71599">
        <ele>614.835</ele>
        <time>2016-12-22T13:05:53Z</time>
      </trkpt>
      <trkpt lat="43.91378" lon="7.71603">
        <ele>615.38</ele>
        <time>2016-12-22T13:05:56Z</time>
      </trkpt>
      <trkpt lat="43.91378" lon="7.71608">
        <ele>616.103</ele>
        <time>2016-12-22T13:06:02Z</time>
      </trkpt>
      <trkpt lat="43.91382" lon="7.71609">
        <ele>616.483</ele>
        <time>2016-12-22T13:06:04Z</time>
      </trkpt>
      <trkpt lat="43.91384" lon="7.71612">
        <ele>616.863</ele>
        <time>2016-12-22T13:06:06Z</time>
      </trkpt>
      <trkpt lat="43.91386" lon="7.71615">
        <ele>619.084</ele>
        <time>2016-12-22T13:06:20Z</time>
      </trkpt>
      <trkpt lat="43.91389" lon="7.71616">
        <ele>619.75</ele>
        <time>2016-12-22T13:06:23Z</time>
      </trkpt>
      <trkpt lat="43.91392" lon="7.71617">
        <ele>618.819</ele>
        <time>2016-12-22T13:07:03Z</time>
      </trkpt>
      <trkpt lat="43.91391" lon="7.71621">
        <ele>617.601</ele>
        <time>2016-12-22T13:07:55Z</time>
      </trkpt>
      <trkpt lat="43.91393" lon="7.71624">
        <ele>619.513</ele>
        <time>2016-12-22T13:08:47Z</time>
      </trkpt>
      <trkpt lat="43.91395" lon="7.71626">
        <ele>619.844</ele>
        <time>2016-12-22T13:08:51Z</time>
      </trkpt>
      <trkpt lat="43.91398" lon="7.71629">
        <ele>622.308</ele>
        <time>2016-12-22T13:09:09Z</time>
      </trkpt>
      <trkpt lat="43.914" lon="7.71637">
        <ele>619.185</ele>
        <time>2016-12-22T13:11:52Z</time>
      </trkpt>
      <trkpt lat="43.91403" lon="7.71638">
        <ele>619.171</ele>
        <time>2016-12-22T13:12:01Z</time>
      </trkpt>
      <trkpt lat="43.91406" lon="7.71638">
        <ele>619.792</ele>
        <time>2016-12-22T13:12:12Z</time>
      </trkpt>
      <trkpt lat="43.9141" lon="7.71638">
        <ele>619.751</ele>
        <time>2016-12-22T13:12:19Z</time>
      </trkpt>
      <trkpt lat="43.91413" lon="7.71638">
        <ele>620.037</ele>
        <time>2016-12-22T13:12:22Z</time>
      </trkpt>
      <trkpt lat="43.91415" lon="7.71642">
        <ele>621.532</ele>
        <time>2016-12-22T13:12:37Z</time>
      </trkpt>
      <trkpt lat="43.91418" lon="7.71643">
        <ele>622.249</ele>
        <time>2016-12-22T13:12:41Z</time>
      </trkpt>
      <trkpt lat="43.9142" lon="7.71645">
        <ele>622.8</ele>
        <time>2016-12-22T13:12:45Z</time>
      </trkpt>
      <trkpt lat="43.91422" lon="7.71649">
        <ele>621.129</ele>
        <time>2016-12-22T13:13:15Z</time>
      </trkpt>
      <trkpt lat="43.91427" lon="7.7165">
        <ele>620.817</ele>
        <time>2016-12-22T13:13:17Z</time>
      </trkpt>
      <trkpt lat="43.91429" lon="7.71653">
        <ele>619.227</ele>
        <time>2016-12-22T13:13:38Z</time>
      </trkpt>
      <trkpt lat="43.9143" lon="7.71657">
        <ele>619.207</ele>
        <time>2016-12-22T13:13:40Z</time>
      </trkpt>
      <trkpt lat="43.91431" lon="7.71662">
        <ele>619.233</ele>
        <time>2016-12-22T13:13:42Z</time>
      </trkpt>
      <trkpt lat="43.91431" lon="7.71666">
        <ele>619.473</ele>
        <time>2016-12-22T13:14:09Z</time>
      </trkpt>
      <trkpt lat="43.91432" lon="7.7167">
        <ele>618.469</ele>
        <time>2016-12-22T13:14:24Z</time>
      </trkpt>
      <trkpt lat="43.91436" lon="7.71672">
        <ele>617.793</ele>
        <time>2016-12-22T13:14:37Z</time>
      </trkpt>
      <trkpt lat="43.91437" lon="7.71676">
        <ele>617.624</ele>
        <time>2016-12-22T13:14:48Z</time>
      </trkpt>
      <trkpt lat="43.91439" lon="7.71678">
        <ele>617.424</ele>
        <time>2016-12-22T13:14:50Z</time>
      </trkpt>
      <trkpt lat="43.91442" lon="7.71679">
        <ele>617.35</ele>
        <time>2016-12-22T13:14:55Z</time>
      </trkpt>
      <trkpt lat="43.91443" lon="7.71684">
        <ele>620.491</ele>
        <time>2016-12-22T13:15:33Z</time>
      </trkpt>
      <trkpt lat="43.91444" lon="7.71689">
        <ele>623.225</ele>
        <time>2016-12-22T13:15:50Z</time>
      </trkpt>
      <trkpt lat="43.91442" lon="7.71692">
        <ele>624.148</ele>
        <time>2016-12-22T13:16:22Z</time>
      </trkpt>
      <trkpt lat="43.91442" lon="7.71696">
        <ele>630.803</ele>
        <time>2016-12-22T13:16:59Z</time>
      </trkpt>
      <trkpt lat="43.91446" lon="7.71699">
        <ele>625.333</ele>
        <time>2016-12-22T13:17:42Z</time>
      </trkpt>
      <trkpt lat="43.91449" lon="7.71703">
        <ele>620.934</ele>
        <time>2016-12-22T13:17:46Z</time>
      </trkpt>
      <trkpt lat="43.91452" lon="7.71705">
        <ele>619.565</ele>
        <time>2016-12-22T13:17:48Z</time>
      </trkpt>
      <trkpt lat="43.91454" lon="7.71708">
        <ele>618.532</ele>
        <time>2016-12-22T13:17:50Z</time>
      </trkpt>
      <trkpt lat="43.91456" lon="7.71711">
        <ele>616.94</ele>
        <time>2016-12-22T13:18:40Z</time>
      </trkpt>
      <trkpt lat="43.91456" lon="7.71715">
        <ele>617.518</ele>
        <time>2016-12-22T13:19:03Z</time>
      </trkpt>
      <trkpt lat="43.91454" lon="7.71718">
        <ele>618.664</ele>
        <time>2016-12-22T13:19:14Z</time>
      </trkpt>
      <trkpt lat="43.91458" lon="7.71719">
        <ele>615.499</ele>
        <time>2016-12-22T13:20:02Z</time>
      </trkpt>
      <trkpt lat="43.9146" lon="7.71722">
        <ele>615.24</ele>
        <time>2016-12-22T13:24:51Z</time>
      </trkpt>
      <trkpt lat="43.91461" lon="7.71726">
        <ele>615.142</ele>
        <time>2016-12-22T13:24:53Z</time>
      </trkpt>
      <trkpt lat="43.91464" lon="7.71731">
        <ele>614.624</ele>
        <time>2016-12-22T13:24:54Z</time>
      </trkpt>
      <trkpt lat="43.91461" lon="7.71729">
        <ele>612.818</ele>
        <time>2016-12-22T13:25:36Z</time>
      </trkpt>
      <trkpt lat="43.91459" lon="7.71732">
        <ele>610.635</ele>
        <time>2016-12-22T13:25:57Z</time>
      </trkpt>
      <trkpt lat="43.91462" lon="7.71732">
        <ele>617.343</ele>
        <time>2016-12-22T13:26:59Z</time>
      </trkpt>
      <trkpt lat="43.9146" lon="7.71729">
        <ele>617.834</ele>
        <time>2016-12-22T13:28:42Z</time>
      </trkpt>
      <trkpt lat="43.91458" lon="7.71732">
        <ele>618.862</ele>
        <time>2016-12-22T13:28:51Z</time>
      </trkpt>
      <trkpt lat="43.91452" lon="7.71731">
        <ele>619.55</ele>
        <time>2016-12-22T13:29:02Z</time>
      </trkpt>
      <trkpt lat="43.91449" lon="7.71733">
        <ele>621.542</ele>
        <time>2016-12-22T13:29:07Z</time>
      </trkpt>
      <trkpt lat="43.91446" lon="7.71735">
        <ele>622.681</ele>
        <time>2016-12-22T13:29:10Z</time>
      </trkpt>
      <trkpt lat="43.91443" lon="7.71734">
        <ele>624.113</ele>
        <time>2016-12-22T13:29:23Z</time>
      </trkpt>
      <trkpt lat="43.91444" lon="7.71738">
        <ele>623.835</ele>
        <time>2016-12-22T13:31:53Z</time>
      </trkpt>
      <trkpt lat="43.91445" lon="7.71743">
        <ele>624.564</ele>
        <time>2016-12-22T13:32:05Z</time>
      </trkpt>
      <trkpt lat="43.91446" lon="7.71748">
        <ele>625.62</ele>
        <time>2016-12-22T13:32:09Z</time>
      </trkpt>
      <trkpt lat="43.91448" lon="7.7175">
        <ele>628.024</ele>
        <time>2016-12-22T13:32:42Z</time>
      </trkpt>
      <trkpt lat="43.9145" lon="7.71754">
        <ele>628.375</ele>
        <time>2016-12-22T13:32:47Z</time>
      </trkpt>
      <trkpt lat="43.91452" lon="7.71757">
        <ele>628.688</ele>
        <time>2016-12-22T13:32:52Z</time>
      </trkpt>
      <trkpt lat="43.91455" lon="7.71759">
        <ele>629.053</ele>
        <time>2016-12-22T13:32:54Z</time>
      </trkpt>
      <trkpt lat="43.91458" lon="7.71761">
        <ele>632.635</ele>
        <time>2016-12-22T13:33:06Z</time>
      </trkpt>
      <trkpt lat="43.91457" lon="7.71765">
        <ele>638.808</ele>
        <time>2016-12-22T13:33:17Z</time>
      </trkpt>
      <trkpt lat="43.91457" lon="7.71769">
        <ele>640.176</ele>
        <time>2016-12-22T13:33:21Z</time>
      </trkpt>
      <trkpt lat="43.91456" lon="7.71773">
        <ele>641.203</ele>
        <time>2016-12-22T13:33:26Z</time>
      </trkpt>
      <trkpt lat="43.91459" lon="7.71776">
        <ele>640.357</ele>
        <time>2016-12-22T13:33:44Z</time>
      </trkpt>
      <trkpt lat="43.91459" lon="7.7178">
        <ele>640.218</ele>
        <time>2016-12-22T13:34:05Z</time>
      </trkpt>
      <trkpt lat="43.91459" lon="7.71784">
        <ele>639.634</ele>
        <time>2016-12-22T13:34:14Z</time>
      </trkpt>
      <trkpt lat="43.91458" lon="7.71787">
        <ele>639.849</ele>
        <time>2016-12-22T13:34:17Z</time>
      </trkpt>
      <trkpt lat="43.91458" lon="7.71791">
        <ele>640.103</ele>
        <time>2016-12-22T13:34:20Z</time>
      </trkpt>
      <trkpt lat="43.91458" lon="7.71795">
        <ele>640.165</ele>
        <time>2016-12-22T13:34:24Z</time>
      </trkpt>
      <trkpt lat="43.9146" lon="7.71798">
        <ele>640.286</ele>
        <time>2016-12-22T13:34:38Z</time>
      </trkpt>
      <trkpt lat="43.91463" lon="7.71799">
        <ele>639.447</ele>
        <time>2016-12-22T13:34:51Z</time>
      </trkpt>
      <trkpt lat="43.91466" lon="7.71802">
        <ele>639.422</ele>
        <time>2016-12-22T13:34:54Z</time>
      </trkpt>
      <trkpt lat="43.91468" lon="7.71806">
        <ele>640.245</ele>
        <time>2016-12-22T13:35:10Z</time>
      </trkpt>
      <trkpt lat="43.91468" lon="7.7181">
        <ele>641.302</ele>
        <time>2016-12-22T13:35:16Z</time>
      </trkpt>
      <trkpt lat="43.91466" lon="7.71815">
        <ele>643.195</ele>
        <time>2016-12-22T13:35:33Z</time>
      </trkpt>
      <trkpt lat="43.91467" lon="7.71818">
        <ele>644.057</ele>
        <time>2016-12-22T13:35:45Z</time>
      </trkpt>
      <trkpt lat="43.91468" lon="7.71822">
        <ele>645.699</ele>
        <time>2016-12-22T13:35:53Z</time>
      </trkpt>
      <trkpt lat="43.91465" lon="7.71823">
        <ele>649.709</ele>
        <time>2016-12-22T13:36:02Z</time>
      </trkpt>
      <trkpt lat="43.91466" lon="7.71826">
        <ele>655.605</ele>
        <time>2016-12-22T13:36:18Z</time>
      </trkpt>
      <trkpt lat="43.91464" lon="7.7183">
        <ele>659.645</ele>
        <time>2016-12-22T13:36:37Z</time>
      </trkpt>
      <trkpt lat="43.91464" lon="7.71835">
        <ele>660.34</ele>
        <time>2016-12-22T13:36:41Z</time>
      </trkpt>
      <trkpt lat="43.91467" lon="7.71838">
        <ele>665.348</ele>
        <time>2016-12-22T13:37:00Z</time>
      </trkpt>
      <trkpt lat="43.91467" lon="7.71842">
        <ele>668.923</ele>
        <time>2016-12-22T13:37:33Z</time>
      </trkpt>
      <trkpt lat="43.91469" lon="7.71845">
        <ele>669.014</ele>
        <time>2016-12-22T13:37:38Z</time>
      </trkpt>
      <trkpt lat="43.91468" lon="7.7185">
        <ele>671.054</ele>
        <time>2016-12-22T13:37:54Z</time>
      </trkpt>
      <trkpt lat="43.91469" lon="7.71854">
        <ele>672.005</ele>
        <time>2016-12-22T13:38:01Z</time>
      </trkpt>
      <trkpt lat="43.91471" lon="7.71856">
        <ele>674.345</ele>
        <time>2016-12-22T13:38:18Z</time>
      </trkpt>
      <trkpt lat="43.91474" lon="7.71859">
        <ele>675.126</ele>
        <time>2016-12-22T13:38:21Z</time>
      </trkpt>
      <trkpt lat="43.91476" lon="7.71862">
        <ele>675.271</ele>
        <time>2016-12-22T13:38:25Z</time>
      </trkpt>
      <trkpt lat="43.91474" lon="7.71866">
        <ele>675.838</ele>
        <time>2016-12-22T13:38:28Z</time>
      </trkpt>
      <trkpt lat="43.91473" lon="7.71863">
        <ele>676.936</ele>
        <time>2016-12-22T13:39:08Z</time>
      </trkpt>
      <trkpt lat="43.91475" lon="7.71864">
        <ele>679.034</ele>
        <time>2016-12-22T13:39:38Z</time>
      </trkpt>
      <trkpt lat="43.91479" lon="7.71867">
        <ele>678.901</ele>
        <time>2016-12-22T13:39:41Z</time>
      </trkpt>
      <trkpt lat="43.91481" lon="7.71871">
        <ele>678.652</ele>
        <time>2016-12-22T13:39:45Z</time>
      </trkpt>
      <trkpt lat="43.91481" lon="7.71875">
        <ele>675.678</ele>
        <time>2016-12-22T13:40:05Z</time>
      </trkpt>
      <trkpt lat="43.91483" lon="7.71878">
        <ele>674.798</ele>
        <time>2016-12-22T13:40:09Z</time>
      </trkpt>
      <trkpt lat="43.91485" lon="7.71882">
        <ele>673.615</ele>
        <time>2016-12-22T13:40:25Z</time>
      </trkpt>
      <trkpt lat="43.91483" lon="7.71885">
        <ele>672.557</ele>
        <time>2016-12-22T13:40:36Z</time>
      </trkpt>
      <trkpt lat="43.91482" lon="7.71889">
        <ele>671.209</ele>
        <time>2016-12-22T13:40:42Z</time>
      </trkpt>
      <trkpt lat="43.91484" lon="7.71892">
        <ele>670.226</ele>
        <time>2016-12-22T13:40:47Z</time>
      </trkpt>
      <trkpt lat="43.91488" lon="7.71894">
        <ele>670.209</ele>
        <time>2016-12-22T13:40:51Z</time>
      </trkpt>
      <trkpt lat="43.91488" lon="7.71898">
        <ele>670.496</ele>
        <time>2016-12-22T13:40:57Z</time>
      </trkpt>
      <trkpt lat="43.91489" lon="7.71902">
        <ele>672.29</ele>
        <time>2016-12-22T13:41:12Z</time>
      </trkpt>
      <trkpt lat="43.91489" lon="7.71906">
        <ele>673.635</ele>
        <time>2016-12-22T13:41:24Z</time>
      </trkpt>
      <trkpt lat="43.91489" lon="7.7191">
        <ele>674.558</ele>
        <time>2016-12-22T13:41:28Z</time>
      </trkpt>
      <trkpt lat="43.91488" lon="7.71914">
        <ele>678.079</ele>
        <time>2016-12-22T13:41:40Z</time>
      </trkpt>
      <trkpt lat="43.91486" lon="7.71917">
        <ele>679.441</ele>
        <time>2016-12-22T13:41:43Z</time>
      </trkpt>
      <trkpt lat="43.91486" lon="7.71922">
        <ele>681.218</ele>
        <time>2016-12-22T13:41:51Z</time>
      </trkpt>
      <trkpt lat="43.91486" lon="7.71927">
        <ele>682.539</ele>
        <time>2016-12-22T13:41:56Z</time>
      </trkpt>
      <trkpt lat="43.91485" lon="7.71931">
        <ele>683.22</ele>
        <time>2016-12-22T13:41:59Z</time>
      </trkpt>
      <trkpt lat="43.91484" lon="7.71934">
        <ele>685.916</ele>
        <time>2016-12-22T13:42:30Z</time>
      </trkpt>
      <trkpt lat="43.91482" lon="7.71938">
        <ele>688.763</ele>
        <time>2016-12-22T13:42:52Z</time>
      </trkpt>
      <trkpt lat="43.9148" lon="7.71941">
        <ele>690.326</ele>
        <time>2016-12-22T13:42:57Z</time>
      </trkpt>
      <trkpt lat="43.91478" lon="7.71945">
        <ele>692.271</ele>
        <time>2016-12-22T13:43:10Z</time>
      </trkpt>
      <trkpt lat="43.91477" lon="7.71949">
        <ele>692.508</ele>
        <time>2016-12-22T13:43:12Z</time>
      </trkpt>
      <trkpt lat="43.91475" lon="7.71953">
        <ele>692.682</ele>
        <time>2016-12-22T13:43:14Z</time>
      </trkpt>
      <trkpt lat="43.91474" lon="7.71956">
        <ele>694.863</ele>
        <time>2016-12-22T13:43:53Z</time>
      </trkpt>
      <trkpt lat="43.91475" lon="7.7196">
        <ele>692.976</ele>
        <time>2016-12-22T13:45:00Z</time>
      </trkpt>
      <trkpt lat="43.91476" lon="7.71964">
        <ele>692.898</ele>
        <time>2016-12-22T13:45:02Z</time>
      </trkpt>
      <trkpt lat="43.91475" lon="7.71968">
        <ele>692.756</ele>
        <time>2016-12-22T13:45:04Z</time>
      </trkpt>
      <trkpt lat="43.91475" lon="7.71972">
        <ele>692.451</ele>
        <time>2016-12-22T13:45:07Z</time>
      </trkpt>
      <trkpt lat="43.91477" lon="7.71977">
        <ele>692.341</ele>
        <time>2016-12-22T13:45:11Z</time>
      </trkpt>
      <trkpt lat="43.91476" lon="7.71981">
        <ele>692.458</ele>
        <time>2016-12-22T13:45:16Z</time>
      </trkpt>
      <trkpt lat="43.91477" lon="7.71985">
        <ele>692.921</ele>
        <time>2016-12-22T13:45:19Z</time>
      </trkpt>
      <trkpt lat="43.91477" lon="7.71989">
        <ele>693.448</ele>
        <time>2016-12-22T13:45:22Z</time>
      </trkpt>
      <trkpt lat="43.91476" lon="7.71993">
        <ele>693.845</ele>
        <time>2016-12-22T13:45:26Z</time>
      </trkpt>
      <trkpt lat="43.91476" lon="7.71997">
        <ele>695.046</ele>
        <time>2016-12-22T13:45:30Z</time>
      </trkpt>
      <trkpt lat="43.91477" lon="7.72001">
        <ele>697.038</ele>
        <time>2016-12-22T13:45:38Z</time>
      </trkpt>
      <trkpt lat="43.91478" lon="7.72004">
        <ele>697.287</ele>
        <time>2016-12-22T13:45:42Z</time>
      </trkpt>
      <trkpt lat="43.91479" lon="7.72008">
        <ele>698.25</ele>
        <time>2016-12-22T13:45:48Z</time>
      </trkpt>
      <trkpt lat="43.91479" lon="7.72014">
        <ele>699.147</ele>
        <time>2016-12-22T13:45:53Z</time>
      </trkpt>
      <trkpt lat="43.91477" lon="7.72017">
        <ele>701.72</ele>
        <time>2016-12-22T13:46:05Z</time>
      </trkpt>
      <trkpt lat="43.91474" lon="7.72021">
        <ele>702.226</ele>
        <time>2016-12-22T13:46:09Z</time>
      </trkpt>
      <trkpt lat="43.91474" lon="7.72024">
        <ele>702.108</ele>
        <time>2016-12-22T13:46:13Z</time>
      </trkpt>
      <trkpt lat="43.91475" lon="7.72029">
        <ele>701.784</ele>
        <time>2016-12-22T13:46:19Z</time>
      </trkpt>
      <trkpt lat="43.91475" lon="7.72034">
        <ele>701.623</ele>
        <time>2016-12-22T13:46:27Z</time>
      </trkpt>
      <trkpt lat="43.91478" lon="7.72036">
        <ele>701.633</ele>
        <time>2016-12-22T13:46:29Z</time>
      </trkpt>
      <trkpt lat="43.9148" lon="7.72038">
        <ele>701.616</ele>
        <time>2016-12-22T13:46:34Z</time>
      </trkpt>
      <trkpt lat="43.91482" lon="7.72041">
        <ele>701.817</ele>
        <time>2016-12-22T13:46:38Z</time>
      </trkpt>
      <trkpt lat="43.9148" lon="7.72043">
        <ele>703.928</ele>
        <time>2016-12-22T13:46:49Z</time>
      </trkpt>
      <trkpt lat="43.91479" lon="7.72047">
        <ele>706.077</ele>
        <time>2016-12-22T13:46:57Z</time>
      </trkpt>
      <trkpt lat="43.91478" lon="7.72051">
        <ele>707.633</ele>
        <time>2016-12-22T13:47:01Z</time>
      </trkpt>
      <trkpt lat="43.91478" lon="7.72056">
        <ele>709.147</ele>
        <time>2016-12-22T13:47:05Z</time>
      </trkpt>
      <trkpt lat="43.91477" lon="7.7206">
        <ele>710.871</ele>
        <time>2016-12-22T13:47:09Z</time>
      </trkpt>
      <trkpt lat="43.91476" lon="7.72064">
        <ele>712.091</ele>
        <time>2016-12-22T13:47:13Z</time>
      </trkpt>
      <trkpt lat="43.91475" lon="7.72068">
        <ele>713.503</ele>
        <time>2016-12-22T13:47:18Z</time>
      </trkpt>
      <trkpt lat="43.91474" lon="7.72073">
        <ele>714.959</ele>
        <time>2016-12-22T13:47:24Z</time>
      </trkpt>
      <trkpt lat="43.91474" lon="7.72077">
        <ele>715.87</ele>
        <time>2016-12-22T13:47:27Z</time>
      </trkpt>
      <trkpt lat="43.91475" lon="7.72081">
        <ele>717.15</ele>
        <time>2016-12-22T13:47:31Z</time>
      </trkpt>
      <trkpt lat="43.91477" lon="7.72085">
        <ele>717.748</ele>
        <time>2016-12-22T13:47:34Z</time>
      </trkpt>
      <trkpt lat="43.91478" lon="7.72088">
        <ele>718.561</ele>
        <time>2016-12-22T13:47:38Z</time>
      </trkpt>
      <trkpt lat="43.91479" lon="7.72093">
        <ele>719.662</ele>
        <time>2016-12-22T13:47:44Z</time>
      </trkpt>
      <trkpt lat="43.91482" lon="7.72095">
        <ele>720</ele>
        <time>2016-12-22T13:47:47Z</time>
      </trkpt>
      <trkpt lat="43.91483" lon="7.72099">
        <ele>720.465</ele>
        <time>2016-12-22T13:47:50Z</time>
      </trkpt>
      <trkpt lat="43.91486" lon="7.72101">
        <ele>721.008</ele>
        <time>2016-12-22T13:47:53Z</time>
      </trkpt>
      <trkpt lat="43.91487" lon="7.72106">
        <ele>722.052</ele>
        <time>2016-12-22T13:47:57Z</time>
      </trkpt>
      <trkpt lat="43.91486" lon="7.7211">
        <ele>722.938</ele>
        <time>2016-12-22T13:48:00Z</time>
      </trkpt>
      <trkpt lat="43.91488" lon="7.72114">
        <ele>723.628</ele>
        <time>2016-12-22T13:48:03Z</time>
      </trkpt>
      <trkpt lat="43.91489" lon="7.72117">
        <ele>724.374</ele>
        <time>2016-12-22T13:48:07Z</time>
      </trkpt>
      <trkpt lat="43.91491" lon="7.7212">
        <ele>726.849</ele>
        <time>2016-12-22T13:48:55Z</time>
      </trkpt>
      <trkpt lat="43.91493" lon="7.72123">
        <ele>729.791</ele>
        <time>2016-12-22T13:52:27Z</time>
      </trkpt>
      <trkpt lat="43.9149" lon="7.72122">
        <ele>729.547</ele>
        <time>2016-12-22T13:52:45Z</time>
      </trkpt>
      <trkpt lat="43.91486" lon="7.7212">
        <ele>729.886</ele>
        <time>2016-12-22T13:52:48Z</time>
      </trkpt>
      <trkpt lat="43.91484" lon="7.72116">
        <ele>729.775</ele>
        <time>2016-12-22T13:53:08Z</time>
      </trkpt>
      <trkpt lat="43.91482" lon="7.72113">
        <ele>730.007</ele>
        <time>2016-12-22T13:53:12Z</time>
      </trkpt>
      <trkpt lat="43.9148" lon="7.72108">
        <ele>730.442</ele>
        <time>2016-12-22T13:53:15Z</time>
      </trkpt>
      <trkpt lat="43.91479" lon="7.72104">
        <ele>731.024</ele>
        <time>2016-12-22T13:53:18Z</time>
      </trkpt>
      <trkpt lat="43.91476" lon="7.72102">
        <ele>731.668</ele>
        <time>2016-12-22T13:53:22Z</time>
      </trkpt>
      <trkpt lat="43.91474" lon="7.721">
        <ele>731.706</ele>
        <time>2016-12-22T13:53:27Z</time>
      </trkpt>
      <trkpt lat="43.91472" lon="7.72097">
        <ele>732.141</ele>
        <time>2016-12-22T13:53:31Z</time>
      </trkpt>
      <trkpt lat="43.9147" lon="7.72092">
        <ele>732.502</ele>
        <time>2016-12-22T13:53:34Z</time>
      </trkpt>
      <trkpt lat="43.9147" lon="7.72088">
        <ele>732.748</ele>
        <time>2016-12-22T13:53:36Z</time>
      </trkpt>
      <trkpt lat="43.91468" lon="7.72083">
        <ele>732.472</ele>
        <time>2016-12-22T13:53:39Z</time>
      </trkpt>
      <trkpt lat="43.91469" lon="7.72078">
        <ele>732.108</ele>
        <time>2016-12-22T13:53:41Z</time>
      </trkpt>
      <trkpt lat="43.91469" lon="7.72074">
        <ele>731.408</ele>
        <time>2016-12-22T13:53:47Z</time>
      </trkpt>
      <trkpt lat="43.9147" lon="7.7207">
        <ele>730.956</ele>
        <time>2016-12-22T13:53:51Z</time>
      </trkpt>
      <trkpt lat="43.91472" lon="7.72065">
        <ele>730.419</ele>
        <time>2016-12-22T13:53:58Z</time>
      </trkpt>
      <trkpt lat="43.91474" lon="7.72062">
        <ele>730.378</ele>
        <time>2016-12-22T13:54:00Z</time>
      </trkpt>
      <trkpt lat="43.91476" lon="7.72058">
        <ele>730.196</ele>
        <time>2016-12-22T13:54:02Z</time>
      </trkpt>
      <trkpt lat="43.91476" lon="7.72054">
        <ele>729.937</ele>
        <time>2016-12-22T13:54:05Z</time>
      </trkpt>
      <trkpt lat="43.91476" lon="7.72049">
        <ele>729.718</ele>
        <time>2016-12-22T13:54:08Z</time>
      </trkpt>
      <trkpt lat="43.91478" lon="7.72046">
        <ele>729.338</ele>
        <time>2016-12-22T13:54:11Z</time>
      </trkpt>
      <trkpt lat="43.91481" lon="7.72044">
        <ele>729.068</ele>
        <time>2016-12-22T13:54:13Z</time>
      </trkpt>
      <trkpt lat="43.91484" lon="7.72042">
        <ele>728.717</ele>
        <time>2016-12-22T13:54:15Z</time>
      </trkpt>
      <trkpt lat="43.91481" lon="7.72038">
        <ele>727.349</ele>
        <time>2016-12-22T13:54:29Z</time>
      </trkpt>
      <trkpt lat="43.91478" lon="7.72035">
        <ele>726.143</ele>
        <time>2016-12-22T13:54:38Z</time>
      </trkpt>
      <trkpt lat="43.91476" lon="7.72033">
        <ele>725.362</ele>
        <time>2016-12-22T13:54:41Z</time>
      </trkpt>
      <trkpt lat="43.91477" lon="7.72029">
        <ele>723.759</ele>
        <time>2016-12-22T13:54:47Z</time>
      </trkpt>
      <trkpt lat="43.91477" lon="7.72025">
        <ele>720.954</ele>
        <time>2016-12-22T13:54:58Z</time>
      </trkpt>
      <trkpt lat="43.91475" lon="7.72022">
        <ele>718.921</ele>
        <time>2016-12-22T13:55:05Z</time>
      </trkpt>
      <trkpt lat="43.91473" lon="7.72018">
        <ele>717.074</ele>
        <time>2016-12-22T13:55:12Z</time>
      </trkpt>
      <trkpt lat="43.91471" lon="7.72013">
        <ele>715.932</ele>
        <time>2016-12-22T13:55:15Z</time>
      </trkpt>
      <trkpt lat="43.91469" lon="7.7201">
        <ele>714.691</ele>
        <time>2016-12-22T13:55:19Z</time>
      </trkpt>
      <trkpt lat="43.91468" lon="7.72006">
        <ele>714.137</ele>
        <time>2016-12-22T13:55:21Z</time>
      </trkpt>
      <trkpt lat="43.91467" lon="7.72002">
        <ele>713.206</ele>
        <time>2016-12-22T13:55:24Z</time>
      </trkpt>
      <trkpt lat="43.91467" lon="7.71996">
        <ele>708.702</ele>
        <time>2016-12-22T13:56:02Z</time>
      </trkpt>
      <trkpt lat="43.91467" lon="7.71991">
        <ele>704.63</ele>
        <time>2016-12-22T13:57:12Z</time>
      </trkpt>
      <trkpt lat="43.91469" lon="7.71989">
        <ele>704.127</ele>
        <time>2016-12-22T13:57:23Z</time>
      </trkpt>
      <trkpt lat="43.91471" lon="7.71983">
        <ele>703.583</ele>
        <time>2016-12-22T13:57:47Z</time>
      </trkpt>
      <trkpt lat="43.91472" lon="7.7198">
        <ele>699.366</ele>
        <time>2016-12-22T13:59:27Z</time>
      </trkpt>
      <trkpt lat="43.91469" lon="7.7198">
        <ele>697.171</ele>
        <time>2016-12-22T13:59:46Z</time>
      </trkpt>
      <trkpt lat="43.91467" lon="7.71983">
        <ele>694.839</ele>
        <time>2016-12-22T13:59:52Z</time>
      </trkpt>
      <trkpt lat="43.91466" lon="7.71987">
        <ele>693.793</ele>
        <time>2016-12-22T13:59:59Z</time>
      </trkpt>
      <trkpt lat="43.91463" lon="7.71989">
        <ele>693.434</ele>
        <time>2016-12-22T14:00:01Z</time>
      </trkpt>
      <trkpt lat="43.9146" lon="7.71986">
        <ele>693.274</ele>
        <time>2016-12-22T14:00:03Z</time>
      </trkpt>
      <trkpt lat="43.91458" lon="7.71983">
        <ele>694.478</ele>
        <time>2016-12-22T14:01:36Z</time>
      </trkpt>
      <trkpt lat="43.91455" lon="7.71982">
        <ele>694.341</ele>
        <time>2016-12-22T14:02:06Z</time>
      </trkpt>
      <trkpt lat="43.9145" lon="7.71983">
        <ele>692.075</ele>
        <time>2016-12-22T14:03:00Z</time>
      </trkpt>
      <trkpt lat="43.9145" lon="7.71987">
        <ele>692.481</ele>
        <time>2016-12-22T14:03:25Z</time>
      </trkpt>
      <trkpt lat="43.91446" lon="7.7199">
        <ele>687.736</ele>
        <time>2016-12-22T14:03:48Z</time>
      </trkpt>
      <trkpt lat="43.91443" lon="7.71989">
        <ele>686.739</ele>
        <time>2016-12-22T14:03:51Z</time>
      </trkpt>
      <trkpt lat="43.91441" lon="7.71993">
        <ele>677.37</ele>
        <time>2016-12-22T14:04:48Z</time>
      </trkpt>
      <trkpt lat="43.91439" lon="7.71995">
        <ele>674.838</ele>
        <time>2016-12-22T14:05:04Z</time>
      </trkpt>
      <trkpt lat="43.91439" lon="7.71999">
        <ele>672.787</ele>
        <time>2016-12-22T14:05:10Z</time>
      </trkpt>
      <trkpt lat="43.91436" lon="7.71998">
        <ele>674.264</ele>
        <time>2016-12-22T14:06:35Z</time>
      </trkpt>
      <trkpt lat="43.91433" lon="7.71999">
        <ele>678.147</ele>
        <time>2016-12-22T14:11:36Z</time>
      </trkpt>
      <trkpt lat="43.91431" lon="7.72003">
        <ele>677.572</ele>
        <time>2016-12-22T14:11:42Z</time>
      </trkpt>
      <trkpt lat="43.91429" lon="7.72006">
        <ele>678.076</ele>
        <time>2016-12-22T14:11:54Z</time>
      </trkpt>
      <trkpt lat="43.91427" lon="7.72009">
        <ele>677.823</ele>
        <time>2016-12-22T14:11:59Z</time>
      </trkpt>
      <trkpt lat="43.91427" lon="7.72014">
        <ele>678.567</ele>
        <time>2016-12-22T14:12:09Z</time>
      </trkpt>
      <trkpt lat="43.91426" lon="7.72018">
        <ele>678.898</ele>
        <time>2016-12-22T14:12:22Z</time>
      </trkpt>
      <trkpt lat="43.91424" lon="7.72021">
        <ele>679.152</ele>
        <time>2016-12-22T14:12:24Z</time>
      </trkpt>
      <trkpt lat="43.91423" lon="7.72025">
        <ele>679.542</ele>
        <time>2016-12-22T14:12:29Z</time>
      </trkpt>
      <trkpt lat="43.91421" lon="7.72029">
        <ele>680.162</ele>
        <time>2016-12-22T14:12:36Z</time>
      </trkpt>
      <trkpt lat="43.91421" lon="7.72034">
        <ele>680.682</ele>
        <time>2016-12-22T14:12:45Z</time>
      </trkpt>
      <trkpt lat="43.9142" lon="7.72038">
        <ele>681.862</ele>
        <time>2016-12-22T14:12:58Z</time>
      </trkpt>
      <trkpt lat="43.91419" lon="7.72043">
        <ele>681.989</ele>
        <time>2016-12-22T14:13:00Z</time>
      </trkpt>
      <trkpt lat="43.91419" lon="7.72047">
        <ele>680.968</ele>
        <time>2016-12-22T14:13:13Z</time>
      </trkpt>
      <trkpt lat="43.91419" lon="7.72051">
        <ele>680.669</ele>
        <time>2016-12-22T14:13:15Z</time>
      </trkpt>
      <trkpt lat="43.91416" lon="7.72054">
        <ele>680.137</ele>
        <time>2016-12-22T14:13:30Z</time>
      </trkpt>
      <trkpt lat="43.91415" lon="7.72057">
        <ele>680.995</ele>
        <time>2016-12-22T14:13:36Z</time>
      </trkpt>
      <trkpt lat="43.91413" lon="7.72061">
        <ele>681.073</ele>
        <time>2016-12-22T14:13:38Z</time>
      </trkpt>
      <trkpt lat="43.91413" lon="7.72066">
        <ele>680.783</ele>
        <time>2016-12-22T14:14:03Z</time>
      </trkpt>
      <trkpt lat="43.91412" lon="7.7207">
        <ele>679.85</ele>
        <time>2016-12-22T14:14:07Z</time>
      </trkpt>
      <trkpt lat="43.91414" lon="7.72074">
        <ele>678.782</ele>
        <time>2016-12-22T14:14:15Z</time>
      </trkpt>
      <trkpt lat="43.9141" lon="7.72084">
        <ele>678.585</ele>
        <time>2016-12-22T14:14:18Z</time>
      </trkpt>
      <trkpt lat="43.91408" lon="7.72088">
        <ele>678.012</ele>
        <time>2016-12-22T14:14:27Z</time>
      </trkpt>
      <trkpt lat="43.91403" lon="7.72096">
        <ele>678.13</ele>
        <time>2016-12-22T14:14:29Z</time>
      </trkpt>
      <trkpt lat="43.91402" lon="7.72104">
        <ele>675.959</ele>
        <time>2016-12-22T14:14:48Z</time>
      </trkpt>
      <trkpt lat="43.91402" lon="7.72108">
        <ele>675.489</ele>
        <time>2016-12-22T14:14:56Z</time>
      </trkpt>
      <trkpt lat="43.91401" lon="7.72113">
        <ele>675.347</ele>
        <time>2016-12-22T14:15:00Z</time>
      </trkpt>
      <trkpt lat="43.914" lon="7.72118">
        <ele>675.181</ele>
        <time>2016-12-22T14:15:04Z</time>
      </trkpt>
      <trkpt lat="43.914" lon="7.72123">
        <ele>675.178</ele>
        <time>2016-12-22T14:15:06Z</time>
      </trkpt>
      <trkpt lat="43.91401" lon="7.72127">
        <ele>674.961</ele>
        <time>2016-12-22T14:15:08Z</time>
      </trkpt>
      <trkpt lat="43.91401" lon="7.7213">
        <ele>675.224</ele>
        <time>2016-12-22T14:15:14Z</time>
      </trkpt>
      <trkpt lat="43.91402" lon="7.72135">
        <ele>673.853</ele>
        <time>2016-12-22T14:15:30Z</time>
      </trkpt>
      <trkpt lat="43.91401" lon="7.72139">
        <ele>672.757</ele>
        <time>2016-12-22T14:15:34Z</time>
      </trkpt>
      <trkpt lat="43.91399" lon="7.72145">
        <ele>672.403</ele>
        <time>2016-12-22T14:15:36Z</time>
      </trkpt>
      <trkpt lat="43.914" lon="7.72149">
        <ele>672.047</ele>
        <time>2016-12-22T14:15:39Z</time>
      </trkpt>
      <trkpt lat="43.914" lon="7.72155">
        <ele>671.999</ele>
        <time>2016-12-22T14:15:41Z</time>
      </trkpt>
      <trkpt lat="43.91401" lon="7.7216">
        <ele>672.456</ele>
        <time>2016-12-22T14:15:53Z</time>
      </trkpt>
      <trkpt lat="43.91402" lon="7.72164">
        <ele>673.237</ele>
        <time>2016-12-22T14:15:57Z</time>
      </trkpt>
      <trkpt lat="43.91404" lon="7.72169">
        <ele>675.171</ele>
        <time>2016-12-22T14:16:10Z</time>
      </trkpt>
      <trkpt lat="43.91405" lon="7.72172">
        <ele>675.954</ele>
        <time>2016-12-22T14:16:19Z</time>
      </trkpt>
      <trkpt lat="43.91405" lon="7.72177">
        <ele>676.298</ele>
        <time>2016-12-22T14:16:24Z</time>
      </trkpt>
      <trkpt lat="43.91404" lon="7.7218">
        <ele>675.903</ele>
        <time>2016-12-22T14:16:26Z</time>
      </trkpt>
      <trkpt lat="43.91401" lon="7.72184">
        <ele>675.714</ele>
        <time>2016-12-22T14:16:28Z</time>
      </trkpt>
      <trkpt lat="43.91401" lon="7.7219">
        <ele>675.833</ele>
        <time>2016-12-22T14:16:34Z</time>
      </trkpt>
      <trkpt lat="43.914" lon="7.72193">
        <ele>675.904</ele>
        <time>2016-12-22T14:16:38Z</time>
      </trkpt>
      <trkpt lat="43.914" lon="7.72199">
        <ele>674.654</ele>
        <time>2016-12-22T14:16:48Z</time>
      </trkpt>
      <trkpt lat="43.914" lon="7.72203">
        <ele>673.15</ele>
        <time>2016-12-22T14:16:53Z</time>
      </trkpt>
      <trkpt lat="43.91401" lon="7.72207">
        <ele>672.134</ele>
        <time>2016-12-22T14:16:59Z</time>
      </trkpt>
      <trkpt lat="43.91402" lon="7.7221">
        <ele>668.54</ele>
        <time>2016-12-22T14:17:15Z</time>
      </trkpt>
      <trkpt lat="43.91402" lon="7.72215">
        <ele>665.468</ele>
        <time>2016-12-22T14:17:31Z</time>
      </trkpt>
      <trkpt lat="43.91404" lon="7.72218">
        <ele>665.618</ele>
        <time>2016-12-22T14:17:38Z</time>
      </trkpt>
      <trkpt lat="43.91406" lon="7.72223">
        <ele>666.321</ele>
        <time>2016-12-22T14:17:40Z</time>
      </trkpt>
      <trkpt lat="43.91407" lon="7.72228">
        <ele>667.078</ele>
        <time>2016-12-22T14:17:43Z</time>
      </trkpt>
      <trkpt lat="43.91411" lon="7.72231">
        <ele>668.777</ele>
        <time>2016-12-22T14:18:05Z</time>
      </trkpt>
      <trkpt lat="43.91417" lon="7.72234">
        <ele>668.581</ele>
        <time>2016-12-22T14:18:07Z</time>
      </trkpt>
      <trkpt lat="43.91419" lon="7.72235">
        <ele>668.36</ele>
        <time>2016-12-22T14:18:12Z</time>
      </trkpt>
      <trkpt lat="43.91422" lon="7.72238">
        <ele>668.077</ele>
        <time>2016-12-22T14:18:15Z</time>
      </trkpt>
      <trkpt lat="43.91422" lon="7.72241">
        <ele>667.964</ele>
        <time>2016-12-22T14:18:18Z</time>
      </trkpt>
      <trkpt lat="43.91423" lon="7.72246">
        <ele>667.733</ele>
        <time>2016-12-22T14:18:23Z</time>
      </trkpt>
      <trkpt lat="43.91424" lon="7.72249">
        <ele>667.553</ele>
        <time>2016-12-22T14:18:25Z</time>
      </trkpt>
      <trkpt lat="43.91425" lon="7.72253">
        <ele>667.638</ele>
        <time>2016-12-22T14:18:28Z</time>
      </trkpt>
      <trkpt lat="43.91425" lon="7.72258">
        <ele>668.194</ele>
        <time>2016-12-22T14:18:32Z</time>
      </trkpt>
      <trkpt lat="43.91425" lon="7.72264">
        <ele>669.825</ele>
        <time>2016-12-22T14:18:43Z</time>
      </trkpt>
      <trkpt lat="43.91425" lon="7.72268">
        <ele>669.994</ele>
        <time>2016-12-22T14:18:45Z</time>
      </trkpt>
      <trkpt lat="43.91424" lon="7.72271">
        <ele>670.343</ele>
        <time>2016-12-22T14:18:48Z</time>
      </trkpt>
      <trkpt lat="43.91424" lon="7.72276">
        <ele>669.852</ele>
        <time>2016-12-22T14:19:01Z</time>
      </trkpt>
      <trkpt lat="43.91426" lon="7.72277">
        <ele>669.813</ele>
        <time>2016-12-22T14:19:03Z</time>
      </trkpt>
      <trkpt lat="43.91423" lon="7.72284">
        <ele>670.116</ele>
        <time>2016-12-22T14:19:06Z</time>
      </trkpt>
      <trkpt lat="43.91423" lon="7.72287">
        <ele>671.172</ele>
        <time>2016-12-22T14:19:12Z</time>
      </trkpt>
      <trkpt lat="43.91424" lon="7.72292">
        <ele>671.405</ele>
        <time>2016-12-22T14:19:15Z</time>
      </trkpt>
      <trkpt lat="43.91424" lon="7.72297">
        <ele>671.513</ele>
        <time>2016-12-22T14:19:18Z</time>
      </trkpt>
      <trkpt lat="43.91423" lon="7.72301">
        <ele>671.68</ele>
        <time>2016-12-22T14:19:22Z</time>
      </trkpt>
      <trkpt lat="43.91422" lon="7.72305">
        <ele>671.898</ele>
        <time>2016-12-22T14:19:24Z</time>
      </trkpt>
      <trkpt lat="43.91422" lon="7.72311">
        <ele>672.467</ele>
        <time>2016-12-22T14:19:27Z</time>
      </trkpt>
      <trkpt lat="43.91422" lon="7.72315">
        <ele>673.152</ele>
        <time>2016-12-22T14:19:31Z</time>
      </trkpt>
      <trkpt lat="43.91422" lon="7.72319">
        <ele>672.484</ele>
        <time>2016-12-22T14:19:41Z</time>
      </trkpt>
      <trkpt lat="43.91421" lon="7.72323">
        <ele>671.749</ele>
        <time>2016-12-22T14:19:59Z</time>
      </trkpt>
      <trkpt lat="43.91419" lon="7.72326">
        <ele>670.813</ele>
        <time>2016-12-22T14:20:02Z</time>
      </trkpt>
      <trkpt lat="43.91416" lon="7.72331">
        <ele>670.414</ele>
        <time>2016-12-22T14:20:04Z</time>
      </trkpt>
      <trkpt lat="43.91413" lon="7.72336">
        <ele>671.544</ele>
        <time>2016-12-22T14:20:41Z</time>
      </trkpt>
      <trkpt lat="43.9141" lon="7.72338">
        <ele>664.16</ele>
        <time>2016-12-22T14:30:25Z</time>
      </trkpt>
      <trkpt lat="43.91409" lon="7.72342">
        <ele>664.482</ele>
        <time>2016-12-22T14:30:31Z</time>
      </trkpt>
      <trkpt lat="43.91412" lon="7.72346">
        <ele>665.896</ele>
        <time>2016-12-22T14:30:54Z</time>
      </trkpt>
      <trkpt lat="43.91411" lon="7.72341">
        <ele>670.892</ele>
        <time>2016-12-22T14:31:26Z</time>
      </trkpt>
      <trkpt lat="43.91408" lon="7.72337">
        <ele>670.781</ele>
        <time>2016-12-22T14:31:31Z</time>
      </trkpt>
      <trkpt lat="43.91406" lon="7.72334">
        <ele>670.452</ele>
        <time>2016-12-22T14:31:33Z</time>
      </trkpt>
      <trkpt lat="43.91405" lon="7.7233">
        <ele>670.398</ele>
        <time>2016-12-22T14:32:12Z</time>
      </trkpt>
      <trkpt lat="43.91405" lon="7.72325">
        <ele>670.94</ele>
        <time>2016-12-22T14:32:21Z</time>
      </trkpt>
      <trkpt lat="43.91403" lon="7.72322">
        <ele>671.108</ele>
        <time>2016-12-22T14:32:30Z</time>
      </trkpt>
      <trkpt lat="43.914" lon="7.72319">
        <ele>671.115</ele>
        <time>2016-12-22T14:32:32Z</time>
      </trkpt>
      <trkpt lat="43.91397" lon="7.72315">
        <ele>671.129</ele>
        <time>2016-12-22T14:32:44Z</time>
      </trkpt>
      <trkpt lat="43.91394" lon="7.7231">
        <ele>671.367</ele>
        <time>2016-12-22T14:32:46Z</time>
      </trkpt>
      <trkpt lat="43.91392" lon="7.72305">
        <ele>671.674</ele>
        <time>2016-12-22T14:32:48Z</time>
      </trkpt>
      <trkpt lat="43.9139" lon="7.72302">
        <ele>672.079</ele>
        <time>2016-12-22T14:32:50Z</time>
      </trkpt>
      <trkpt lat="43.9139" lon="7.72298">
        <ele>672.601</ele>
        <time>2016-12-22T14:32:55Z</time>
      </trkpt>
      <trkpt lat="43.91389" lon="7.72294">
        <ele>672.631</ele>
        <time>2016-12-22T14:32:58Z</time>
      </trkpt>
      <trkpt lat="43.91387" lon="7.72291">
        <ele>672.54</ele>
        <time>2016-12-22T14:33:03Z</time>
      </trkpt>
      <trkpt lat="43.91385" lon="7.72288">
        <ele>672.193</ele>
        <time>2016-12-22T14:33:08Z</time>
      </trkpt>
      <trkpt lat="43.91384" lon="7.72284">
        <ele>672.161</ele>
        <time>2016-12-22T14:33:15Z</time>
      </trkpt>
      <trkpt lat="43.91382" lon="7.72281">
        <ele>672.92</ele>
        <time>2016-12-22T14:33:22Z</time>
      </trkpt>
      <trkpt lat="43.91381" lon="7.72277">
        <ele>673.113</ele>
        <time>2016-12-22T14:33:25Z</time>
      </trkpt>
      <trkpt lat="43.91379" lon="7.72272">
        <ele>674.18</ele>
        <time>2016-12-22T14:33:32Z</time>
      </trkpt>
      <trkpt lat="43.91377" lon="7.72269">
        <ele>674.604</ele>
        <time>2016-12-22T14:33:34Z</time>
      </trkpt>
      <trkpt lat="43.91375" lon="7.72266">
        <ele>674.981</ele>
        <time>2016-12-22T14:33:39Z</time>
      </trkpt>
      <trkpt lat="43.91373" lon="7.72263">
        <ele>675.312</ele>
        <time>2016-12-22T14:33:41Z</time>
      </trkpt>
      <trkpt lat="43.91372" lon="7.72259">
        <ele>675.477</ele>
        <time>2016-12-22T14:33:43Z</time>
      </trkpt>
      <trkpt lat="43.91373" lon="7.72254">
        <ele>675.448</ele>
        <time>2016-12-22T14:33:49Z</time>
      </trkpt>
      <trkpt lat="43.9137" lon="7.7225">
        <ele>675.51</ele>
        <time>2016-12-22T14:33:53Z</time>
      </trkpt>
      <trkpt lat="43.91367" lon="7.72247">
        <ele>676.24</ele>
        <time>2016-12-22T14:33:59Z</time>
      </trkpt>
      <trkpt lat="43.91365" lon="7.72245">
        <ele>676.319</ele>
        <time>2016-12-22T14:34:04Z</time>
      </trkpt>
      <trkpt lat="43.91363" lon="7.72242">
        <ele>676.341</ele>
        <time>2016-12-22T14:34:11Z</time>
      </trkpt>
      <trkpt lat="43.91361" lon="7.72239">
        <ele>676.305</ele>
        <time>2016-12-22T14:34:14Z</time>
      </trkpt>
      <trkpt lat="43.91358" lon="7.72239">
        <ele>676.737</ele>
        <time>2016-12-22T14:34:18Z</time>
      </trkpt>
      <trkpt lat="43.91355" lon="7.72235">
        <ele>676.827</ele>
        <time>2016-12-22T14:34:26Z</time>
      </trkpt>
      <trkpt lat="43.91353" lon="7.72233">
        <ele>676.812</ele>
        <time>2016-12-22T14:34:31Z</time>
      </trkpt>
      <trkpt lat="43.91351" lon="7.72229">
        <ele>677.192</ele>
        <time>2016-12-22T14:34:43Z</time>
      </trkpt>
      <trkpt lat="43.91349" lon="7.72227">
        <ele>676.874</ele>
        <time>2016-12-22T14:34:49Z</time>
      </trkpt>
      <trkpt lat="43.91346" lon="7.72225">
        <ele>676.724</ele>
        <time>2016-12-22T14:34:58Z</time>
      </trkpt>
      <trkpt lat="43.91343" lon="7.72226">
        <ele>676.603</ele>
        <time>2016-12-22T14:35:01Z</time>
      </trkpt>
      <trkpt lat="43.9134" lon="7.72227">
        <ele>676.371</ele>
        <time>2016-12-22T14:35:06Z</time>
      </trkpt>
      <trkpt lat="43.91338" lon="7.7223">
        <ele>676.152</ele>
        <time>2016-12-22T14:35:10Z</time>
      </trkpt>
      <trkpt lat="43.91335" lon="7.72232">
        <ele>675.567</ele>
        <time>2016-12-22T14:35:14Z</time>
      </trkpt>
      <trkpt lat="43.91336" lon="7.72228">
        <ele>674.748</ele>
        <time>2016-12-22T14:35:25Z</time>
      </trkpt>
      <trkpt lat="43.91335" lon="7.72224">
        <ele>674.874</ele>
        <time>2016-12-22T14:35:42Z</time>
      </trkpt>
      <trkpt lat="43.91335" lon="7.72221">
        <ele>674.748</ele>
        <time>2016-12-22T14:35:44Z</time>
      </trkpt>
      <trkpt lat="43.91336" lon="7.72216">
        <ele>674.707</ele>
        <time>2016-12-22T14:35:46Z</time>
      </trkpt>
      <trkpt lat="43.91335" lon="7.72212">
        <ele>674.736</ele>
        <time>2016-12-22T14:35:50Z</time>
      </trkpt>
      <trkpt lat="43.91334" lon="7.72208">
        <ele>674.774</ele>
        <time>2016-12-22T14:35:53Z</time>
      </trkpt>
      <trkpt lat="43.91333" lon="7.72203">
        <ele>674.843</ele>
        <time>2016-12-22T14:36:03Z</time>
      </trkpt>
      <trkpt lat="43.91332" lon="7.72199">
        <ele>675.085</ele>
        <time>2016-12-22T14:36:07Z</time>
      </trkpt>
      <trkpt lat="43.91335" lon="7.72199">
        <ele>675.466</ele>
        <time>2016-12-22T14:36:10Z</time>
      </trkpt>
      <trkpt lat="43.91333" lon="7.72195">
        <ele>675.683</ele>
        <time>2016-12-22T14:36:15Z</time>
      </trkpt>
      <trkpt lat="43.91329" lon="7.72189">
        <ele>675.828</ele>
        <time>2016-12-22T14:36:24Z</time>
      </trkpt>
      <trkpt lat="43.91331" lon="7.72185">
        <ele>675.925</ele>
        <time>2016-12-22T14:36:30Z</time>
      </trkpt>
      <trkpt lat="43.91332" lon="7.7218">
        <ele>675.898</ele>
        <time>2016-12-22T14:36:34Z</time>
      </trkpt>
      <trkpt lat="43.91334" lon="7.72178">
        <ele>675.869</ele>
        <time>2016-12-22T14:36:36Z</time>
      </trkpt>
      <trkpt lat="43.91338" lon="7.72176">
        <ele>675.868</ele>
        <time>2016-12-22T14:36:38Z</time>
      </trkpt>
      <trkpt lat="43.91338" lon="7.72172">
        <ele>676.378</ele>
        <time>2016-12-22T14:36:44Z</time>
      </trkpt>
      <trkpt lat="43.91336" lon="7.7217">
        <ele>679.142</ele>
        <time>2016-12-22T14:37:00Z</time>
      </trkpt>
      <trkpt lat="43.91336" lon="7.72166">
        <ele>680.457</ele>
        <time>2016-12-22T14:37:09Z</time>
      </trkpt>
      <trkpt lat="43.91333" lon="7.72162">
        <ele>684.449</ele>
        <time>2016-12-22T14:37:37Z</time>
      </trkpt>
      <trkpt lat="43.91331" lon="7.72158">
        <ele>684.806</ele>
        <time>2016-12-22T14:37:41Z</time>
      </trkpt>
      <trkpt lat="43.91329" lon="7.72157">
        <ele>685.104</ele>
        <time>2016-12-22T14:37:43Z</time>
      </trkpt>
      <trkpt lat="43.91325" lon="7.72151">
        <ele>685.261</ele>
        <time>2016-12-22T14:37:46Z</time>
      </trkpt>
      <trkpt lat="43.91325" lon="7.72146">
        <ele>685.38</ele>
        <time>2016-12-22T14:37:48Z</time>
      </trkpt>
      <trkpt lat="43.91324" lon="7.72142">
        <ele>684.853</ele>
        <time>2016-12-22T14:37:58Z</time>
      </trkpt>
      <trkpt lat="43.91325" lon="7.72139">
        <ele>683.392</ele>
        <time>2016-12-22T14:38:05Z</time>
      </trkpt>
      <trkpt lat="43.91328" lon="7.7214">
        <ele>683.106</ele>
        <time>2016-12-22T14:38:11Z</time>
      </trkpt>
      <trkpt lat="43.91326" lon="7.72136">
        <ele>682.404</ele>
        <time>2016-12-22T14:38:20Z</time>
      </trkpt>
      <trkpt lat="43.91325" lon="7.72131">
        <ele>682.428</ele>
        <time>2016-12-22T14:38:25Z</time>
      </trkpt>
      <trkpt lat="43.91323" lon="7.72129">
        <ele>682.174</ele>
        <time>2016-12-22T14:38:31Z</time>
      </trkpt>
      <trkpt lat="43.91321" lon="7.72125">
        <ele>681.664</ele>
        <time>2016-12-22T14:38:45Z</time>
      </trkpt>
      <trkpt lat="43.91319" lon="7.72119">
        <ele>681.48</ele>
        <time>2016-12-22T14:38:48Z</time>
      </trkpt>
      <trkpt lat="43.91317" lon="7.72116">
        <ele>681.126</ele>
        <time>2016-12-22T14:38:51Z</time>
      </trkpt>
      <trkpt lat="43.91315" lon="7.72113">
        <ele>680.705</ele>
        <time>2016-12-22T14:38:56Z</time>
      </trkpt>
      <trkpt lat="43.91315" lon="7.72109">
        <ele>680.151</ele>
        <time>2016-12-22T14:39:04Z</time>
      </trkpt>
      <trkpt lat="43.91314" lon="7.72102">
        <ele>679.22</ele>
        <time>2016-12-22T14:39:14Z</time>
      </trkpt>
      <trkpt lat="43.91316" lon="7.72099">
        <ele>678.241</ele>
        <time>2016-12-22T14:39:23Z</time>
      </trkpt>
      <trkpt lat="43.91317" lon="7.72094">
        <ele>678.3</ele>
        <time>2016-12-22T14:39:28Z</time>
      </trkpt>
      <trkpt lat="43.91319" lon="7.72092">
        <ele>677.136</ele>
        <time>2016-12-22T14:39:42Z</time>
      </trkpt>
      <trkpt lat="43.91316" lon="7.72089">
        <ele>675.157</ele>
        <time>2016-12-22T14:40:07Z</time>
      </trkpt>
      <trkpt lat="43.91314" lon="7.72087">
        <ele>675.199</ele>
        <time>2016-12-22T14:40:09Z</time>
      </trkpt>
      <trkpt lat="43.91315" lon="7.72083">
        <ele>675.539</ele>
        <time>2016-12-22T14:40:21Z</time>
      </trkpt>
      <trkpt lat="43.91314" lon="7.7208">
        <ele>675.479</ele>
        <time>2016-12-22T14:40:26Z</time>
      </trkpt>
      <trkpt lat="43.91315" lon="7.72076">
        <ele>675.197</ele>
        <time>2016-12-22T14:40:28Z</time>
      </trkpt>
      <trkpt lat="43.91316" lon="7.72069">
        <ele>675.272</ele>
        <time>2016-12-22T14:40:30Z</time>
      </trkpt>
      <trkpt lat="43.91315" lon="7.72064">
        <ele>675.486</ele>
        <time>2016-12-22T14:40:32Z</time>
      </trkpt>
      <trkpt lat="43.91317" lon="7.7206">
        <ele>675.56</ele>
        <time>2016-12-22T14:40:38Z</time>
      </trkpt>
      <trkpt lat="43.91318" lon="7.72055">
        <ele>675.941</ele>
        <time>2016-12-22T14:40:44Z</time>
      </trkpt>
      <trkpt lat="43.91317" lon="7.72051">
        <ele>676.809</ele>
        <time>2016-12-22T14:40:55Z</time>
      </trkpt>
      <trkpt lat="43.91321" lon="7.72048">
        <ele>679.23</ele>
        <time>2016-12-22T14:41:10Z</time>
      </trkpt>
      <trkpt lat="43.91324" lon="7.72043">
        <ele>678.967</ele>
        <time>2016-12-22T14:41:13Z</time>
      </trkpt>
      <trkpt lat="43.91324" lon="7.72035">
        <ele>678.458</ele>
        <time>2016-12-22T14:41:18Z</time>
      </trkpt>
      <trkpt lat="43.91323" lon="7.72031">
        <ele>678.379</ele>
        <time>2016-12-22T14:41:21Z</time>
      </trkpt>
      <trkpt lat="43.91322" lon="7.72026">
        <ele>677.873</ele>
        <time>2016-12-22T14:41:27Z</time>
      </trkpt>
      <trkpt lat="43.91326" lon="7.72025">
        <ele>677.683</ele>
        <time>2016-12-22T14:41:34Z</time>
      </trkpt>
      <trkpt lat="43.91326" lon="7.72021">
        <ele>677.659</ele>
        <time>2016-12-22T14:41:38Z</time>
      </trkpt>
      <trkpt lat="43.91326" lon="7.72017">
        <ele>677.645</ele>
        <time>2016-12-22T14:41:55Z</time>
      </trkpt>
      <trkpt lat="43.91325" lon="7.72014">
        <ele>678.008</ele>
        <time>2016-12-22T14:42:01Z</time>
      </trkpt>
      <trkpt lat="43.91324" lon="7.7201">
        <ele>677.69</ele>
        <time>2016-12-22T14:42:15Z</time>
      </trkpt>
      <trkpt lat="43.91323" lon="7.72007">
        <ele>678.587</ele>
        <time>2016-12-22T14:42:30Z</time>
      </trkpt>
      <trkpt lat="43.91322" lon="7.72003">
        <ele>678.751</ele>
        <time>2016-12-22T14:42:41Z</time>
      </trkpt>
      <trkpt lat="43.9132" lon="7.71999">
        <ele>679.477</ele>
        <time>2016-12-22T14:42:47Z</time>
      </trkpt>
      <trkpt lat="43.91319" lon="7.71995">
        <ele>679.895</ele>
        <time>2016-12-22T14:42:53Z</time>
      </trkpt>
      <trkpt lat="43.91317" lon="7.71992">
        <ele>680.589</ele>
        <time>2016-12-22T14:42:57Z</time>
      </trkpt>
      <trkpt lat="43.91316" lon="7.71988">
        <ele>681.105</ele>
        <time>2016-12-22T14:43:00Z</time>
      </trkpt>
      <trkpt lat="43.91317" lon="7.71984">
        <ele>683.068</ele>
        <time>2016-12-22T14:43:11Z</time>
      </trkpt>
      <trkpt lat="43.9132" lon="7.71981">
        <ele>684.268</ele>
        <time>2016-12-22T14:43:22Z</time>
      </trkpt>
      <trkpt lat="43.91323" lon="7.71978">
        <ele>685.073</ele>
        <time>2016-12-22T14:43:30Z</time>
      </trkpt>
      <trkpt lat="43.91325" lon="7.71977">
        <ele>685.261</ele>
        <time>2016-12-22T14:43:36Z</time>
      </trkpt>
      <trkpt lat="43.91325" lon="7.71973">
        <ele>685.482</ele>
        <time>2016-12-22T14:43:56Z</time>
      </trkpt>
      <trkpt lat="43.91322" lon="7.71973">
        <ele>685.312</ele>
        <time>2016-12-22T14:44:12Z</time>
      </trkpt>
      <trkpt lat="43.9132" lon="7.7197">
        <ele>685.143</ele>
        <time>2016-12-22T14:44:20Z</time>
      </trkpt>
      <trkpt lat="43.91317" lon="7.71971">
        <ele>684.455</ele>
        <time>2016-12-22T14:44:34Z</time>
      </trkpt>
      <trkpt lat="43.9132" lon="7.71972">
        <ele>683.924</ele>
        <time>2016-12-22T14:46:19Z</time>
      </trkpt>
      <trkpt lat="43.91322" lon="7.71975">
        <ele>683.908</ele>
        <time>2016-12-22T14:46:23Z</time>
      </trkpt>
      <trkpt lat="43.91324" lon="7.71973">
        <ele>683.815</ele>
        <time>2016-12-22T14:46:44Z</time>
      </trkpt>
      <trkpt lat="43.91325" lon="7.71969">
        <ele>683.591</ele>
        <time>2016-12-22T14:46:49Z</time>
      </trkpt>
      <trkpt lat="43.91324" lon="7.71965">
        <ele>683.387</ele>
        <time>2016-12-22T14:46:54Z</time>
      </trkpt>
      <trkpt lat="43.91322" lon="7.71968">
        <ele>683.04</ele>
        <time>2016-12-22T14:47:15Z</time>
      </trkpt>
      <trkpt lat="43.91325" lon="7.7197">
        <ele>683.144</ele>
        <time>2016-12-22T14:47:25Z</time>
      </trkpt>
      <trkpt lat="43.91326" lon="7.71973">
        <ele>683.316</ele>
        <time>2016-12-22T14:47:36Z</time>
      </trkpt>
      <trkpt lat="43.91325" lon="7.7197">
        <ele>683.951</ele>
        <time>2016-12-22T14:49:51Z</time>
      </trkpt>
      <trkpt lat="43.91323" lon="7.71966">
        <ele>683.628</ele>
        <time>2016-12-22T14:50:01Z</time>
      </trkpt>
      <trkpt lat="43.9132" lon="7.71964">
        <ele>682.554</ele>
        <time>2016-12-22T14:50:19Z</time>
      </trkpt>
      <trkpt lat="43.91321" lon="7.71961">
        <ele>683.741</ele>
        <time>2016-12-22T14:50:43Z</time>
      </trkpt>
      <trkpt lat="43.91325" lon="7.71959">
        <ele>683.728</ele>
        <time>2016-12-22T14:51:00Z</time>
      </trkpt>
      <trkpt lat="43.91327" lon="7.71956">
        <ele>685.039</ele>
        <time>2016-12-22T14:51:11Z</time>
      </trkpt>
      <trkpt lat="43.91327" lon="7.71951">
        <ele>685.48</ele>
        <time>2016-12-22T14:51:16Z</time>
      </trkpt>
      <trkpt lat="43.91325" lon="7.71946">
        <ele>685.696</ele>
        <time>2016-12-22T14:51:18Z</time>
      </trkpt>
      <trkpt lat="43.91324" lon="7.71942">
        <ele>686.43</ele>
        <time>2016-12-22T14:51:30Z</time>
      </trkpt>
      <trkpt lat="43.91324" lon="7.71937">
        <ele>687.342</ele>
        <time>2016-12-22T14:51:37Z</time>
      </trkpt>
      <trkpt lat="43.91323" lon="7.71934">
        <ele>688.094</ele>
        <time>2016-12-22T14:51:40Z</time>
      </trkpt>
      <trkpt lat="43.91321" lon="7.7193">
        <ele>688.756</ele>
        <time>2016-12-22T14:51:43Z</time>
      </trkpt>
      <trkpt lat="43.9132" lon="7.71927">
        <ele>689.592</ele>
        <time>2016-12-22T14:51:48Z</time>
      </trkpt>
      <trkpt lat="43.91318" lon="7.71923">
        <ele>690.11</ele>
        <time>2016-12-22T14:51:52Z</time>
      </trkpt>
      <trkpt lat="43.91316" lon="7.71919">
        <ele>690.178</ele>
        <time>2016-12-22T14:51:56Z</time>
      </trkpt>
      <trkpt lat="43.91316" lon="7.71915">
        <ele>690.139</ele>
        <time>2016-12-22T14:52:01Z</time>
      </trkpt>
      <trkpt lat="43.91316" lon="7.71911">
        <ele>690.181</ele>
        <time>2016-12-22T14:52:04Z</time>
      </trkpt>
      <trkpt lat="43.91316" lon="7.71906">
        <ele>689.891</ele>
        <time>2016-12-22T14:52:08Z</time>
      </trkpt>
      <trkpt lat="43.91317" lon="7.71903">
        <ele>689.786</ele>
        <time>2016-12-22T14:52:13Z</time>
      </trkpt>
      <trkpt lat="43.91314" lon="7.71899">
        <ele>689.919</ele>
        <time>2016-12-22T14:52:15Z</time>
      </trkpt>
      <trkpt lat="43.91312" lon="7.71895">
        <ele>690.267</ele>
        <time>2016-12-22T14:52:18Z</time>
      </trkpt>
      <trkpt lat="43.91309" lon="7.7189">
        <ele>690.782</ele>
        <time>2016-12-22T14:52:24Z</time>
      </trkpt>
      <trkpt lat="43.91305" lon="7.71885">
        <ele>691.535</ele>
        <time>2016-12-22T14:52:30Z</time>
      </trkpt>
      <trkpt lat="43.91305" lon="7.71881">
        <ele>692.078</ele>
        <time>2016-12-22T14:52:41Z</time>
      </trkpt>
      <trkpt lat="43.91304" lon="7.71876">
        <ele>693.79</ele>
        <time>2016-12-22T14:52:50Z</time>
      </trkpt>
      <trkpt lat="43.91303" lon="7.71872">
        <ele>695.153</ele>
        <time>2016-12-22T14:52:58Z</time>
      </trkpt>
      <trkpt lat="43.913" lon="7.71869">
        <ele>695.893</ele>
        <time>2016-12-22T14:53:03Z</time>
      </trkpt>
      <trkpt lat="43.91299" lon="7.71866">
        <ele>696.96</ele>
        <time>2016-12-22T14:53:08Z</time>
      </trkpt>
      <trkpt lat="43.91299" lon="7.71862">
        <ele>697.658</ele>
        <time>2016-12-22T14:53:11Z</time>
      </trkpt>
      <trkpt lat="43.91303" lon="7.71856">
        <ele>698.412</ele>
        <time>2016-12-22T14:53:16Z</time>
      </trkpt>
      <trkpt lat="43.91303" lon="7.71851">
        <ele>698.68</ele>
        <time>2016-12-22T14:53:18Z</time>
      </trkpt>
      <trkpt lat="43.91303" lon="7.71846">
        <ele>698.971</ele>
        <time>2016-12-22T14:53:20Z</time>
      </trkpt>
      <trkpt lat="43.91302" lon="7.71842">
        <ele>699.294</ele>
        <time>2016-12-22T14:53:22Z</time>
      </trkpt>
      <trkpt lat="43.91303" lon="7.71838">
        <ele>699.613</ele>
        <time>2016-12-22T14:53:28Z</time>
      </trkpt>
      <trkpt lat="43.91304" lon="7.71835">
        <ele>699.574</ele>
        <time>2016-12-22T14:53:36Z</time>
      </trkpt>
      <trkpt lat="43.91306" lon="7.71833">
        <ele>699.519</ele>
        <time>2016-12-22T14:53:40Z</time>
      </trkpt>
      <trkpt lat="43.91304" lon="7.7183">
        <ele>699.812</ele>
        <time>2016-12-22T14:53:50Z</time>
      </trkpt>
      <trkpt lat="43.91301" lon="7.71828">
        <ele>700.674</ele>
        <time>2016-12-22T14:53:54Z</time>
      </trkpt>
      <trkpt lat="43.91301" lon="7.71824">
        <ele>701.064</ele>
        <time>2016-12-22T14:53:58Z</time>
      </trkpt>
      <trkpt lat="43.91299" lon="7.71822">
        <ele>701.611</ele>
        <time>2016-12-22T14:54:07Z</time>
      </trkpt>
      <trkpt lat="43.913" lon="7.71818">
        <ele>702.485</ele>
        <time>2016-12-22T14:54:18Z</time>
      </trkpt>
      <trkpt lat="43.91294" lon="7.71815">
        <ele>704.012</ele>
        <time>2016-12-22T14:54:23Z</time>
      </trkpt>
      <trkpt lat="43.91292" lon="7.71812">
        <ele>705.283</ele>
        <time>2016-12-22T14:54:30Z</time>
      </trkpt>
      <trkpt lat="43.91289" lon="7.7181">
        <ele>706.945</ele>
        <time>2016-12-22T14:54:36Z</time>
      </trkpt>
      <trkpt lat="43.91286" lon="7.71808">
        <ele>707.363</ele>
        <time>2016-12-22T14:54:44Z</time>
      </trkpt>
      <trkpt lat="43.91285" lon="7.71805">
        <ele>707.955</ele>
        <time>2016-12-22T14:54:49Z</time>
      </trkpt>
      <trkpt lat="43.91285" lon="7.71801">
        <ele>707.981</ele>
        <time>2016-12-22T14:54:58Z</time>
      </trkpt>
      <trkpt lat="43.91281" lon="7.71795">
        <ele>707.878</ele>
        <time>2016-12-22T14:55:01Z</time>
      </trkpt>
      <trkpt lat="43.91279" lon="7.71793">
        <ele>708.169</ele>
        <time>2016-12-22T14:55:05Z</time>
      </trkpt>
      <trkpt lat="43.91274" lon="7.71788">
        <ele>708.611</ele>
        <time>2016-12-22T14:55:09Z</time>
      </trkpt>
      <trkpt lat="43.91272" lon="7.71785">
        <ele>709.462</ele>
        <time>2016-12-22T14:55:45Z</time>
      </trkpt>
      <trkpt lat="43.91271" lon="7.71781">
        <ele>709.391</ele>
        <time>2016-12-22T14:55:53Z</time>
      </trkpt>
      <trkpt lat="43.91268" lon="7.71779">
        <ele>708.991</ele>
        <time>2016-12-22T14:56:01Z</time>
      </trkpt>
      <trkpt lat="43.91264" lon="7.71778">
        <ele>708.662</ele>
        <time>2016-12-22T14:56:12Z</time>
      </trkpt>
      <trkpt lat="43.91262" lon="7.71776">
        <ele>708.651</ele>
        <time>2016-12-22T14:56:17Z</time>
      </trkpt>
      <trkpt lat="43.91262" lon="7.71772">
        <ele>708.527</ele>
        <time>2016-12-22T14:56:22Z</time>
      </trkpt>
      <trkpt lat="43.9126" lon="7.71769">
        <ele>708.622</ele>
        <time>2016-12-22T14:56:28Z</time>
      </trkpt>
      <trkpt lat="43.91258" lon="7.71765">
        <ele>708.726</ele>
        <time>2016-12-22T14:56:32Z</time>
      </trkpt>
      <trkpt lat="43.91258" lon="7.71761">
        <ele>708.825</ele>
        <time>2016-12-22T14:56:36Z</time>
      </trkpt>
      <trkpt lat="43.91254" lon="7.71761">
        <ele>710.048</ele>
        <time>2016-12-22T14:56:57Z</time>
      </trkpt>
      <trkpt lat="43.91251" lon="7.71759">
        <ele>710.78</ele>
        <time>2016-12-22T14:57:02Z</time>
      </trkpt>
      <trkpt lat="43.91249" lon="7.71756">
        <ele>711.744</ele>
        <time>2016-12-22T14:57:08Z</time>
      </trkpt>
      <trkpt lat="43.91241" lon="7.71753">
        <ele>712.144</ele>
        <time>2016-12-22T14:57:16Z</time>
      </trkpt>
      <trkpt lat="43.91239" lon="7.7175">
        <ele>712.18</ele>
        <time>2016-12-22T14:57:17Z</time>
      </trkpt>
      <trkpt lat="43.91236" lon="7.71747">
        <ele>712.27</ele>
        <time>2016-12-22T14:57:19Z</time>
      </trkpt>
      <trkpt lat="43.91234" lon="7.71742">
        <ele>712.422</ele>
        <time>2016-12-22T14:57:22Z</time>
      </trkpt>
      <trkpt lat="43.91235" lon="7.71738">
        <ele>712.526</ele>
        <time>2016-12-22T14:57:24Z</time>
      </trkpt>
      <trkpt lat="43.91235" lon="7.71734">
        <ele>714.77</ele>
        <time>2016-12-22T14:57:34Z</time>
      </trkpt>
      <trkpt lat="43.91233" lon="7.71738">
        <ele>715.074</ele>
        <time>2016-12-22T14:57:46Z</time>
      </trkpt>
      <trkpt lat="43.91235" lon="7.71742">
        <ele>715.477</ele>
        <time>2016-12-22T14:58:00Z</time>
      </trkpt>
      <trkpt lat="43.91231" lon="7.71741">
        <ele>713.545</ele>
        <time>2016-12-22T14:58:29Z</time>
      </trkpt>
      <trkpt lat="43.91226" lon="7.71735">
        <ele>714.145</ele>
        <time>2016-12-22T14:58:37Z</time>
      </trkpt>
      <trkpt lat="43.91223" lon="7.71732">
        <ele>713.95</ele>
        <time>2016-12-22T14:58:41Z</time>
      </trkpt>
      <trkpt lat="43.9122" lon="7.71734">
        <ele>713.622</ele>
        <time>2016-12-22T14:58:46Z</time>
      </trkpt>
      <trkpt lat="43.91218" lon="7.71731">
        <ele>713.914</ele>
        <time>2016-12-22T14:58:53Z</time>
      </trkpt>
      <trkpt lat="43.91219" lon="7.71727">
        <ele>714.512</ele>
        <time>2016-12-22T14:59:03Z</time>
      </trkpt>
      <trkpt lat="43.91221" lon="7.71725">
        <ele>714.763</ele>
        <time>2016-12-22T14:59:11Z</time>
      </trkpt>
      <trkpt lat="43.91218" lon="7.71723">
        <ele>716.673</ele>
        <time>2016-12-22T14:59:25Z</time>
      </trkpt>
      <trkpt lat="43.91215" lon="7.71723">
        <ele>716.942</ele>
        <time>2016-12-22T14:59:28Z</time>
      </trkpt>
      <trkpt lat="43.91211" lon="7.71721">
        <ele>717.351</ele>
        <time>2016-12-22T14:59:31Z</time>
      </trkpt>
      <trkpt lat="43.91209" lon="7.71719">
        <ele>717.418</ele>
        <time>2016-12-22T14:59:36Z</time>
      </trkpt>
      <trkpt lat="43.91206" lon="7.71721">
        <ele>717.921</ele>
        <time>2016-12-22T14:59:41Z</time>
      </trkpt>
      <trkpt lat="43.91203" lon="7.71722">
        <ele>718.326</ele>
        <time>2016-12-22T14:59:45Z</time>
      </trkpt>
      <trkpt lat="43.91202" lon="7.71719">
        <ele>719.054</ele>
        <time>2016-12-22T14:59:55Z</time>
      </trkpt>
      <trkpt lat="43.91199" lon="7.71718">
        <ele>719.76</ele>
        <time>2016-12-22T15:00:06Z</time>
      </trkpt>
      <trkpt lat="43.91195" lon="7.71719">
        <ele>720.964</ele>
        <time>2016-12-22T15:00:14Z</time>
      </trkpt>
      <trkpt lat="43.91193" lon="7.71722">
        <ele>723.385</ele>
        <time>2016-12-22T15:00:32Z</time>
      </trkpt>
      <trkpt lat="43.91189" lon="7.71722">
        <ele>723.611</ele>
        <time>2016-12-22T15:00:40Z</time>
      </trkpt>
      <trkpt lat="43.91186" lon="7.71725">
        <ele>723.964</ele>
        <time>2016-12-22T15:00:44Z</time>
      </trkpt>
      <trkpt lat="43.9118" lon="7.7173">
        <ele>724.389</ele>
        <time>2016-12-22T15:00:48Z</time>
      </trkpt>
      <trkpt lat="43.91179" lon="7.71733">
        <ele>725.265</ele>
        <time>2016-12-22T15:00:59Z</time>
      </trkpt>
      <trkpt lat="43.91177" lon="7.71736">
        <ele>725.394</ele>
        <time>2016-12-22T15:01:03Z</time>
      </trkpt>
      <trkpt lat="43.91177" lon="7.7174">
        <ele>725.177</ele>
        <time>2016-12-22T15:01:16Z</time>
      </trkpt>
      <trkpt lat="43.91176" lon="7.71744">
        <ele>725.283</ele>
        <time>2016-12-22T15:01:19Z</time>
      </trkpt>
      <trkpt lat="43.91174" lon="7.71747">
        <ele>725.717</ele>
        <time>2016-12-22T15:01:23Z</time>
      </trkpt>
      <trkpt lat="43.91171" lon="7.71749">
        <ele>726.459</ele>
        <time>2016-12-22T15:01:44Z</time>
      </trkpt>
      <trkpt lat="43.91169" lon="7.71752">
        <ele>727.042</ele>
        <time>2016-12-22T15:02:04Z</time>
      </trkpt>
      <trkpt lat="43.91172" lon="7.71753">
        <ele>728.211</ele>
        <time>2016-12-22T15:02:19Z</time>
      </trkpt>
      <trkpt lat="43.91171" lon="7.71757">
        <ele>729.053</ele>
        <time>2016-12-22T15:02:25Z</time>
      </trkpt>
      <trkpt lat="43.91168" lon="7.71758">
        <ele>729.409</ele>
        <time>2016-12-22T15:02:35Z</time>
      </trkpt>
      <trkpt lat="43.91165" lon="7.71757">
        <ele>729.479</ele>
        <time>2016-12-22T15:02:40Z</time>
      </trkpt>
      <trkpt lat="43.91167" lon="7.71759">
        <ele>732.201</ele>
        <time>2016-12-22T15:03:11Z</time>
      </trkpt>
      <trkpt lat="43.91169" lon="7.71756">
        <ele>733.891</ele>
        <time>2016-12-22T15:03:47Z</time>
      </trkpt>
      <trkpt lat="43.91167" lon="7.71759">
        <ele>734.483</ele>
        <time>2016-12-22T15:04:04Z</time>
      </trkpt>
      <trkpt lat="43.91167" lon="7.71764">
        <ele>734.471</ele>
        <time>2016-12-22T15:04:07Z</time>
      </trkpt>
      <trkpt lat="43.91167" lon="7.71768">
        <ele>734.171</ele>
        <time>2016-12-22T15:04:15Z</time>
      </trkpt>
      <trkpt lat="43.91168" lon="7.71771">
        <ele>735.114</ele>
        <time>2016-12-22T15:04:19Z</time>
      </trkpt>
      <trkpt lat="43.91169" lon="7.71776">
        <ele>736.349</ele>
        <time>2016-12-22T15:04:25Z</time>
      </trkpt>
      <trkpt lat="43.91167" lon="7.71779">
        <ele>736.769</ele>
        <time>2016-12-22T15:04:28Z</time>
      </trkpt>
      <trkpt lat="43.91165" lon="7.71782">
        <ele>737.194</ele>
        <time>2016-12-22T15:04:54Z</time>
      </trkpt>
      <trkpt lat="43.91162" lon="7.71784">
        <ele>735.416</ele>
        <time>2016-12-22T15:05:20Z</time>
      </trkpt>
      <trkpt lat="43.91161" lon="7.71787">
        <ele>735.407</ele>
        <time>2016-12-22T15:05:23Z</time>
      </trkpt>
      <trkpt lat="43.9116" lon="7.71791">
        <ele>735.584</ele>
        <time>2016-12-22T15:05:28Z</time>
      </trkpt>
      <trkpt lat="43.9116" lon="7.71795">
        <ele>736.912</ele>
        <time>2016-12-22T15:05:55Z</time>
      </trkpt>
      <trkpt lat="43.9116" lon="7.718">
        <ele>736.973</ele>
        <time>2016-12-22T15:05:58Z</time>
      </trkpt>
      <trkpt lat="43.91159" lon="7.71804">
        <ele>737.106</ele>
        <time>2016-12-22T15:06:00Z</time>
      </trkpt>
      <trkpt lat="43.91157" lon="7.71808">
        <ele>737.09</ele>
        <time>2016-12-22T15:06:02Z</time>
      </trkpt>
      <trkpt lat="43.91154" lon="7.7181">
        <ele>737.115</ele>
        <time>2016-12-22T15:06:05Z</time>
      </trkpt>
      <trkpt lat="43.91151" lon="7.71811">
        <ele>737.131</ele>
        <time>2016-12-22T15:06:09Z</time>
      </trkpt>
      <trkpt lat="43.9115" lon="7.71814">
        <ele>737.271</ele>
        <time>2016-12-22T15:06:13Z</time>
      </trkpt>
      <trkpt lat="43.91148" lon="7.71816">
        <ele>737.534</ele>
        <time>2016-12-22T15:06:16Z</time>
      </trkpt>
      <trkpt lat="43.91146" lon="7.71819">
        <ele>737.612</ele>
        <time>2016-12-22T15:06:20Z</time>
      </trkpt>
      <trkpt lat="43.91144" lon="7.71822">
        <ele>737.943</ele>
        <time>2016-12-22T15:06:23Z</time>
      </trkpt>
      <trkpt lat="43.91141" lon="7.71826">
        <ele>738.34</ele>
        <time>2016-12-22T15:06:26Z</time>
      </trkpt>
      <trkpt lat="43.91141" lon="7.7183">
        <ele>738.275</ele>
        <time>2016-12-22T15:06:36Z</time>
      </trkpt>
      <trkpt lat="43.91139" lon="7.71833">
        <ele>737.885</ele>
        <time>2016-12-22T15:06:41Z</time>
      </trkpt>
      <trkpt lat="43.91136" lon="7.71834">
        <ele>737.852</ele>
        <time>2016-12-22T15:07:09Z</time>
      </trkpt>
      <trkpt lat="43.91133" lon="7.71836">
        <ele>738.277</ele>
        <time>2016-12-22T15:07:13Z</time>
      </trkpt>
      <trkpt lat="43.9113" lon="7.71834">
        <ele>738.442</ele>
        <time>2016-12-22T15:07:19Z</time>
      </trkpt>
      <trkpt lat="43.91127" lon="7.71834">
        <ele>739.171</ele>
        <time>2016-12-22T15:07:24Z</time>
      </trkpt>
      <trkpt lat="43.91128" lon="7.71831">
        <ele>740.882</ele>
        <time>2016-12-22T15:07:46Z</time>
      </trkpt>
      <trkpt lat="43.91127" lon="7.71834">
        <ele>740.948</ele>
        <time>2016-12-22T15:08:07Z</time>
      </trkpt>
      <trkpt lat="43.91124" lon="7.71837">
        <ele>740.959</ele>
        <time>2016-12-22T15:08:11Z</time>
      </trkpt>
      <trkpt lat="43.91123" lon="7.71841">
        <ele>741.204</ele>
        <time>2016-12-22T15:08:17Z</time>
      </trkpt>
      <trkpt lat="43.91121" lon="7.71843">
        <ele>741.167</ele>
        <time>2016-12-22T15:08:19Z</time>
      </trkpt>
      <trkpt lat="43.91118" lon="7.71845">
        <ele>741.116</ele>
        <time>2016-12-22T15:08:21Z</time>
      </trkpt>
      <trkpt lat="43.91118" lon="7.71849">
        <ele>741.031</ele>
        <time>2016-12-22T15:08:24Z</time>
      </trkpt>
      <trkpt lat="43.91118" lon="7.71853">
        <ele>740.86</ele>
        <time>2016-12-22T15:08:30Z</time>
      </trkpt>
      <trkpt lat="43.91117" lon="7.71856">
        <ele>740.619</ele>
        <time>2016-12-22T15:08:56Z</time>
      </trkpt>
      <trkpt lat="43.91119" lon="7.71857">
        <ele>741.208</ele>
        <time>2016-12-22T15:09:09Z</time>
      </trkpt>
      <trkpt lat="43.91122" lon="7.71854">
        <ele>741.24</ele>
        <time>2016-12-22T15:09:13Z</time>
      </trkpt>
      <trkpt lat="43.91123" lon="7.71851">
        <ele>741.203</ele>
        <time>2016-12-22T15:09:26Z</time>
      </trkpt>
      <trkpt lat="43.91122" lon="7.71854">
        <ele>739.532</ele>
        <time>2016-12-22T15:11:14Z</time>
      </trkpt>
      <trkpt lat="43.91119" lon="7.71855">
        <ele>739.54</ele>
        <time>2016-12-22T15:11:17Z</time>
      </trkpt>
      <trkpt lat="43.91115" lon="7.71855">
        <ele>739.548</ele>
        <time>2016-12-22T15:11:20Z</time>
      </trkpt>
      <trkpt lat="43.91112" lon="7.71855">
        <ele>739.565</ele>
        <time>2016-12-22T15:11:24Z</time>
      </trkpt>
      <trkpt lat="43.91109" lon="7.71856">
        <ele>739.623</ele>
        <time>2016-12-22T15:11:36Z</time>
      </trkpt>
      <trkpt lat="43.91107" lon="7.71857">
        <ele>739.703</ele>
        <time>2016-12-22T15:11:46Z</time>
      </trkpt>
      <trkpt lat="43.91109" lon="7.71858">
        <ele>739.745</ele>
        <time>2016-12-22T15:11:59Z</time>
      </trkpt>
      <trkpt lat="43.91112" lon="7.71856">
        <ele>739.71</ele>
        <time>2016-12-22T15:12:03Z</time>
      </trkpt>
      <trkpt lat="43.91115" lon="7.71856">
        <ele>739.682</ele>
        <time>2016-12-22T15:12:05Z</time>
      </trkpt>
      <trkpt lat="43.91118" lon="7.71855">
        <ele>739.649</ele>
        <time>2016-12-22T15:12:07Z</time>
      </trkpt>
      <trkpt lat="43.91121" lon="7.71853">
        <ele>739.592</ele>
        <time>2016-12-22T15:12:10Z</time>
      </trkpt>
      <trkpt lat="43.91119" lon="7.71851">
        <ele>743.164</ele>
        <time>2016-12-22T15:15:24Z</time>
      </trkpt>
      <trkpt lat="43.91116" lon="7.71849">
        <ele>742.691</ele>
        <time>2016-12-22T15:17:27Z</time>
      </trkpt>
      <trkpt lat="43.91116" lon="7.71852">
        <ele>742.761</ele>
        <time>2016-12-22T15:17:43Z</time>
      </trkpt>
      <trkpt lat="43.91116" lon="7.71857">
        <ele>742.633</ele>
        <time>2016-12-22T15:17:51Z</time>
      </trkpt>
      <trkpt lat="43.91117" lon="7.71853">
        <ele>742.483</ele>
        <time>2016-12-22T15:18:47Z</time>
      </trkpt>
      <trkpt lat="43.91117" lon="7.71857">
        <ele>740.981</ele>
        <time>2016-12-22T15:19:00Z</time>
      </trkpt>
      <trkpt lat="43.91116" lon="7.71861">
        <ele>742.897</ele>
        <time>2016-12-22T15:19:32Z</time>
      </trkpt>
      <trkpt lat="43.91118" lon="7.71865">
        <ele>742.642</ele>
        <time>2016-12-22T15:19:39Z</time>
      </trkpt>
      <trkpt lat="43.91118" lon="7.71869">
        <ele>742.629</ele>
        <time>2016-12-22T15:19:42Z</time>
      </trkpt>
      <trkpt lat="43.91117" lon="7.71872">
        <ele>742.373</ele>
        <time>2016-12-22T15:19:50Z</time>
      </trkpt>
      <trkpt lat="43.91116" lon="7.71876">
        <ele>742.366</ele>
        <time>2016-12-22T15:19:56Z</time>
      </trkpt>
      <trkpt lat="43.91118" lon="7.7188">
        <ele>742.744</ele>
        <time>2016-12-22T15:20:07Z</time>
      </trkpt>
      <trkpt lat="43.9112" lon="7.71882">
        <ele>743.028</ele>
        <time>2016-12-22T15:20:13Z</time>
      </trkpt>
      <trkpt lat="43.91123" lon="7.71881">
        <ele>742.991</ele>
        <time>2016-12-22T15:20:24Z</time>
      </trkpt>
      <trkpt lat="43.91123" lon="7.71876">
        <ele>743.119</ele>
        <time>2016-12-22T15:20:30Z</time>
      </trkpt>
      <trkpt lat="43.9112" lon="7.7188">
        <ele>742.994</ele>
        <time>2016-12-22T15:20:51Z</time>
      </trkpt>
      <trkpt lat="43.91117" lon="7.71882">
        <ele>742.978</ele>
        <time>2016-12-22T15:20:55Z</time>
      </trkpt>
      <trkpt lat="43.91114" lon="7.71882">
        <ele>743.491</ele>
        <time>2016-12-22T15:21:15Z</time>
      </trkpt>
      <trkpt lat="43.91111" lon="7.71882">
        <ele>745.23</ele>
        <time>2016-12-22T15:22:23Z</time>
      </trkpt>
      <trkpt lat="43.91109" lon="7.71883">
        <ele>744.995</ele>
        <time>2016-12-22T15:22:32Z</time>
      </trkpt>
      <trkpt lat="43.91109" lon="7.71887">
        <ele>745.112</ele>
        <time>2016-12-22T15:22:40Z</time>
      </trkpt>
      <trkpt lat="43.91109" lon="7.71891">
        <ele>745.913</ele>
        <time>2016-12-22T15:23:11Z</time>
      </trkpt>
      <trkpt lat="43.91107" lon="7.71895">
        <ele>745.896</ele>
        <time>2016-12-22T15:23:13Z</time>
      </trkpt>
      <trkpt lat="43.91105" lon="7.71898">
        <ele>745.784</ele>
        <time>2016-12-22T15:23:17Z</time>
      </trkpt>
      <trkpt lat="43.91102" lon="7.719">
        <ele>746.049</ele>
        <time>2016-12-22T15:23:27Z</time>
      </trkpt>
      <trkpt lat="43.91099" lon="7.719">
        <ele>746.229</ele>
        <time>2016-12-22T15:23:36Z</time>
      </trkpt>
      <trkpt lat="43.91097" lon="7.71902">
        <ele>746.216</ele>
        <time>2016-12-22T15:23:46Z</time>
      </trkpt>
      <trkpt lat="43.91096" lon="7.71906">
        <ele>745.447</ele>
        <time>2016-12-22T15:23:57Z</time>
      </trkpt>
      <trkpt lat="43.91095" lon="7.71909">
        <ele>745.257</ele>
        <time>2016-12-22T15:24:02Z</time>
      </trkpt>
      <trkpt lat="43.91092" lon="7.7191">
        <ele>745.283</ele>
        <time>2016-12-22T15:24:05Z</time>
      </trkpt>
      <trkpt lat="43.91089" lon="7.71912">
        <ele>745.543</ele>
        <time>2016-12-22T15:24:08Z</time>
      </trkpt>
      <trkpt lat="43.91086" lon="7.71914">
        <ele>744.781</ele>
        <time>2016-12-22T15:24:25Z</time>
      </trkpt>
      <trkpt lat="43.91084" lon="7.71916">
        <ele>744.575</ele>
        <time>2016-12-22T15:24:29Z</time>
      </trkpt>
      <trkpt lat="43.91081" lon="7.71918">
        <ele>744.649</ele>
        <time>2016-12-22T15:24:38Z</time>
      </trkpt>
      <trkpt lat="43.91079" lon="7.71921">
        <ele>744.753</ele>
        <time>2016-12-22T15:24:43Z</time>
      </trkpt>
      <trkpt lat="43.91077" lon="7.71924">
        <ele>744.566</ele>
        <time>2016-12-22T15:24:45Z</time>
      </trkpt>
      <trkpt lat="43.91076" lon="7.71928">
        <ele>744.36</ele>
        <time>2016-12-22T15:24:47Z</time>
      </trkpt>
      <trkpt lat="43.91076" lon="7.71932">
        <ele>744.56</ele>
        <time>2016-12-22T15:25:13Z</time>
      </trkpt>
      <trkpt lat="43.91075" lon="7.71936">
        <ele>745.123</ele>
        <time>2016-12-22T15:25:18Z</time>
      </trkpt>
      <trkpt lat="43.91075" lon="7.7194">
        <ele>745.269</ele>
        <time>2016-12-22T15:25:23Z</time>
      </trkpt>
      <trkpt lat="43.91074" lon="7.71945">
        <ele>745.595</ele>
        <time>2016-12-22T15:25:37Z</time>
      </trkpt>
      <trkpt lat="43.91073" lon="7.71949">
        <ele>745.701</ele>
        <time>2016-12-22T15:25:41Z</time>
      </trkpt>
      <trkpt lat="43.91072" lon="7.71953">
        <ele>746.06</ele>
        <time>2016-12-22T15:25:44Z</time>
      </trkpt>
      <trkpt lat="43.91073" lon="7.71956">
        <ele>746.666</ele>
        <time>2016-12-22T15:25:57Z</time>
      </trkpt>
      <trkpt lat="43.91073" lon="7.7196">
        <ele>746.974</ele>
        <time>2016-12-22T15:26:14Z</time>
      </trkpt>
      <trkpt lat="43.91071" lon="7.71963">
        <ele>747.114</ele>
        <time>2016-12-22T15:26:17Z</time>
      </trkpt>
      <trkpt lat="43.9107" lon="7.71966">
        <ele>746.977</ele>
        <time>2016-12-22T15:26:26Z</time>
      </trkpt>
      <trkpt lat="43.91069" lon="7.71971">
        <ele>746.883</ele>
        <time>2016-12-22T15:26:29Z</time>
      </trkpt>
      <trkpt lat="43.91068" lon="7.71975">
        <ele>746.973</ele>
        <time>2016-12-22T15:26:33Z</time>
      </trkpt>
      <trkpt lat="43.91068" lon="7.71979">
        <ele>747.335</ele>
        <time>2016-12-22T15:26:40Z</time>
      </trkpt>
      <trkpt lat="43.9107" lon="7.71977">
        <ele>747.163</ele>
        <time>2016-12-22T15:26:58Z</time>
      </trkpt>
      <trkpt lat="43.91074" lon="7.71976">
        <ele>747.132</ele>
        <time>2016-12-22T15:27:01Z</time>
      </trkpt>
      <trkpt lat="43.91077" lon="7.71975">
        <ele>747.097</ele>
        <time>2016-12-22T15:27:05Z</time>
      </trkpt>
      <trkpt lat="43.91075" lon="7.7197">
        <ele>747.046</ele>
        <time>2016-12-22T15:27:10Z</time>
      </trkpt>
      <trkpt lat="43.91071" lon="7.71969">
        <ele>747.176</ele>
        <time>2016-12-22T15:27:12Z</time>
      </trkpt>
      <trkpt lat="43.91069" lon="7.71973">
        <ele>748.393</ele>
        <time>2016-12-22T15:27:24Z</time>
      </trkpt>
      <trkpt lat="43.91071" lon="7.71976">
        <ele>748.517</ele>
        <time>2016-12-22T15:27:40Z</time>
      </trkpt>
      <trkpt lat="43.91074" lon="7.71977">
        <ele>748.504</ele>
        <time>2016-12-22T15:27:46Z</time>
      </trkpt>
      <trkpt lat="43.91077" lon="7.71978">
        <ele>748.321</ele>
        <time>2016-12-22T15:27:51Z</time>
      </trkpt>
      <trkpt lat="43.91078" lon="7.71975">
        <ele>748.397</ele>
        <time>2016-12-22T15:28:36Z</time>
      </trkpt>
      <trkpt lat="43.91079" lon="7.71978">
        <ele>749.011</ele>
        <time>2016-12-22T15:28:48Z</time>
      </trkpt>
      <trkpt lat="43.9108" lon="7.71981">
        <ele>749.306</ele>
        <time>2016-12-22T15:28:52Z</time>
      </trkpt>
      <trkpt lat="43.91078" lon="7.71979">
        <ele>750.132</ele>
        <time>2016-12-22T15:29:16Z</time>
      </trkpt>
      <trkpt lat="43.91081" lon="7.7198">
        <ele>755.032</ele>
        <time>2016-12-22T15:33:18Z</time>
      </trkpt>
      <trkpt lat="43.91081" lon="7.71984">
        <ele>755.309</ele>
        <time>2016-12-22T15:33:27Z</time>
      </trkpt>
      <trkpt lat="43.91082" lon="7.71988">
        <ele>755.518</ele>
        <time>2016-12-22T15:33:32Z</time>
      </trkpt>
      <trkpt lat="43.9108" lon="7.7199">
        <ele>756.579</ele>
        <time>2016-12-22T15:33:46Z</time>
      </trkpt>
      <trkpt lat="43.91077" lon="7.71991">
        <ele>756.857</ele>
        <time>2016-12-22T15:33:48Z</time>
      </trkpt>
      <trkpt lat="43.91078" lon="7.71995">
        <ele>757.091</ele>
        <time>2016-12-22T15:33:50Z</time>
      </trkpt>
      <trkpt lat="43.91079" lon="7.71999">
        <ele>757.634</ele>
        <time>2016-12-22T15:34:03Z</time>
      </trkpt>
      <trkpt lat="43.91076" lon="7.72001">
        <ele>758.037</ele>
        <time>2016-12-22T15:34:18Z</time>
      </trkpt>
      <trkpt lat="43.91073" lon="7.72002">
        <ele>758.617</ele>
        <time>2016-12-22T15:34:26Z</time>
      </trkpt>
      <trkpt lat="43.91071" lon="7.72006">
        <ele>758.894</ele>
        <time>2016-12-22T15:34:30Z</time>
      </trkpt>
      <trkpt lat="43.91073" lon="7.7201">
        <ele>759.218</ele>
        <time>2016-12-22T15:34:49Z</time>
      </trkpt>
      <trkpt lat="43.91071" lon="7.72014">
        <ele>759.278</ele>
        <time>2016-12-22T15:34:52Z</time>
      </trkpt>
      <trkpt lat="43.9107" lon="7.72017">
        <ele>759.294</ele>
        <time>2016-12-22T15:34:55Z</time>
      </trkpt>
      <trkpt lat="43.91067" lon="7.7202">
        <ele>759.603</ele>
        <time>2016-12-22T15:35:04Z</time>
      </trkpt>
      <trkpt lat="43.9107" lon="7.72023">
        <ele>760.157</ele>
        <time>2016-12-22T15:35:14Z</time>
      </trkpt>
      <trkpt lat="43.9107" lon="7.72027">
        <ele>761.587</ele>
        <time>2016-12-22T15:35:23Z</time>
      </trkpt>
      <trkpt lat="43.9107" lon="7.72031">
        <ele>761.881</ele>
        <time>2016-12-22T15:35:35Z</time>
      </trkpt>
      <trkpt lat="43.9107" lon="7.72036">
        <ele>760.899</ele>
        <time>2016-12-22T15:35:45Z</time>
      </trkpt>
      <trkpt lat="43.91072" lon="7.7204">
        <ele>760.983</ele>
        <time>2016-12-22T15:35:47Z</time>
      </trkpt>
      <trkpt lat="43.91072" lon="7.72045">
        <ele>761.22</ele>
        <time>2016-12-22T15:35:50Z</time>
      </trkpt>
      <trkpt lat="43.91073" lon="7.72049">
        <ele>762.145</ele>
        <time>2016-12-22T15:35:59Z</time>
      </trkpt>
      <trkpt lat="43.91073" lon="7.72054">
        <ele>762.716</ele>
        <time>2016-12-22T15:36:09Z</time>
      </trkpt>
      <trkpt lat="43.91075" lon="7.72057">
        <ele>762.957</ele>
        <time>2016-12-22T15:36:20Z</time>
      </trkpt>
      <trkpt lat="43.91076" lon="7.72064">
        <ele>762.998</ele>
        <time>2016-12-22T15:36:24Z</time>
      </trkpt>
      <trkpt lat="43.91077" lon="7.7207">
        <ele>763.481</ele>
        <time>2016-12-22T15:36:29Z</time>
      </trkpt>
      <trkpt lat="43.91079" lon="7.72073">
        <ele>763.863</ele>
        <time>2016-12-22T15:36:32Z</time>
      </trkpt>
      <trkpt lat="43.91081" lon="7.72077">
        <ele>764.666</ele>
        <time>2016-12-22T15:36:41Z</time>
      </trkpt>
      <trkpt lat="43.91083" lon="7.7208">
        <ele>765.109</ele>
        <time>2016-12-22T15:36:43Z</time>
      </trkpt>
      <trkpt lat="43.91083" lon="7.72084">
        <ele>765.67</ele>
        <time>2016-12-22T15:36:54Z</time>
      </trkpt>
      <trkpt lat="43.9108" lon="7.72084">
        <ele>766.212</ele>
        <time>2016-12-22T15:37:03Z</time>
      </trkpt>
      <trkpt lat="43.9108" lon="7.72088">
        <ele>766.745</ele>
        <time>2016-12-22T15:37:08Z</time>
      </trkpt>
      <trkpt lat="43.91079" lon="7.72092">
        <ele>767.369</ele>
        <time>2016-12-22T15:37:14Z</time>
      </trkpt>
      <trkpt lat="43.9108" lon="7.72096">
        <ele>767.756</ele>
        <time>2016-12-22T15:37:20Z</time>
      </trkpt>
      <trkpt lat="43.91081" lon="7.721">
        <ele>768.257</ele>
        <time>2016-12-22T15:37:43Z</time>
      </trkpt>
      <trkpt lat="43.91082" lon="7.72103">
        <ele>769.165</ele>
        <time>2016-12-22T15:37:51Z</time>
      </trkpt>
      <trkpt lat="43.91084" lon="7.72108">
        <ele>770.711</ele>
        <time>2016-12-22T15:37:58Z</time>
      </trkpt>
      <trkpt lat="43.91086" lon="7.72111">
        <ele>771.156</ele>
        <time>2016-12-22T15:38:01Z</time>
      </trkpt>
      <trkpt lat="43.91084" lon="7.72115">
        <ele>771.616</ele>
        <time>2016-12-22T15:38:15Z</time>
      </trkpt>
      <trkpt lat="43.91083" lon="7.7212">
        <ele>772.123</ele>
        <time>2016-12-22T15:38:19Z</time>
      </trkpt>
      <trkpt lat="43.91083" lon="7.72124">
        <ele>772.998</ele>
        <time>2016-12-22T15:38:29Z</time>
      </trkpt>
      <trkpt lat="43.91081" lon="7.72128">
        <ele>773.87</ele>
        <time>2016-12-22T15:38:34Z</time>
      </trkpt>
      <trkpt lat="43.91081" lon="7.72131">
        <ele>774.436</ele>
        <time>2016-12-22T15:38:43Z</time>
      </trkpt>
      <trkpt lat="43.91078" lon="7.7213">
        <ele>775.961</ele>
        <time>2016-12-22T15:38:57Z</time>
      </trkpt>
      <trkpt lat="43.91079" lon="7.72135">
        <ele>777</ele>
        <time>2016-12-22T15:39:03Z</time>
      </trkpt>
      <trkpt lat="43.91081" lon="7.72137">
        <ele>777.436</ele>
        <time>2016-12-22T15:39:05Z</time>
      </trkpt>
      <trkpt lat="43.91082" lon="7.72141">
        <ele>777.72</ele>
        <time>2016-12-22T15:39:07Z</time>
      </trkpt>
      <trkpt lat="43.91083" lon="7.72146">
        <ele>778.201</ele>
        <time>2016-12-22T15:39:10Z</time>
      </trkpt>
      <trkpt lat="43.91083" lon="7.7215">
        <ele>781.453</ele>
        <time>2016-12-22T15:39:36Z</time>
      </trkpt>
      <trkpt lat="43.91086" lon="7.72152">
        <ele>781.551</ele>
        <time>2016-12-22T15:39:43Z</time>
      </trkpt>
      <trkpt lat="43.91087" lon="7.72156">
        <ele>781.862</ele>
        <time>2016-12-22T15:39:50Z</time>
      </trkpt>
      <trkpt lat="43.91088" lon="7.72161">
        <ele>782.109</ele>
        <time>2016-12-22T15:39:52Z</time>
      </trkpt>
      <trkpt lat="43.91089" lon="7.72165">
        <ele>782.132</ele>
        <time>2016-12-22T15:39:55Z</time>
      </trkpt>
      <trkpt lat="43.91088" lon="7.72171">
        <ele>782.851</ele>
        <time>2016-12-22T15:40:07Z</time>
      </trkpt>
      <trkpt lat="43.91088" lon="7.72176">
        <ele>782.877</ele>
        <time>2016-12-22T15:40:10Z</time>
      </trkpt>
      <trkpt lat="43.91087" lon="7.7218">
        <ele>783.536</ele>
        <time>2016-12-22T15:40:41Z</time>
      </trkpt>
      <trkpt lat="43.91086" lon="7.72183">
        <ele>783.865</ele>
        <time>2016-12-22T15:40:45Z</time>
      </trkpt>
      <trkpt lat="43.91086" lon="7.72188">
        <ele>784.375</ele>
        <time>2016-12-22T15:40:49Z</time>
      </trkpt>
      <trkpt lat="43.91083" lon="7.72189">
        <ele>784.397</ele>
        <time>2016-12-22T15:40:59Z</time>
      </trkpt>
      <trkpt lat="43.91085" lon="7.72193">
        <ele>784.578</ele>
        <time>2016-12-22T15:41:11Z</time>
      </trkpt>
      <trkpt lat="43.91084" lon="7.72196">
        <ele>785.558</ele>
        <time>2016-12-22T15:41:23Z</time>
      </trkpt>
      <trkpt lat="43.91083" lon="7.722">
        <ele>786.329</ele>
        <time>2016-12-22T15:41:30Z</time>
      </trkpt>
      <trkpt lat="43.91083" lon="7.72204">
        <ele>786.935</ele>
        <time>2016-12-22T15:41:47Z</time>
      </trkpt>
      <trkpt lat="43.9108" lon="7.72204">
        <ele>787.856</ele>
        <time>2016-12-22T15:42:04Z</time>
      </trkpt>
      <trkpt lat="43.9108" lon="7.72208">
        <ele>788.856</ele>
        <time>2016-12-22T15:42:43Z</time>
      </trkpt>
      <trkpt lat="43.91079" lon="7.72212">
        <ele>789.034</ele>
        <time>2016-12-22T15:42:47Z</time>
      </trkpt>
      <trkpt lat="43.91078" lon="7.72216">
        <ele>789.964</ele>
        <time>2016-12-22T15:43:23Z</time>
      </trkpt>
      <trkpt lat="43.91078" lon="7.7222">
        <ele>790.234</ele>
        <time>2016-12-22T15:43:35Z</time>
      </trkpt>
      <trkpt lat="43.9108" lon="7.72223">
        <ele>791.108</ele>
        <time>2016-12-22T15:43:45Z</time>
      </trkpt>
      <trkpt lat="43.91078" lon="7.72226">
        <ele>791.572</ele>
        <time>2016-12-22T15:43:53Z</time>
      </trkpt>
      <trkpt lat="43.91076" lon="7.72229">
        <ele>792.462</ele>
        <time>2016-12-22T15:44:03Z</time>
      </trkpt>
      <trkpt lat="43.91074" lon="7.72232">
        <ele>792.283</ele>
        <time>2016-12-22T15:44:08Z</time>
      </trkpt>
      <trkpt lat="43.91074" lon="7.72237">
        <ele>792.323</ele>
        <time>2016-12-22T15:44:13Z</time>
      </trkpt>
      <trkpt lat="43.91073" lon="7.7224">
        <ele>792.293</ele>
        <time>2016-12-22T15:44:16Z</time>
      </trkpt>
      <trkpt lat="43.9107" lon="7.72241">
        <ele>793.139</ele>
        <time>2016-12-22T15:44:34Z</time>
      </trkpt>
      <trkpt lat="43.91068" lon="7.72243">
        <ele>794.553</ele>
        <time>2016-12-22T15:44:51Z</time>
      </trkpt>
      <trkpt lat="43.91066" lon="7.72246">
        <ele>794.772</ele>
        <time>2016-12-22T15:44:53Z</time>
      </trkpt>
      <trkpt lat="43.91063" lon="7.72252">
        <ele>794.967</ele>
        <time>2016-12-22T15:44:56Z</time>
      </trkpt>
      <trkpt lat="43.91061" lon="7.72254">
        <ele>795.526</ele>
        <time>2016-12-22T15:45:04Z</time>
      </trkpt>
      <trkpt lat="43.91058" lon="7.72258">
        <ele>795.786</ele>
        <time>2016-12-22T15:45:08Z</time>
      </trkpt>
      <trkpt lat="43.91056" lon="7.72262">
        <ele>796.057</ele>
        <time>2016-12-22T15:45:18Z</time>
      </trkpt>
      <trkpt lat="43.91058" lon="7.72264">
        <ele>796.309</ele>
        <time>2016-12-22T15:45:22Z</time>
      </trkpt>
      <trkpt lat="43.91056" lon="7.72267">
        <ele>796.336</ele>
        <time>2016-12-22T15:45:24Z</time>
      </trkpt>
      <trkpt lat="43.91054" lon="7.72269">
        <ele>796.666</ele>
        <time>2016-12-22T15:45:38Z</time>
      </trkpt>
      <trkpt lat="43.91052" lon="7.72271">
        <ele>796.87</ele>
        <time>2016-12-22T15:45:43Z</time>
      </trkpt>
      <trkpt lat="43.91051" lon="7.72275">
        <ele>796.823</ele>
        <time>2016-12-22T15:45:46Z</time>
      </trkpt>
      <trkpt lat="43.91049" lon="7.72278">
        <ele>797.21</ele>
        <time>2016-12-22T15:46:03Z</time>
      </trkpt>
      <trkpt lat="43.91047" lon="7.72282">
        <ele>797.972</ele>
        <time>2016-12-22T15:46:44Z</time>
      </trkpt>
      <trkpt lat="43.91046" lon="7.72285">
        <ele>798.204</ele>
        <time>2016-12-22T15:46:51Z</time>
      </trkpt>
      <trkpt lat="43.91043" lon="7.72286">
        <ele>798.484</ele>
        <time>2016-12-22T15:46:58Z</time>
      </trkpt>
      <trkpt lat="43.91041" lon="7.72282">
        <ele>798.633</ele>
        <time>2016-12-22T15:47:05Z</time>
      </trkpt>
      <trkpt lat="43.91041" lon="7.72278">
        <ele>798.789</ele>
        <time>2016-12-22T15:47:15Z</time>
      </trkpt>
      <trkpt lat="43.91042" lon="7.72282">
        <ele>799.991</ele>
        <time>2016-12-22T15:47:44Z</time>
      </trkpt>
      <trkpt lat="43.91043" lon="7.72286">
        <ele>801.047</ele>
        <time>2016-12-22T15:48:16Z</time>
      </trkpt>
      <trkpt lat="43.91043" lon="7.72289">
        <ele>801.388</ele>
        <time>2016-12-22T15:48:29Z</time>
      </trkpt>
      <trkpt lat="43.9104" lon="7.7229">
        <ele>801.52</ele>
        <time>2016-12-22T15:48:32Z</time>
      </trkpt>
      <trkpt lat="43.91037" lon="7.72291">
        <ele>801.579</ele>
        <time>2016-12-22T15:48:34Z</time>
      </trkpt>
      <trkpt lat="43.91034" lon="7.72292">
        <ele>801.667</ele>
        <time>2016-12-22T15:48:36Z</time>
      </trkpt>
      <trkpt lat="43.91031" lon="7.72294">
        <ele>801.716</ele>
        <time>2016-12-22T15:48:38Z</time>
      </trkpt>
      <trkpt lat="43.91028" lon="7.72298">
        <ele>801.722</ele>
        <time>2016-12-22T15:48:46Z</time>
      </trkpt>
      <trkpt lat="43.91025" lon="7.723">
        <ele>801.627</ele>
        <time>2016-12-22T15:48:49Z</time>
      </trkpt>
      <trkpt lat="43.91023" lon="7.72301">
        <ele>801.712</ele>
        <time>2016-12-22T15:48:53Z</time>
      </trkpt>
      <trkpt lat="43.9102" lon="7.723">
        <ele>801.889</ele>
        <time>2016-12-22T15:49:02Z</time>
      </trkpt>
      <trkpt lat="43.91017" lon="7.72301">
        <ele>801.956</ele>
        <time>2016-12-22T15:49:08Z</time>
      </trkpt>
      <trkpt lat="43.91015" lon="7.72304">
        <ele>802.18</ele>
        <time>2016-12-22T15:49:16Z</time>
      </trkpt>
      <trkpt lat="43.91012" lon="7.72307">
        <ele>802.06</ele>
        <time>2016-12-22T15:49:18Z</time>
      </trkpt>
      <trkpt lat="43.9101" lon="7.72311">
        <ele>802.057</ele>
        <time>2016-12-22T15:49:20Z</time>
      </trkpt>
      <trkpt lat="43.91008" lon="7.72314">
        <ele>802.062</ele>
        <time>2016-12-22T15:49:23Z</time>
      </trkpt>
      <trkpt lat="43.91007" lon="7.72318">
        <ele>802.021</ele>
        <time>2016-12-22T15:49:26Z</time>
      </trkpt>
      <trkpt lat="43.91005" lon="7.72321">
        <ele>801.961</ele>
        <time>2016-12-22T15:49:28Z</time>
      </trkpt>
      <trkpt lat="43.91004" lon="7.72325">
        <ele>801.878</ele>
        <time>2016-12-22T15:49:31Z</time>
      </trkpt>
      <trkpt lat="43.91002" lon="7.72328">
        <ele>801.934</ele>
        <time>2016-12-22T15:49:34Z</time>
      </trkpt>
      <trkpt lat="43.90999" lon="7.72331">
        <ele>801.951</ele>
        <time>2016-12-22T15:49:36Z</time>
      </trkpt>
      <trkpt lat="43.90996" lon="7.72331">
        <ele>801.932</ele>
        <time>2016-12-22T15:49:39Z</time>
      </trkpt>
      <trkpt lat="43.90993" lon="7.72329">
        <ele>801.85</ele>
        <time>2016-12-22T15:49:42Z</time>
      </trkpt>
      <trkpt lat="43.9099" lon="7.72328">
        <ele>801.729</ele>
        <time>2016-12-22T15:49:44Z</time>
      </trkpt>
      <trkpt lat="43.90987" lon="7.72326">
        <ele>801.282</ele>
        <time>2016-12-22T15:49:50Z</time>
      </trkpt>
      <trkpt lat="43.90985" lon="7.72323">
        <ele>800.952</ele>
        <time>2016-12-22T15:50:00Z</time>
      </trkpt>
      <trkpt lat="43.90982" lon="7.72316">
        <ele>800.833</ele>
        <time>2016-12-22T15:50:02Z</time>
      </trkpt>
      <trkpt lat="43.90978" lon="7.72308">
        <ele>800.749</ele>
        <time>2016-12-22T15:50:05Z</time>
      </trkpt>
      <trkpt lat="43.90976" lon="7.72306">
        <ele>800.5</ele>
        <time>2016-12-22T15:50:08Z</time>
      </trkpt>
      <trkpt lat="43.90972" lon="7.72304">
        <ele>800.366</ele>
        <time>2016-12-22T15:50:11Z</time>
      </trkpt>
      <trkpt lat="43.90968" lon="7.72302">
        <ele>800.287</ele>
        <time>2016-12-22T15:50:13Z</time>
      </trkpt>
      <trkpt lat="43.90965" lon="7.72302">
        <ele>799.965</ele>
        <time>2016-12-22T15:50:16Z</time>
      </trkpt>
      <trkpt lat="43.90963" lon="7.72299">
        <ele>799.564</ele>
        <time>2016-12-22T15:50:27Z</time>
      </trkpt>
      <trkpt lat="43.90959" lon="7.72298">
        <ele>799.535</ele>
        <time>2016-12-22T15:50:29Z</time>
      </trkpt>
      <trkpt lat="43.90956" lon="7.72297">
        <ele>799.53</ele>
        <time>2016-12-22T15:50:31Z</time>
      </trkpt>
      <trkpt lat="43.90952" lon="7.72298">
        <ele>799.417</ele>
        <time>2016-12-22T15:50:34Z</time>
      </trkpt>
      <trkpt lat="43.90949" lon="7.72298">
        <ele>799.194</ele>
        <time>2016-12-22T15:50:37Z</time>
      </trkpt>
      <trkpt lat="43.90946" lon="7.723">
        <ele>798.858</ele>
        <time>2016-12-22T15:50:42Z</time>
      </trkpt>
      <trkpt lat="43.90943" lon="7.72302">
        <ele>798.404</ele>
        <time>2016-12-22T15:50:46Z</time>
      </trkpt>
      <trkpt lat="43.90939" lon="7.72303">
        <ele>798.643</ele>
        <time>2016-12-22T15:50:51Z</time>
      </trkpt>
      <trkpt lat="43.90936" lon="7.72302">
        <ele>799.002</ele>
        <time>2016-12-22T15:50:54Z</time>
      </trkpt>
      <trkpt lat="43.90932" lon="7.72303">
        <ele>799.338</ele>
        <time>2016-12-22T15:50:58Z</time>
      </trkpt>
      <trkpt lat="43.90929" lon="7.72305">
        <ele>799.637</ele>
        <time>2016-12-22T15:51:01Z</time>
      </trkpt>
      <trkpt lat="43.90927" lon="7.72307">
        <ele>799.598</ele>
        <time>2016-12-22T15:51:03Z</time>
      </trkpt>
      <trkpt lat="43.90924" lon="7.72311">
        <ele>799.671</ele>
        <time>2016-12-22T15:51:06Z</time>
      </trkpt>
      <trkpt lat="43.90922" lon="7.72313">
        <ele>799.629</ele>
        <time>2016-12-22T15:51:08Z</time>
      </trkpt>
      <trkpt lat="43.9092" lon="7.72316">
        <ele>799.459</ele>
        <time>2016-12-22T15:51:10Z</time>
      </trkpt>
      <trkpt lat="43.90917" lon="7.7232">
        <ele>799.407</ele>
        <time>2016-12-22T15:51:13Z</time>
      </trkpt>
      <trkpt lat="43.90916" lon="7.72324">
        <ele>799.251</ele>
        <time>2016-12-22T15:51:15Z</time>
      </trkpt>
      <trkpt lat="43.90915" lon="7.72327">
        <ele>798.95</ele>
        <time>2016-12-22T15:51:19Z</time>
      </trkpt>
      <trkpt lat="43.90913" lon="7.72332">
        <ele>798.52</ele>
        <time>2016-12-22T15:51:24Z</time>
      </trkpt>
      <trkpt lat="43.90911" lon="7.72335">
        <ele>798.459</ele>
        <time>2016-12-22T15:51:33Z</time>
      </trkpt>
      <trkpt lat="43.90908" lon="7.72339">
        <ele>798.82</ele>
        <time>2016-12-22T15:51:37Z</time>
      </trkpt>
      <trkpt lat="43.90906" lon="7.72342">
        <ele>799.107</ele>
        <time>2016-12-22T15:51:40Z</time>
      </trkpt>
      <trkpt lat="43.90903" lon="7.72343">
        <ele>798.895</ele>
        <time>2016-12-22T15:51:48Z</time>
      </trkpt>
      <trkpt lat="43.909" lon="7.72346">
        <ele>799.203</ele>
        <time>2016-12-22T15:51:51Z</time>
      </trkpt>
      <trkpt lat="43.90898" lon="7.72349">
        <ele>799.715</ele>
        <time>2016-12-22T15:51:57Z</time>
      </trkpt>
      <trkpt lat="43.90896" lon="7.72352">
        <ele>799.734</ele>
        <time>2016-12-22T15:52:00Z</time>
      </trkpt>
      <trkpt lat="43.90897" lon="7.72356">
        <ele>799.8</ele>
        <time>2016-12-22T15:52:02Z</time>
      </trkpt>
      <trkpt lat="43.90897" lon="7.7236">
        <ele>799.337</ele>
        <time>2016-12-22T15:52:08Z</time>
      </trkpt>
      <trkpt lat="43.90897" lon="7.72366">
        <ele>799.199</ele>
        <time>2016-12-22T15:52:13Z</time>
      </trkpt>
      <trkpt lat="43.90896" lon="7.72369">
        <ele>799.176</ele>
        <time>2016-12-22T15:52:20Z</time>
      </trkpt>
      <trkpt lat="43.90895" lon="7.72373">
        <ele>799.488</ele>
        <time>2016-12-22T15:52:30Z</time>
      </trkpt>
      <trkpt lat="43.90893" lon="7.72377">
        <ele>799.879</ele>
        <time>2016-12-22T15:52:33Z</time>
      </trkpt>
      <trkpt lat="43.90892" lon="7.7238">
        <ele>800.776</ele>
        <time>2016-12-22T15:52:55Z</time>
      </trkpt>
      <trkpt lat="43.9089" lon="7.72384">
        <ele>800.708</ele>
        <time>2016-12-22T15:52:58Z</time>
      </trkpt>
      <trkpt lat="43.90888" lon="7.72386">
        <ele>799.594</ele>
        <time>2016-12-22T15:53:10Z</time>
      </trkpt>
      <trkpt lat="43.90885" lon="7.72388">
        <ele>800.921</ele>
        <time>2016-12-22T15:53:34Z</time>
      </trkpt>
      <trkpt lat="43.90882" lon="7.72391">
        <ele>800.995</ele>
        <time>2016-12-22T15:53:43Z</time>
      </trkpt>
      <trkpt lat="43.9088" lon="7.72395">
        <ele>800.812</ele>
        <time>2016-12-22T15:53:46Z</time>
      </trkpt>
      <trkpt lat="43.90879" lon="7.72399">
        <ele>800.509</ele>
        <time>2016-12-22T15:53:53Z</time>
      </trkpt>
      <trkpt lat="43.90878" lon="7.72403">
        <ele>800.244</ele>
        <time>2016-12-22T15:53:59Z</time>
      </trkpt>
      <trkpt lat="43.90877" lon="7.72407">
        <ele>799.815</ele>
        <time>2016-12-22T15:54:04Z</time>
      </trkpt>
      <trkpt lat="43.90875" lon="7.7241">
        <ele>800.065</ele>
        <time>2016-12-22T15:54:14Z</time>
      </trkpt>
      <trkpt lat="43.90872" lon="7.72412">
        <ele>800.214</ele>
        <time>2016-12-22T15:54:16Z</time>
      </trkpt>
      <trkpt lat="43.90869" lon="7.72415">
        <ele>800.31</ele>
        <time>2016-12-22T15:54:18Z</time>
      </trkpt>
      <trkpt lat="43.90867" lon="7.72418">
        <ele>800.449</ele>
        <time>2016-12-22T15:54:21Z</time>
      </trkpt>
      <trkpt lat="43.90863" lon="7.72419">
        <ele>800.692</ele>
        <time>2016-12-22T15:54:25Z</time>
      </trkpt>
      <trkpt lat="43.90861" lon="7.72422">
        <ele>801.802</ele>
        <time>2016-12-22T15:54:34Z</time>
      </trkpt>
      <trkpt lat="43.90856" lon="7.72421">
        <ele>802.922</ele>
        <time>2016-12-22T15:54:49Z</time>
      </trkpt>
      <trkpt lat="43.90853" lon="7.72423">
        <ele>803.621</ele>
        <time>2016-12-22T15:54:57Z</time>
      </trkpt>
      <trkpt lat="43.90851" lon="7.72424">
        <ele>804.299</ele>
        <time>2016-12-22T15:55:01Z</time>
      </trkpt>
      <trkpt lat="43.90848" lon="7.72421">
        <ele>805.877</ele>
        <time>2016-12-22T15:55:17Z</time>
      </trkpt>
      <trkpt lat="43.90851" lon="7.72418">
        <ele>806.573</ele>
        <time>2016-12-22T15:55:21Z</time>
      </trkpt>
      <trkpt lat="43.90852" lon="7.72415">
        <ele>807.215</ele>
        <time>2016-12-22T15:55:24Z</time>
      </trkpt>
      <trkpt lat="43.90853" lon="7.7241">
        <ele>807.832</ele>
        <time>2016-12-22T15:55:27Z</time>
      </trkpt>
      <trkpt lat="43.90856" lon="7.72408">
        <ele>807.451</ele>
        <time>2016-12-22T15:55:49Z</time>
      </trkpt>
      <trkpt lat="43.90857" lon="7.72402">
        <ele>807.878</ele>
        <time>2016-12-22T15:55:52Z</time>
      </trkpt>
      <trkpt lat="43.90857" lon="7.72397">
        <ele>808.188</ele>
        <time>2016-12-22T15:55:54Z</time>
      </trkpt>
      <trkpt lat="43.90857" lon="7.72393">
        <ele>808.672</ele>
        <time>2016-12-22T15:55:56Z</time>
      </trkpt>
      <trkpt lat="43.90857" lon="7.72388">
        <ele>809.409</ele>
        <time>2016-12-22T15:55:58Z</time>
      </trkpt>
      <trkpt lat="43.90857" lon="7.72384">
        <ele>811.692</ele>
        <time>2016-12-22T15:56:07Z</time>
      </trkpt>
      <trkpt lat="43.90856" lon="7.7238">
        <ele>812.07</ele>
        <time>2016-12-22T15:56:13Z</time>
      </trkpt>
      <trkpt lat="43.90855" lon="7.72375">
        <ele>812.559</ele>
        <time>2016-12-22T15:56:16Z</time>
      </trkpt>
      <trkpt lat="43.90853" lon="7.7237">
        <ele>812.71</ele>
        <time>2016-12-22T15:56:19Z</time>
      </trkpt>
      <trkpt lat="43.90853" lon="7.72365">
        <ele>812.792</ele>
        <time>2016-12-22T15:56:22Z</time>
      </trkpt>
      <trkpt lat="43.9085" lon="7.72362">
        <ele>812.859</ele>
        <time>2016-12-22T15:56:24Z</time>
      </trkpt>
      <trkpt lat="43.90846" lon="7.72357">
        <ele>813.006</ele>
        <time>2016-12-22T15:56:27Z</time>
      </trkpt>
      <trkpt lat="43.90845" lon="7.72354">
        <ele>813.115</ele>
        <time>2016-12-22T15:56:29Z</time>
      </trkpt>
      <trkpt lat="43.90844" lon="7.72351">
        <ele>813.406</ele>
        <time>2016-12-22T15:56:33Z</time>
      </trkpt>
      <trkpt lat="43.90841" lon="7.72352">
        <ele>813.371</ele>
        <time>2016-12-22T15:56:40Z</time>
      </trkpt>
      <trkpt lat="43.90842" lon="7.72348">
        <ele>813.587</ele>
        <time>2016-12-22T15:56:52Z</time>
      </trkpt>
      <trkpt lat="43.90845" lon="7.72344">
        <ele>813.853</ele>
        <time>2016-12-22T15:56:56Z</time>
      </trkpt>
      <trkpt lat="43.90848" lon="7.72343">
        <ele>815.249</ele>
        <time>2016-12-22T15:57:00Z</time>
      </trkpt>
      <trkpt lat="43.90844" lon="7.72341">
        <ele>816.321</ele>
        <time>2016-12-22T15:57:17Z</time>
      </trkpt>
      <trkpt lat="43.90842" lon="7.72341">
        <ele>815.916</ele>
        <time>2016-12-22T15:57:22Z</time>
      </trkpt>
      <trkpt lat="43.90839" lon="7.72337">
        <ele>815.773</ele>
        <time>2016-12-22T15:57:25Z</time>
      </trkpt>
      <trkpt lat="43.90838" lon="7.72334">
        <ele>815.843</ele>
        <time>2016-12-22T15:57:27Z</time>
      </trkpt>
      <trkpt lat="43.90836" lon="7.72331">
        <ele>816.128</ele>
        <time>2016-12-22T15:57:30Z</time>
      </trkpt>
      <trkpt lat="43.90837" lon="7.72326">
        <ele>816.231</ele>
        <time>2016-12-22T15:57:32Z</time>
      </trkpt>
      <trkpt lat="43.90836" lon="7.72323">
        <ele>816.632</ele>
        <time>2016-12-22T15:57:35Z</time>
      </trkpt>
      <trkpt lat="43.90836" lon="7.72318">
        <ele>817.024</ele>
        <time>2016-12-22T15:57:38Z</time>
      </trkpt>
      <trkpt lat="43.90835" lon="7.72313">
        <ele>817.474</ele>
        <time>2016-12-22T15:57:41Z</time>
      </trkpt>
      <trkpt lat="43.90836" lon="7.72308">
        <ele>817.953</ele>
        <time>2016-12-22T15:57:45Z</time>
      </trkpt>
      <trkpt lat="43.90835" lon="7.72303">
        <ele>818.149</ele>
        <time>2016-12-22T15:57:47Z</time>
      </trkpt>
      <trkpt lat="43.90833" lon="7.72299">
        <ele>818.579</ele>
        <time>2016-12-22T15:57:50Z</time>
      </trkpt>
      <trkpt lat="43.90832" lon="7.72295">
        <ele>818.853</ele>
        <time>2016-12-22T15:57:52Z</time>
      </trkpt>
      <trkpt lat="43.90831" lon="7.7229">
        <ele>819.205</ele>
        <time>2016-12-22T15:57:55Z</time>
      </trkpt>
      <trkpt lat="43.90829" lon="7.72285">
        <ele>819.522</ele>
        <time>2016-12-22T15:57:58Z</time>
      </trkpt>
      <trkpt lat="43.90829" lon="7.72281">
        <ele>819.847</ele>
        <time>2016-12-22T15:58:01Z</time>
      </trkpt>
      <trkpt lat="43.90828" lon="7.72277">
        <ele>820.454</ele>
        <time>2016-12-22T15:58:05Z</time>
      </trkpt>
      <trkpt lat="43.90827" lon="7.72272">
        <ele>820.796</ele>
        <time>2016-12-22T15:58:07Z</time>
      </trkpt>
      <trkpt lat="43.90827" lon="7.72267">
        <ele>821.4</ele>
        <time>2016-12-22T15:58:10Z</time>
      </trkpt>
      <trkpt lat="43.90827" lon="7.72262">
        <ele>821.893</ele>
        <time>2016-12-22T15:58:13Z</time>
      </trkpt>
      <trkpt lat="43.90827" lon="7.72258">
        <ele>822.57</ele>
        <time>2016-12-22T15:58:18Z</time>
      </trkpt>
      <trkpt lat="43.90828" lon="7.72254">
        <ele>823.015</ele>
        <time>2016-12-22T15:58:20Z</time>
      </trkpt>
      <trkpt lat="43.90829" lon="7.7225">
        <ele>823.455</ele>
        <time>2016-12-22T15:58:22Z</time>
      </trkpt>
      <trkpt lat="43.9083" lon="7.72242">
        <ele>823.838</ele>
        <time>2016-12-22T15:58:24Z</time>
      </trkpt>
      <trkpt lat="43.9083" lon="7.72238">
        <ele>824.288</ele>
        <time>2016-12-22T15:58:26Z</time>
      </trkpt>
      <trkpt lat="43.90831" lon="7.72234">
        <ele>825.06</ele>
        <time>2016-12-22T15:58:30Z</time>
      </trkpt>
      <trkpt lat="43.90828" lon="7.72233">
        <ele>825.746</ele>
        <time>2016-12-22T15:58:36Z</time>
      </trkpt>
      <trkpt lat="43.90827" lon="7.72238">
        <ele>826.638</ele>
        <time>2016-12-22T15:58:44Z</time>
      </trkpt>
      <trkpt lat="43.90823" lon="7.72245">
        <ele>826.89</ele>
        <time>2016-12-22T15:58:48Z</time>
      </trkpt>
      <trkpt lat="43.90822" lon="7.72249">
        <ele>827.209</ele>
        <time>2016-12-22T15:58:52Z</time>
      </trkpt>
      <trkpt lat="43.90821" lon="7.72253">
        <ele>827.384</ele>
        <time>2016-12-22T15:58:55Z</time>
      </trkpt>
      <trkpt lat="43.9082" lon="7.72258">
        <ele>827.546</ele>
        <time>2016-12-22T15:58:59Z</time>
      </trkpt>
      <trkpt lat="43.90819" lon="7.72263">
        <ele>827.826</ele>
        <time>2016-12-22T15:59:02Z</time>
      </trkpt>
      <trkpt lat="43.90817" lon="7.72265">
        <ele>828.034</ele>
        <time>2016-12-22T15:59:04Z</time>
      </trkpt>
      <trkpt lat="43.90813" lon="7.72273">
        <ele>828.367</ele>
        <time>2016-12-22T15:59:09Z</time>
      </trkpt>
      <trkpt lat="43.90811" lon="7.72276">
        <ele>828.837</ele>
        <time>2016-12-22T15:59:13Z</time>
      </trkpt>
      <trkpt lat="43.90809" lon="7.7228">
        <ele>829.744</ele>
        <time>2016-12-22T15:59:17Z</time>
      </trkpt>
      <trkpt lat="43.90808" lon="7.72284">
        <ele>830.464</ele>
        <time>2016-12-22T15:59:20Z</time>
      </trkpt>
      <trkpt lat="43.90805" lon="7.72287">
        <ele>830.942</ele>
        <time>2016-12-22T15:59:22Z</time>
      </trkpt>
      <trkpt lat="43.90801" lon="7.72289">
        <ele>831.413</ele>
        <time>2016-12-22T15:59:25Z</time>
      </trkpt>
      <trkpt lat="43.90799" lon="7.72292">
        <ele>831.773</ele>
        <time>2016-12-22T15:59:27Z</time>
      </trkpt>
      <trkpt lat="43.90798" lon="7.72296">
        <ele>832.229</ele>
        <time>2016-12-22T15:59:30Z</time>
      </trkpt>
      <trkpt lat="43.90798" lon="7.723">
        <ele>832.728</ele>
        <time>2016-12-22T15:59:33Z</time>
      </trkpt>
      <trkpt lat="43.90798" lon="7.72305">
        <ele>833.266</ele>
        <time>2016-12-22T15:59:36Z</time>
      </trkpt>
      <trkpt lat="43.90798" lon="7.72309">
        <ele>833.596</ele>
        <time>2016-12-22T15:59:38Z</time>
      </trkpt>
      <trkpt lat="43.90797" lon="7.72313">
        <ele>833.904</ele>
        <time>2016-12-22T15:59:41Z</time>
      </trkpt>
      <trkpt lat="43.90796" lon="7.72317">
        <ele>833.852</ele>
        <time>2016-12-22T15:59:46Z</time>
      </trkpt>
      <trkpt lat="43.90794" lon="7.72322">
        <ele>834.851</ele>
        <time>2016-12-22T15:59:53Z</time>
      </trkpt>
      <trkpt lat="43.90793" lon="7.72326">
        <ele>835.337</ele>
        <time>2016-12-22T15:59:56Z</time>
      </trkpt>
      <trkpt lat="43.90791" lon="7.7233">
        <ele>835.823</ele>
        <time>2016-12-22T16:00:00Z</time>
      </trkpt>
      <trkpt lat="43.90789" lon="7.72332">
        <ele>836.037</ele>
        <time>2016-12-22T16:00:02Z</time>
      </trkpt>
      <trkpt lat="43.90787" lon="7.72336">
        <ele>836.455</ele>
        <time>2016-12-22T16:00:04Z</time>
      </trkpt>
      <trkpt lat="43.90786" lon="7.7234">
        <ele>837.067</ele>
        <time>2016-12-22T16:00:08Z</time>
      </trkpt>
      <trkpt lat="43.90783" lon="7.72344">
        <ele>837.543</ele>
        <time>2016-12-22T16:00:11Z</time>
      </trkpt>
      <trkpt lat="43.9078" lon="7.72347">
        <ele>837.86</ele>
        <time>2016-12-22T16:00:15Z</time>
      </trkpt>
      <trkpt lat="43.90778" lon="7.72348">
        <ele>838.458</ele>
        <time>2016-12-22T16:00:19Z</time>
      </trkpt>
      <trkpt lat="43.90775" lon="7.7235">
        <ele>839.036</ele>
        <time>2016-12-22T16:00:22Z</time>
      </trkpt>
      <trkpt lat="43.90773" lon="7.72352">
        <ele>839.682</ele>
        <time>2016-12-22T16:00:25Z</time>
      </trkpt>
      <trkpt lat="43.9077" lon="7.72354">
        <ele>840.061</ele>
        <time>2016-12-22T16:00:27Z</time>
      </trkpt>
      <trkpt lat="43.90767" lon="7.72356">
        <ele>840.311</ele>
        <time>2016-12-22T16:00:29Z</time>
      </trkpt>
      <trkpt lat="43.90764" lon="7.72359">
        <ele>840.615</ele>
        <time>2016-12-22T16:00:31Z</time>
      </trkpt>
      <trkpt lat="43.90761" lon="7.72361">
        <ele>840.843</ele>
        <time>2016-12-22T16:00:33Z</time>
      </trkpt>
      <trkpt lat="43.90759" lon="7.72364">
        <ele>840.842</ele>
        <time>2016-12-22T16:00:35Z</time>
      </trkpt>
      <trkpt lat="43.90758" lon="7.72366">
        <ele>841.039</ele>
        <time>2016-12-22T16:00:38Z</time>
      </trkpt>
      <trkpt lat="43.90755" lon="7.72368">
        <ele>841.262</ele>
        <time>2016-12-22T16:00:41Z</time>
      </trkpt>
      <trkpt lat="43.90752" lon="7.72366">
        <ele>841.673</ele>
        <time>2016-12-22T16:00:45Z</time>
      </trkpt>
      <trkpt lat="43.90747" lon="7.7236">
        <ele>842.18</ele>
        <time>2016-12-22T16:00:48Z</time>
      </trkpt>
      <trkpt lat="43.90745" lon="7.72357">
        <ele>842.622</ele>
        <time>2016-12-22T16:00:50Z</time>
      </trkpt>
      <trkpt lat="43.90745" lon="7.72353">
        <ele>843.521</ele>
        <time>2016-12-22T16:00:56Z</time>
      </trkpt>
      <trkpt lat="43.90742" lon="7.72351">
        <ele>843.907</ele>
        <time>2016-12-22T16:00:59Z</time>
      </trkpt>
      <trkpt lat="43.90739" lon="7.72349">
        <ele>844.324</ele>
        <time>2016-12-22T16:01:02Z</time>
      </trkpt>
      <trkpt lat="43.90736" lon="7.72348">
        <ele>844.473</ele>
        <time>2016-12-22T16:01:04Z</time>
      </trkpt>
      <trkpt lat="43.90733" lon="7.72344">
        <ele>844.554</ele>
        <time>2016-12-22T16:01:06Z</time>
      </trkpt>
      <trkpt lat="43.90731" lon="7.7234">
        <ele>844.949</ele>
        <time>2016-12-22T16:01:09Z</time>
      </trkpt>
      <trkpt lat="43.90729" lon="7.72337">
        <ele>845.487</ele>
        <time>2016-12-22T16:01:12Z</time>
      </trkpt>
      <trkpt lat="43.90728" lon="7.72333">
        <ele>846.268</ele>
        <time>2016-12-22T16:01:17Z</time>
      </trkpt>
      <trkpt lat="43.90727" lon="7.72329">
        <ele>846.406</ele>
        <time>2016-12-22T16:01:19Z</time>
      </trkpt>
      <trkpt lat="43.90727" lon="7.72325">
        <ele>846.361</ele>
        <time>2016-12-22T16:01:21Z</time>
      </trkpt>
      <trkpt lat="43.90726" lon="7.72321">
        <ele>846.377</ele>
        <time>2016-12-22T16:01:23Z</time>
      </trkpt>
      <trkpt lat="43.90726" lon="7.72315">
        <ele>846.364</ele>
        <time>2016-12-22T16:01:25Z</time>
      </trkpt>
      <trkpt lat="43.90727" lon="7.72311">
        <ele>846.424</ele>
        <time>2016-12-22T16:01:27Z</time>
      </trkpt>
      <trkpt lat="43.90726" lon="7.72305">
        <ele>846.506</ele>
        <time>2016-12-22T16:01:30Z</time>
      </trkpt>
      <trkpt lat="43.90726" lon="7.723">
        <ele>846.572</ele>
        <time>2016-12-22T16:01:33Z</time>
      </trkpt>
      <trkpt lat="43.90725" lon="7.72296">
        <ele>846.387</ele>
        <time>2016-12-22T16:01:35Z</time>
      </trkpt>
      <trkpt lat="43.90723" lon="7.72292">
        <ele>845.973</ele>
        <time>2016-12-22T16:01:38Z</time>
      </trkpt>
      <trkpt lat="43.9072" lon="7.72289">
        <ele>845.738</ele>
        <time>2016-12-22T16:01:40Z</time>
      </trkpt>
      <trkpt lat="43.90718" lon="7.72285">
        <ele>845.141</ele>
        <time>2016-12-22T16:01:43Z</time>
      </trkpt>
      <trkpt lat="43.90715" lon="7.72282">
        <ele>844.875</ele>
        <time>2016-12-22T16:01:46Z</time>
      </trkpt>
      <trkpt lat="43.90712" lon="7.72279">
        <ele>844.704</ele>
        <time>2016-12-22T16:01:48Z</time>
      </trkpt>
      <trkpt lat="43.9071" lon="7.72275">
        <ele>844.238</ele>
        <time>2016-12-22T16:01:51Z</time>
      </trkpt>
      <trkpt lat="43.90708" lon="7.72272">
        <ele>843.919</ele>
        <time>2016-12-22T16:01:53Z</time>
      </trkpt>
      <trkpt lat="43.90704" lon="7.72269">
        <ele>843.363</ele>
        <time>2016-12-22T16:01:56Z</time>
      </trkpt>
      <trkpt lat="43.90702" lon="7.72267">
        <ele>843.067</ele>
        <time>2016-12-22T16:01:58Z</time>
      </trkpt>
      <trkpt lat="43.90699" lon="7.72265">
        <ele>842.687</ele>
        <time>2016-12-22T16:02:00Z</time>
      </trkpt>
      <trkpt lat="43.90695" lon="7.72266">
        <ele>842.2</ele>
        <time>2016-12-22T16:02:03Z</time>
      </trkpt>
      <trkpt lat="43.90691" lon="7.72266">
        <ele>841.727</ele>
        <time>2016-12-22T16:02:06Z</time>
      </trkpt>
      <trkpt lat="43.90688" lon="7.72266">
        <ele>841.442</ele>
        <time>2016-12-22T16:02:09Z</time>
      </trkpt>
      <trkpt lat="43.90685" lon="7.72267">
        <ele>841.28</ele>
        <time>2016-12-22T16:02:11Z</time>
      </trkpt>
      <trkpt lat="43.90682" lon="7.72267">
        <ele>841.085</ele>
        <time>2016-12-22T16:02:14Z</time>
      </trkpt>
      <trkpt lat="43.90679" lon="7.72269">
        <ele>840.907</ele>
        <time>2016-12-22T16:02:16Z</time>
      </trkpt>
      <trkpt lat="43.90676" lon="7.7227">
        <ele>840.588</ele>
        <time>2016-12-22T16:02:19Z</time>
      </trkpt>
      <trkpt lat="43.90673" lon="7.72272">
        <ele>840.379</ele>
        <time>2016-12-22T16:02:21Z</time>
      </trkpt>
      <trkpt lat="43.9067" lon="7.72274">
        <ele>840.231</ele>
        <time>2016-12-22T16:02:23Z</time>
      </trkpt>
      <trkpt lat="43.90667" lon="7.72277">
        <ele>839.935</ele>
        <time>2016-12-22T16:02:26Z</time>
      </trkpt>
      <trkpt lat="43.90664" lon="7.7228">
        <ele>839.779</ele>
        <time>2016-12-22T16:02:29Z</time>
      </trkpt>
      <trkpt lat="43.90661" lon="7.72282">
        <ele>839.676</ele>
        <time>2016-12-22T16:02:32Z</time>
      </trkpt>
      <trkpt lat="43.90658" lon="7.72284">
        <ele>839.527</ele>
        <time>2016-12-22T16:02:34Z</time>
      </trkpt>
      <trkpt lat="43.90654" lon="7.72284">
        <ele>839.404</ele>
        <time>2016-12-22T16:02:37Z</time>
      </trkpt>
      <trkpt lat="43.90652" lon="7.72284">
        <ele>839.414</ele>
        <time>2016-12-22T16:02:39Z</time>
      </trkpt>
      <trkpt lat="43.90648" lon="7.72282">
        <ele>839.41</ele>
        <time>2016-12-22T16:02:42Z</time>
      </trkpt>
      <trkpt lat="43.90644" lon="7.72282">
        <ele>839.467</ele>
        <time>2016-12-22T16:02:44Z</time>
      </trkpt>
      <trkpt lat="43.90641" lon="7.72283">
        <ele>839.553</ele>
        <time>2016-12-22T16:02:46Z</time>
      </trkpt>
      <trkpt lat="43.90637" lon="7.72284">
        <ele>839.626</ele>
        <time>2016-12-22T16:02:49Z</time>
      </trkpt>
      <trkpt lat="43.90633" lon="7.72285">
        <ele>839.832</ele>
        <time>2016-12-22T16:02:52Z</time>
      </trkpt>
      <trkpt lat="43.9063" lon="7.72287">
        <ele>839.814</ele>
        <time>2016-12-22T16:02:56Z</time>
      </trkpt>
      <trkpt lat="43.90627" lon="7.72288">
        <ele>839.812</ele>
        <time>2016-12-22T16:02:58Z</time>
      </trkpt>
      <trkpt lat="43.90624" lon="7.72289">
        <ele>840.04</ele>
        <time>2016-12-22T16:03:01Z</time>
      </trkpt>
      <trkpt lat="43.90621" lon="7.72289">
        <ele>840.192</ele>
        <time>2016-12-22T16:03:03Z</time>
      </trkpt>
      <trkpt lat="43.90617" lon="7.7229">
        <ele>840.546</ele>
        <time>2016-12-22T16:03:06Z</time>
      </trkpt>
      <trkpt lat="43.90614" lon="7.7229">
        <ele>840.913</ele>
        <time>2016-12-22T16:03:08Z</time>
      </trkpt>
      <trkpt lat="43.90611" lon="7.72291">
        <ele>841.145</ele>
        <time>2016-12-22T16:03:10Z</time>
      </trkpt>
      <trkpt lat="43.90608" lon="7.72293">
        <ele>841.368</ele>
        <time>2016-12-22T16:03:13Z</time>
      </trkpt>
      <trkpt lat="43.90605" lon="7.72295">
        <ele>841.525</ele>
        <time>2016-12-22T16:03:16Z</time>
      </trkpt>
      <trkpt lat="43.90602" lon="7.72297">
        <ele>841.615</ele>
        <time>2016-12-22T16:03:19Z</time>
      </trkpt>
      <trkpt lat="43.90599" lon="7.72301">
        <ele>841.659</ele>
        <time>2016-12-22T16:03:22Z</time>
      </trkpt>
      <trkpt lat="43.90599" lon="7.72306">
        <ele>841.852</ele>
        <time>2016-12-22T16:03:25Z</time>
      </trkpt>
      <trkpt lat="43.906" lon="7.7231">
        <ele>842.012</ele>
        <time>2016-12-22T16:03:28Z</time>
      </trkpt>
      <trkpt lat="43.90601" lon="7.72314">
        <ele>842.33</ele>
        <time>2016-12-22T16:03:32Z</time>
      </trkpt>
      <trkpt lat="43.90599" lon="7.72316">
        <ele>842.08</ele>
        <time>2016-12-22T16:04:07Z</time>
      </trkpt>
      <trkpt lat="43.90599" lon="7.7232">
        <ele>841.342</ele>
        <time>2016-12-22T16:04:21Z</time>
      </trkpt>
      <trkpt lat="43.90599" lon="7.72323">
        <ele>841.149</ele>
        <time>2016-12-22T16:04:26Z</time>
      </trkpt>
      <trkpt lat="43.90599" lon="7.72328">
        <ele>842.01</ele>
        <time>2016-12-22T16:04:35Z</time>
      </trkpt>
      <trkpt lat="43.90602" lon="7.72329">
        <ele>844.15</ele>
        <time>2016-12-22T16:04:56Z</time>
      </trkpt>
      <trkpt lat="43.90602" lon="7.72334">
        <ele>845.139</ele>
        <time>2016-12-22T16:05:05Z</time>
      </trkpt>
      <trkpt lat="43.90603" lon="7.72338">
        <ele>846.093</ele>
        <time>2016-12-22T16:05:10Z</time>
      </trkpt>
      <trkpt lat="43.906" lon="7.72337">
        <ele>848.496</ele>
        <time>2016-12-22T16:05:23Z</time>
      </trkpt>
      <trkpt lat="43.90596" lon="7.72336">
        <ele>848.934</ele>
        <time>2016-12-22T16:05:27Z</time>
      </trkpt>
      <trkpt lat="43.90592" lon="7.72337">
        <ele>849.384</ele>
        <time>2016-12-22T16:05:36Z</time>
      </trkpt>
      <trkpt lat="43.90589" lon="7.72338">
        <ele>849.794</ele>
        <time>2016-12-22T16:05:39Z</time>
      </trkpt>
      <trkpt lat="43.90587" lon="7.72339">
        <ele>850.109</ele>
        <time>2016-12-22T16:05:45Z</time>
      </trkpt>
      <trkpt lat="43.90584" lon="7.72341">
        <ele>850.505</ele>
        <time>2016-12-22T16:05:51Z</time>
      </trkpt>
      <trkpt lat="43.90581" lon="7.72342">
        <ele>851.382</ele>
        <time>2016-12-22T16:06:02Z</time>
      </trkpt>
      <trkpt lat="43.90578" lon="7.7234">
        <ele>852.37</ele>
        <time>2016-12-22T16:06:17Z</time>
      </trkpt>
      <trkpt lat="43.90575" lon="7.72341">
        <ele>852.615</ele>
        <time>2016-12-22T16:06:36Z</time>
      </trkpt>
      <trkpt lat="43.90572" lon="7.72342">
        <ele>852.521</ele>
        <time>2016-12-22T16:06:41Z</time>
      </trkpt>
      <trkpt lat="43.9057" lon="7.72342">
        <ele>852.997</ele>
        <time>2016-12-22T16:06:49Z</time>
      </trkpt>
      <trkpt lat="43.90567" lon="7.72344">
        <ele>853.367</ele>
        <time>2016-12-22T16:06:56Z</time>
      </trkpt>
      <trkpt lat="43.90564" lon="7.72345">
        <ele>853.538</ele>
        <time>2016-12-22T16:07:03Z</time>
      </trkpt>
      <trkpt lat="43.90564" lon="7.72349">
        <ele>854.921</ele>
        <time>2016-12-22T16:07:18Z</time>
      </trkpt>
      <trkpt lat="43.90562" lon="7.72352">
        <ele>855.165</ele>
        <time>2016-12-22T16:07:22Z</time>
      </trkpt>
      <trkpt lat="43.9056" lon="7.72356">
        <ele>855.732</ele>
        <time>2016-12-22T16:07:29Z</time>
      </trkpt>
      <trkpt lat="43.90558" lon="7.72358">
        <ele>855.907</ele>
        <time>2016-12-22T16:07:32Z</time>
      </trkpt>
      <trkpt lat="43.90555" lon="7.72358">
        <ele>856.124</ele>
        <time>2016-12-22T16:07:34Z</time>
      </trkpt>
      <trkpt lat="43.90552" lon="7.72359">
        <ele>856.412</ele>
        <time>2016-12-22T16:07:37Z</time>
      </trkpt>
      <trkpt lat="43.90548" lon="7.72361">
        <ele>856.662</ele>
        <time>2016-12-22T16:07:41Z</time>
      </trkpt>
      <trkpt lat="43.90546" lon="7.72364">
        <ele>856.581</ele>
        <time>2016-12-22T16:07:43Z</time>
      </trkpt>
      <trkpt lat="43.90543" lon="7.72363">
        <ele>856.701</ele>
        <time>2016-12-22T16:07:48Z</time>
      </trkpt>
      <trkpt lat="43.90541" lon="7.72365">
        <ele>857.011</ele>
        <time>2016-12-22T16:07:52Z</time>
      </trkpt>
      <trkpt lat="43.90537" lon="7.72369">
        <ele>857.319</ele>
        <time>2016-12-22T16:07:56Z</time>
      </trkpt>
      <trkpt lat="43.90534" lon="7.72371">
        <ele>857.829</ele>
        <time>2016-12-22T16:07:59Z</time>
      </trkpt>
      <trkpt lat="43.90531" lon="7.72373">
        <ele>858.807</ele>
        <time>2016-12-22T16:08:02Z</time>
      </trkpt>
      <trkpt lat="43.90529" lon="7.72376">
        <ele>860.415</ele>
        <time>2016-12-22T16:08:22Z</time>
      </trkpt>
      <trkpt lat="43.90528" lon="7.72379">
        <ele>860.879</ele>
        <time>2016-12-22T16:08:40Z</time>
      </trkpt>
      <trkpt lat="43.90526" lon="7.72382">
        <ele>861.267</ele>
        <time>2016-12-22T16:08:56Z</time>
      </trkpt>
      <trkpt lat="43.90523" lon="7.72385">
        <ele>861.481</ele>
        <time>2016-12-22T16:08:59Z</time>
      </trkpt>
      <trkpt lat="43.9052" lon="7.72388">
        <ele>861.712</ele>
        <time>2016-12-22T16:09:02Z</time>
      </trkpt>
      <trkpt lat="43.90518" lon="7.72392">
        <ele>861.922</ele>
        <time>2016-12-22T16:09:05Z</time>
      </trkpt>
      <trkpt lat="43.90515" lon="7.72395">
        <ele>862.137</ele>
        <time>2016-12-22T16:09:09Z</time>
      </trkpt>
      <trkpt lat="43.90512" lon="7.72399">
        <ele>862.338</ele>
        <time>2016-12-22T16:09:12Z</time>
      </trkpt>
      <trkpt lat="43.9051" lon="7.72401">
        <ele>862.697</ele>
        <time>2016-12-22T16:09:15Z</time>
      </trkpt>
      <trkpt lat="43.90508" lon="7.72404">
        <ele>863.131</ele>
        <time>2016-12-22T16:09:18Z</time>
      </trkpt>
      <trkpt lat="43.90505" lon="7.72403">
        <ele>864.153</ele>
        <time>2016-12-22T16:09:34Z</time>
      </trkpt>
      <trkpt lat="43.90502" lon="7.72402">
        <ele>865.223</ele>
        <time>2016-12-22T16:09:49Z</time>
      </trkpt>
      <trkpt lat="43.90499" lon="7.724">
        <ele>866.071</ele>
        <time>2016-12-22T16:09:54Z</time>
      </trkpt>
      <trkpt lat="43.90497" lon="7.72397">
        <ele>866.426</ele>
        <time>2016-12-22T16:09:58Z</time>
      </trkpt>
      <trkpt lat="43.90495" lon="7.72394">
        <ele>866.788</ele>
        <time>2016-12-22T16:10:03Z</time>
      </trkpt>
      <trkpt lat="43.90492" lon="7.7239">
        <ele>867.216</ele>
        <time>2016-12-22T16:10:07Z</time>
      </trkpt>
      <trkpt lat="43.90489" lon="7.72389">
        <ele>867.554</ele>
        <time>2016-12-22T16:10:10Z</time>
      </trkpt>
      <trkpt lat="43.90486" lon="7.72387">
        <ele>868.196</ele>
        <time>2016-12-22T16:10:13Z</time>
      </trkpt>
      <trkpt lat="43.90483" lon="7.72385">
        <ele>868.499</ele>
        <time>2016-12-22T16:10:15Z</time>
      </trkpt>
      <trkpt lat="43.9048" lon="7.72384">
        <ele>869.007</ele>
        <time>2016-12-22T16:10:17Z</time>
      </trkpt>
      <trkpt lat="43.90478" lon="7.72383">
        <ele>869.389</ele>
        <time>2016-12-22T16:10:19Z</time>
      </trkpt>
      <trkpt lat="43.90475" lon="7.72382">
        <ele>869.691</ele>
        <time>2016-12-22T16:10:21Z</time>
      </trkpt>
      <trkpt lat="43.90472" lon="7.72381">
        <ele>870.327</ele>
        <time>2016-12-22T16:10:24Z</time>
      </trkpt>
      <trkpt lat="43.90469" lon="7.72381">
        <ele>870.889</ele>
        <time>2016-12-22T16:10:27Z</time>
      </trkpt>
      <trkpt lat="43.90466" lon="7.72382">
        <ele>871.674</ele>
        <time>2016-12-22T16:10:32Z</time>
      </trkpt>
      <trkpt lat="43.90463" lon="7.72382">
        <ele>872.346</ele>
        <time>2016-12-22T16:10:36Z</time>
      </trkpt>
      <trkpt lat="43.9046" lon="7.72383">
        <ele>872.968</ele>
        <time>2016-12-22T16:10:39Z</time>
      </trkpt>
      <trkpt lat="43.90457" lon="7.72384">
        <ele>873.491</ele>
        <time>2016-12-22T16:10:42Z</time>
      </trkpt>
      <trkpt lat="43.90454" lon="7.72385">
        <ele>875.454</ele>
        <time>2016-12-22T16:10:50Z</time>
      </trkpt>
      <trkpt lat="43.90453" lon="7.72389">
        <ele>876.875</ele>
        <time>2016-12-22T16:10:57Z</time>
      </trkpt>
      <trkpt lat="43.90451" lon="7.72393">
        <ele>877.896</ele>
        <time>2016-12-22T16:11:03Z</time>
      </trkpt>
      <trkpt lat="43.90447" lon="7.72392">
        <ele>878.532</ele>
        <time>2016-12-22T16:11:06Z</time>
      </trkpt>
      <trkpt lat="43.90444" lon="7.7239">
        <ele>879.132</ele>
        <time>2016-12-22T16:11:09Z</time>
      </trkpt>
      <trkpt lat="43.90443" lon="7.72387">
        <ele>879.592</ele>
        <time>2016-12-22T16:11:12Z</time>
      </trkpt>
      <trkpt lat="43.90442" lon="7.72383">
        <ele>880.295</ele>
        <time>2016-12-22T16:11:15Z</time>
      </trkpt>
      <trkpt lat="43.90441" lon="7.72379">
        <ele>881.156</ele>
        <time>2016-12-22T16:11:18Z</time>
      </trkpt>
      <trkpt lat="43.90439" lon="7.72374">
        <ele>882.238</ele>
        <time>2016-12-22T16:11:21Z</time>
      </trkpt>
      <trkpt lat="43.90437" lon="7.72371">
        <ele>883.178</ele>
        <time>2016-12-22T16:11:24Z</time>
      </trkpt>
      <trkpt lat="43.90434" lon="7.72367">
        <ele>883.731</ele>
        <time>2016-12-22T16:11:26Z</time>
      </trkpt>
      <trkpt lat="43.90433" lon="7.72363">
        <ele>884.19</ele>
        <time>2016-12-22T16:11:28Z</time>
      </trkpt>
      <trkpt lat="43.90432" lon="7.72356">
        <ele>884.617</ele>
        <time>2016-12-22T16:11:31Z</time>
      </trkpt>
      <trkpt lat="43.90432" lon="7.72352">
        <ele>885.016</ele>
        <time>2016-12-22T16:11:33Z</time>
      </trkpt>
      <trkpt lat="43.90431" lon="7.72348">
        <ele>885.621</ele>
        <time>2016-12-22T16:11:36Z</time>
      </trkpt>
      <trkpt lat="43.90429" lon="7.72343">
        <ele>885.971</ele>
        <time>2016-12-22T16:11:38Z</time>
      </trkpt>
      <trkpt lat="43.90429" lon="7.72339">
        <ele>886.388</ele>
        <time>2016-12-22T16:11:40Z</time>
      </trkpt>
      <trkpt lat="43.90428" lon="7.72335">
        <ele>886.919</ele>
        <time>2016-12-22T16:11:43Z</time>
      </trkpt>
      <trkpt lat="43.90427" lon="7.72329">
        <ele>887.268</ele>
        <time>2016-12-22T16:11:45Z</time>
      </trkpt>
      <trkpt lat="43.90427" lon="7.72325">
        <ele>887.782</ele>
        <time>2016-12-22T16:11:48Z</time>
      </trkpt>
      <trkpt lat="43.90426" lon="7.72319">
        <ele>888.31</ele>
        <time>2016-12-22T16:11:51Z</time>
      </trkpt>
      <trkpt lat="43.90424" lon="7.72314">
        <ele>888.642</ele>
        <time>2016-12-22T16:11:54Z</time>
      </trkpt>
      <trkpt lat="43.90422" lon="7.72311">
        <ele>888.859</ele>
        <time>2016-12-22T16:11:56Z</time>
      </trkpt>
      <trkpt lat="43.9042" lon="7.72306">
        <ele>888.988</ele>
        <time>2016-12-22T16:11:58Z</time>
      </trkpt>
      <trkpt lat="43.90419" lon="7.72303">
        <ele>889.103</ele>
        <time>2016-12-22T16:12:00Z</time>
      </trkpt>
      <trkpt lat="43.90417" lon="7.72297">
        <ele>889.356</ele>
        <time>2016-12-22T16:12:02Z</time>
      </trkpt>
      <trkpt lat="43.90415" lon="7.72291">
        <ele>889.483</ele>
        <time>2016-12-22T16:12:04Z</time>
      </trkpt>
      <trkpt lat="43.90414" lon="7.72288">
        <ele>889.631</ele>
        <time>2016-12-22T16:12:06Z</time>
      </trkpt>
      <trkpt lat="43.90412" lon="7.72284">
        <ele>889.841</ele>
        <time>2016-12-22T16:12:09Z</time>
      </trkpt>
      <trkpt lat="43.90411" lon="7.72279">
        <ele>890.189</ele>
        <time>2016-12-22T16:12:11Z</time>
      </trkpt>
      <trkpt lat="43.9041" lon="7.72276">
        <ele>890.338</ele>
        <time>2016-12-22T16:12:13Z</time>
      </trkpt>
      <trkpt lat="43.90408" lon="7.72271">
        <ele>890.588</ele>
        <time>2016-12-22T16:12:16Z</time>
      </trkpt>
      <trkpt lat="43.90407" lon="7.72266">
        <ele>890.787</ele>
        <time>2016-12-22T16:12:18Z</time>
      </trkpt>
      <trkpt lat="43.90406" lon="7.72262">
        <ele>890.881</ele>
        <time>2016-12-22T16:12:20Z</time>
      </trkpt>
      <trkpt lat="43.90404" lon="7.72257">
        <ele>890.983</ele>
        <time>2016-12-22T16:12:22Z</time>
      </trkpt>
      <trkpt lat="43.90403" lon="7.72253">
        <ele>891.232</ele>
        <time>2016-12-22T16:12:25Z</time>
      </trkpt>
      <trkpt lat="43.90402" lon="7.72248">
        <ele>891.491</ele>
        <time>2016-12-22T16:12:28Z</time>
      </trkpt>
      <trkpt lat="43.90401" lon="7.72243">
        <ele>891.738</ele>
        <time>2016-12-22T16:12:31Z</time>
      </trkpt>
      <trkpt lat="43.90399" lon="7.72237">
        <ele>891.734</ele>
        <time>2016-12-22T16:12:33Z</time>
      </trkpt>
      <trkpt lat="43.90397" lon="7.72233">
        <ele>891.701</ele>
        <time>2016-12-22T16:12:35Z</time>
      </trkpt>
      <trkpt lat="43.90395" lon="7.72229">
        <ele>891.635</ele>
        <time>2016-12-22T16:12:37Z</time>
      </trkpt>
      <trkpt lat="43.90393" lon="7.72225">
        <ele>891.546</ele>
        <time>2016-12-22T16:12:39Z</time>
      </trkpt>
      <trkpt lat="43.90391" lon="7.72222">
        <ele>891.483</ele>
        <time>2016-12-22T16:12:43Z</time>
      </trkpt>
      <trkpt lat="43.90389" lon="7.72217">
        <ele>891.551</ele>
        <time>2016-12-22T16:12:45Z</time>
      </trkpt>
      <trkpt lat="43.90388" lon="7.72214">
        <ele>891.721</ele>
        <time>2016-12-22T16:12:47Z</time>
      </trkpt>
      <trkpt lat="43.90386" lon="7.7221">
        <ele>891.817</ele>
        <time>2016-12-22T16:12:49Z</time>
      </trkpt>
      <trkpt lat="43.90385" lon="7.72206">
        <ele>892.078</ele>
        <time>2016-12-22T16:12:52Z</time>
      </trkpt>
      <trkpt lat="43.90383" lon="7.72203">
        <ele>892.268</ele>
        <time>2016-12-22T16:12:55Z</time>
      </trkpt>
      <trkpt lat="43.90381" lon="7.72199">
        <ele>892.444</ele>
        <time>2016-12-22T16:12:57Z</time>
      </trkpt>
      <trkpt lat="43.90379" lon="7.72196">
        <ele>892.597</ele>
        <time>2016-12-22T16:12:59Z</time>
      </trkpt>
      <trkpt lat="43.90377" lon="7.72192">
        <ele>892.75</ele>
        <time>2016-12-22T16:13:01Z</time>
      </trkpt>
      <trkpt lat="43.90376" lon="7.72188">
        <ele>892.965</ele>
        <time>2016-12-22T16:13:03Z</time>
      </trkpt>
      <trkpt lat="43.90374" lon="7.72185">
        <ele>893.226</ele>
        <time>2016-12-22T16:13:06Z</time>
      </trkpt>
      <trkpt lat="43.90372" lon="7.72182">
        <ele>893.581</ele>
        <time>2016-12-22T16:13:08Z</time>
      </trkpt>
      <trkpt lat="43.9037" lon="7.72179">
        <ele>893.906</ele>
        <time>2016-12-22T16:13:10Z</time>
      </trkpt>
      <trkpt lat="43.90368" lon="7.72174">
        <ele>894.148</ele>
        <time>2016-12-22T16:13:12Z</time>
      </trkpt>
      <trkpt lat="43.90366" lon="7.7217">
        <ele>894.486</ele>
        <time>2016-12-22T16:13:15Z</time>
      </trkpt>
      <trkpt lat="43.90365" lon="7.72166">
        <ele>894.915</ele>
        <time>2016-12-22T16:13:18Z</time>
      </trkpt>
      <trkpt lat="43.90364" lon="7.72161">
        <ele>895.213</ele>
        <time>2016-12-22T16:13:21Z</time>
      </trkpt>
      <trkpt lat="43.90362" lon="7.72156">
        <ele>895.528</ele>
        <time>2016-12-22T16:13:24Z</time>
      </trkpt>
      <trkpt lat="43.90362" lon="7.72151">
        <ele>895.875</ele>
        <time>2016-12-22T16:13:27Z</time>
      </trkpt>
      <trkpt lat="43.90362" lon="7.72147">
        <ele>896.179</ele>
        <time>2016-12-22T16:13:29Z</time>
      </trkpt>
      <trkpt lat="43.90362" lon="7.72141">
        <ele>896.616</ele>
        <time>2016-12-22T16:13:32Z</time>
      </trkpt>
      <trkpt lat="43.9036" lon="7.72137">
        <ele>896.752</ele>
        <time>2016-12-22T16:13:34Z</time>
      </trkpt>
      <trkpt lat="43.9036" lon="7.72132">
        <ele>896.954</ele>
        <time>2016-12-22T16:13:36Z</time>
      </trkpt>
      <trkpt lat="43.90359" lon="7.72128">
        <ele>897.353</ele>
        <time>2016-12-22T16:13:39Z</time>
      </trkpt>
      <trkpt lat="43.90358" lon="7.72123">
        <ele>897.747</ele>
        <time>2016-12-22T16:13:42Z</time>
      </trkpt>
      <trkpt lat="43.90356" lon="7.72118">
        <ele>898.005</ele>
        <time>2016-12-22T16:13:44Z</time>
      </trkpt>
      <trkpt lat="43.90355" lon="7.72114">
        <ele>898.63</ele>
        <time>2016-12-22T16:13:47Z</time>
      </trkpt>
      <trkpt lat="43.90353" lon="7.7211">
        <ele>898.945</ele>
        <time>2016-12-22T16:13:50Z</time>
      </trkpt>
      <trkpt lat="43.90351" lon="7.72111">
        <ele>900.868</ele>
        <time>2016-12-22T16:14:07Z</time>
      </trkpt>
      <trkpt lat="43.90348" lon="7.72113">
        <ele>900.742</ele>
        <time>2016-12-22T16:14:11Z</time>
      </trkpt>
    </trkseg>
  </trk>
</gpx>